ftp/pub/palmer/observations_modified/2017/November/AR171110_BASE.txt

Download

Sample DateTime	Unit Id	WS Avg 2min	WD Avg 2min	WGS 10min	WGD 10min	Air Temp	Rel Humidity	Dew Point	Pyranometer	Quantum	Air Pressure	Snow Level	Rainfall	PW Current	Visibility	CBase 1	CBase 2	CBase 3	Vert Vis
2017/11/10 00:00:00	BASE	7.36	293	8.44	290	-0.6	100	-0.6	16	36	994.8	NA	0.0000		9999	390	0	0	0
2017/11/10 00:01:00	BASE	7.71	293	8.49	290	-0.6	100	-0.6	17	38	994.8	NA	0.0000		9999	390	0	0	0
2017/11/10 00:02:00	BASE	7.66	294	8.49	290	-0.6	100	-0.6	18	38	994.8	NA	0.0000		9999	460	0	0	0
2017/11/10 00:03:00	BASE	7.57	294	8.49	290	-0.6	100	-0.6	18	38	994.8	NA	0.0000		9999	430	0	0	0
2017/11/10 00:04:00	BASE	7.11	293	8.49	290	-0.6	100	-0.6	17	37	994.8	NA	0.0000		9999	430	0	0	0
2017/11/10 00:05:00	BASE	6.63	290	8.49	290	-0.6	100	-0.6	16	35	994.9	NA	0.0000		9999	390	2030	0	0
2017/11/10 00:06:00	BASE	6.71	287	8.49	290	-0.6	100	-0.6	15	33	994.9	NA	0.0000		9999	430	0	0	0
2017/11/10 00:07:00	BASE	6.80	284	8.49	290	-0.6	100	-0.6	14	31	994.9	NA	0.0000		9999	390	0	0	0
2017/11/10 00:08:00	BASE	6.84	282	8.49	290	-0.6	100	-0.6	14	30	994.9	NA	0.0000		9999	390	0	0	0
2017/11/10 00:09:00	BASE	6.96	281	8.49	290	-0.7	100	-0.7	13	29	994.9	NA	0.0000		9000	390	0	0	0
2017/11/10 00:10:00	BASE	7.18	281	8.49	290	-0.7	100	-0.7	13	27	994.9	NA	0.0000		9000	390	0	0	0
2017/11/10 00:11:00	BASE	7.17	282	8.08	290	-0.7	100	-0.7	11	25	994.9	NA	0.0000		9999	390	0	0	0
2017/11/10 00:12:00	BASE	6.97	283	8.08	290	-0.8	100	-0.8	11	25	994.9	NA	0.0000		9999	360	0	0	0
2017/11/10 00:13:00	BASE	7.07	286	7.82	278	-0.8	100	-0.8	10	24	994.9	NA	0.0000		9999	360	0	0	0
2017/11/10 00:14:00	BASE	6.93	290	7.82	278	-0.8	100	-0.8	10	22	994.9	NA	0.0000		9999	330	0	0	0
2017/11/10 00:15:00	BASE	6.44	291	7.82	278	-0.8	100	-0.8	9	20	994.9	NA	0.0000		9999	360	0	0	0
2017/11/10 00:16:00	BASE	6.44	288	7.82	278	-0.8	100	-0.8	8	20	994.9	NA	0.0000		9999	300	0	0	0
2017/11/10 00:17:00	BASE	6.58	287	7.82	278	-0.9	100	-0.9	8	20	994.9	NA	0.0000		6000	330	0	0	0
2017/11/10 00:18:00	BASE	6.59	287	7.82	278	-0.9	100	-0.9	8	18	994.9	NA	0.0000	BR	4500	330	0	0	0
2017/11/10 00:19:00	BASE	6.54	289	7.82	278	-0.9	100	-0.9	7	17	994.9	NA	0.0000	UP BR	3100	260	0	0	0
2017/11/10 00:20:00	BASE	6.41	290	7.82	278	-0.9	100	-0.9	6	15	995.0	NA	0.0000	UP BR	2200	0	0	0	1020
2017/11/10 00:21:00	BASE	6.45	290	7.82	278	-0.9	100	-0.9	6	14	995.0	NA	0.0000	UP BR	2800	0	0	0	1020
2017/11/10 00:22:00	BASE	6.26	289	7.61	287	-1.0	100	-1.0	6	14	995.0	NA	0.0000	UP BR	2600	0	0	0	1380
2017/11/10 00:23:00	BASE	6.25	288	7.51	290	-1.0	100	-1.0	6	14	995.0	NA	0.0000	UP BR	1900	0	0	0	1640
2017/11/10 00:24:00	BASE	6.36	288	7.51	290	-1.0	100	-1.0	6	13	994.9	NA	0.0000	UP BR	2300	0	0	0	1210
2017/11/10 00:25:00	BASE	6.65	287	7.51	290	-1.0	100	-1.0	5	13	994.9	NA	0.0000	UP BR	2400	0	0	0	1410
2017/11/10 00:26:00	BASE	6.73	288	7.25	282	-1.0	100	-1.0	5	12	994.9	NA	0.0000	UP BR	1900	0	0	0	1210
2017/11/10 00:27:00	BASE	6.10	291	7.20	287	-1.0	100	-1.0	5	4	995.0	NA	0.0000	UP BR	1600	0	0	0	1280
2017/11/10 00:28:00	BASE	5.94	293	7.20	287	-1.0	100	-1.0	4	4	995.0	NA	0.0000	UP BR	1300	0	0	0	1380
2017/11/10 00:29:00	BASE	6.09	295	7.20	287	-1.0	100	-1.0	4	4	995.0	NA	0.0000	UP BR	1300	0	0	0	1350
2017/11/10 00:30:00	BASE	6.21	296	7.20	287	-1.0	100	-1.0	5	11	994.9	NA	0.0000	UP BR	1500	0	0	0	1540
2017/11/10 00:31:00	BASE	6.22	296	7.20	287	-1.0	100	-1.0	4	11	994.9	NA	0.0000	UP BR	2400	230	0	0	0
2017/11/10 00:32:00	BASE	6.20	295	7.20	287	-1.0	100	-1.0	4	10	994.9	NA	0.0000	UP BR	2400	230	0	0	0
2017/11/10 00:33:00	BASE	6.22	292	7.20	287	-1.0	100	-1.0	4	9	995.0	NA	0.0000	UP BR	2400	330	0	0	0
2017/11/10 00:34:00	BASE	6.24	290	7.15	287	-1.0	100	-1.0	4	8	995.0	NA	0.0000	UP BR	2400	330	0	0	0
2017/11/10 00:35:00	BASE	6.40	289	7.05	288	-1.0	100	-1.0	4	8	995.0	NA	0.0000	UP BR	2400	260	0	0	0
2017/11/10 00:36:00	BASE	6.21	290	7.05	288	-1.0	100	-1.0	3	8	995.0	NA	0.0000	UP BR	2400	300	0	0	0
2017/11/10 00:37:00	BASE	6.38	291	7.51	288	-1.1	100	-1.1	4	8	995.0	NA	0.0000	UP BR	2400	260	0	0	0
2017/11/10 00:38:00	BASE	6.65	292	7.51	288	-1.1	100	-1.1	4	8	995.0	NA	0.0000	UP BR	2400	300	0	0	0
2017/11/10 00:39:00	BASE	6.69	293	7.51	288	-1.1	100	-1.1	4	4	995.0	NA	0.0000	UP BR	2400	260	0	0	0
2017/11/10 00:40:00	BASE	6.69	293	7.51	288	-1.1	100	-1.1	4	5	995.0	NA	0.0000	UP BR	2400	200	0	0	0
2017/11/10 00:41:00	BASE	6.47	296	7.51	288	-1.1	100	-1.1	4	8	995.0	NA	0.0000	UP BR	2500	1770	0	0	0
2017/11/10 00:42:00	BASE	6.21	296	7.51	288	-1.1	100	-1.1	4	8	995.0	NA	0.0000	UP BR	3000	230	0	0	0
2017/11/10 00:43:00	BASE	6.04	297	7.51	288	-1.1	100	-1.1	4	7	995.0	NA	0.0000	UP BR	3000	230	0	0	0
2017/11/10 00:44:00	BASE	6.16	300	7.51	288	-1.1	100	-1.1	4	7	995.0	NA	0.0000	UP BR	3000	230	0	0	0
2017/11/10 00:45:00	BASE	6.34	300	7.51	288	-1.1	100	-1.1	4	7	995.0	NA	0.0000	UP BR	3000	0	0	0	1540
2017/11/10 00:46:00	BASE	5.94	301	7.51	288	-1.1	100	-1.1	4	6	994.9	NA	0.0000	UP BR	3000	0	0	0	1570
2017/11/10 00:47:00	BASE	5.46	301	7.25	293	-1.1	100	-1.1	4	6	995.0	NA	0.0000	UP BR	2900	0	0	0	1640
2017/11/10 00:48:00	BASE	5.30	300	7.25	293	-1.1	100	-1.1	3	6	995.0	NA	0.0000	UP BR	2700	230	0	0	0
2017/11/10 00:49:00	BASE	5.19	301	7.15	293	-1.1	100	-1.1	3	6	995.0	NA	0.0000	UP BR	2600	0	0	0	1540
2017/11/10 00:50:00	BASE	5.23	301	6.94	299	-1.1	100	-1.1	3	5	994.9	NA	0.0000	UP BR	2900	0	0	0	1570
2017/11/10 00:51:00	BASE	5.22	302	6.94	299	-1.1	100	-1.1	3	1	994.9	NA	0.0000	UP BR	2600	0	0	0	1670
2017/11/10 00:52:00	BASE	5.25	299	6.94	299	-1.1	100	-1.1	3	6	994.9	NA	0.0000	UP BR	2600	0	0	0	1640
2017/11/10 00:53:00	BASE	5.63	298	6.94	299	-1.1	100	-1.1	3	6	994.9	NA	0.0000	UP BR	2200	0	0	0	1540
2017/11/10 00:54:00	BASE	6.10	297	7.41	289	-1.1	100	-1.1	4	6	994.9	NA	0.0000	UP BR	1700	0	0	0	1310
2017/11/10 00:55:00	BASE	6.73	295	7.67	291	-1.1	100	-1.1	4	5	994.9	NA	0.0000	UP BR	1500	0	0	0	1350
2017/11/10 00:56:00	BASE	7.06	293	7.67	291	-1.2	100	-1.2	4	4	994.9	NA	0.0000	UP BR	1400	0	0	0	1380
2017/11/10 00:57:00	BASE	6.92	292	7.77	295	-1.2	100	-1.2	4	4	994.9	NA	0.0000	UP BR	1300	0	0	0	1020
2017/11/10 00:58:00	BASE	6.75	293	7.77	295	-1.3	100	-1.3	4	3	994.9	NA	0.0000	UP BR	1300	0	0	0	920
2017/11/10 00:59:00	BASE	6.99	290	7.77	290	-1.3	100	-1.3	4	3	994.9	NA	0.0000	UP BR	1400	200	0	0	0
2017/11/10 01:00:00	BASE	7.33	285	7.82	284	-1.4	100	-1.4	4	3	994.9	NA	0.0000	UP BR	1400	300	0	0	0
2017/11/10 01:01:00	BASE	7.07	284	7.82	284	-1.4	100	-1.4	4	2	994.9	NA	0.0000	UP BR	1400	300	0	0	0
2017/11/10 01:02:00	BASE	6.82	285	7.82	284	-1.5	100	-1.5	4	2	994.9	NA	0.0000	UP BR	1400	260	0	0	0
2017/11/10 01:03:00	BASE	6.81	285	7.82	284	-1.5	100	-1.5	3	2	995.0	NA	0.0000	UP BR	1400	300	0	0	0
2017/11/10 01:04:00	BASE	6.51	284	7.82	284	-1.5	100	-1.5	4	1	995.0	NA	0.0000	UP BR	1400	260	0	0	0
2017/11/10 01:05:00	BASE	6.30	284	7.82	284	-1.6	100	-1.6	4	1	995.0	NA	0.0000	UP BR	1400	0	0	0	1900
2017/11/10 01:06:00	BASE	6.45	283	7.82	284	-1.6	100	-1.6	3	1	995.0	NA	0.0000	UP BR	1400	0	0	0	2200
2017/11/10 01:07:00	BASE	5.96	283	7.82	284	-1.6	100	-1.6	3	1	995.1	NA	0.0000	UP BR	1400	260	0	0	0
2017/11/10 01:08:00	BASE	5.50	287	7.82	284	-1.6	100	-1.6	3	1	995.1	NA	0.0000	BR	1400	260	0	0	0
2017/11/10 01:09:00	BASE	5.75	289	7.82	284	-1.6	100	-1.6	3	1	995.1	NA	0.0000	BR	1400	300	0	0	0
2017/11/10 01:10:00	BASE	5.50	291	7.51	283	-1.6	100	-1.6	2	1	995.1	NA	0.0000	BR	1400	0	0	0	2660
2017/11/10 01:11:00	BASE	5.42	291	7.51	283	-1.6	100	-1.6	2	1	995.1	NA	0.0000	BR	1400	330	0	0	0
2017/11/10 01:12:00	BASE	5.49	290	7.15	284	-1.6	100	-1.6	2	0	995.1	NA	0.0000	BR	1400	360	0	0	0
2017/11/10 01:13:00	BASE	4.93	295	7.15	284	-1.6	100	-1.6	1	1	995.1	NA	0.0000	BR	1400	300	1540	0	0
2017/11/10 01:14:00	BASE	4.66	299	7.15	284	-1.6	100	-1.6	1	1	995.1	NA	0.0000	BR	1400	360	0	0	0
2017/11/10 01:15:00	BASE	4.54	301	7.15	284	-1.5	100	-1.5	1	1	995.1	NA	0.0000	BR	1900	360	0	0	0
2017/11/10 01:16:00	BASE	4.42	302	6.43	288	-1.5	100	-1.5	1	1	995.2	NA	0.0000	BR	9999	390	0	0	0
2017/11/10 01:17:00	BASE	4.48	304	6.43	288	-1.5	100	-1.5	1	0	995.2	NA	0.0000	BR	9999	390	1120	0	0
2017/11/10 01:18:00	BASE	4.49	308	6.38	285	-1.5	100	-1.5	1	0	995.2	NA	0.0000	BR	9999	330	0	0	0
2017/11/10 01:19:00	BASE	4.46	313	6.38	285	-1.5	100	-1.5	0	0	995.2	NA	0.0000	BR	9999	260	0	0	0
2017/11/10 01:20:00	BASE	4.52	317	6.38	285	-1.5	100	-1.5	0	0	995.2	NA	0.0000	BR	9999	230	0	0	0
2017/11/10 01:21:00	BASE	4.65	316	5.76	289	-1.5	100	-1.5	0	0	995.2	NA	0.0000	BR	9999	230	0	0	0
2017/11/10 01:22:00	BASE	4.64	318	5.45	320	-1.5	100	-1.5	0	0	995.2	NA	0.0000	BR	9999	300	1020	0	0
2017/11/10 01:23:00	BASE	4.68	320	5.45	320	-1.5	100	-1.5	0	0	995.3	NA	0.0000	BR	9999	360	0	0	0
2017/11/10 01:24:00	BASE	4.70	317	5.45	320	-1.5	100	-1.5	0	0	995.3	NA	0.0000	BR	9999	360	1210	0	0
2017/11/10 01:25:00	BASE	4.47	317	5.45	320	-1.5	100	-1.5	0	0	995.3	NA	0.0000		9999	360	1120	0	0
2017/11/10 01:26:00	BASE	4.25	317	5.45	320	-1.5	100	-1.5	0	0	995.3	NA	0.0000		9999	360	1120	0	0
2017/11/10 01:27:00	BASE	3.99	315	5.45	320	-1.5	100	-1.5	0	0	995.3	NA	0.0000		9999	330	1180	0	0
2017/11/10 01:28:00	BASE	3.83	317	5.45	320	-1.5	100	-1.5	0	0	995.3	NA	0.0000		9999	300	1120	0	0
2017/11/10 01:29:00	BASE	3.65	321	5.45	320	-1.5	100	-1.5	0	0	995.3	NA	0.0000		9999	390	0	0	0
2017/11/10 01:30:00	BASE	3.72	321	5.45	320	-1.5	100	-1.5	0	0	995.3	NA	0.0000		9999	390	1150	0	0
2017/11/10 01:31:00	BASE	4.19	325	5.25	322	-1.5	100	-1.5	0	0	995.3	NA	0.0000		9999	460	0	0	0
2017/11/10 01:32:00	BASE	4.51	327	5.25	322	-1.5	100	-1.5	0	0	995.3	NA	0.0000		9999	390	1080	0	0
2017/11/10 01:33:00	BASE	4.66	325	5.04	321	-1.5	100	-1.5	0	0	995.3	NA	0.0000		9999	360	1080	0	0
2017/11/10 01:34:00	BASE	4.53	326	5.04	321	-1.5	100	-1.5	0	0	995.3	NA	0.0000		9999	360	1080	0	0
2017/11/10 01:35:00	BASE	4.49	330	5.25	333	-1.5	100	-1.5	0	0	995.3	NA	0.0000		9999	330	1050	0	0
2017/11/10 01:36:00	BASE	4.82	332	5.45	332	-1.5	100	-1.5	0	0	995.3	NA	0.0000		9999	390	0	0	0
2017/11/10 01:37:00	BASE	5.03	332	5.56	328	-1.5	100	-1.5	0	0	995.3	NA	0.0000		9999	360	1150	0	0
2017/11/10 01:38:00	BASE	5.18	331	6.17	328	-1.5	100	-1.5	0	0	995.3	NA	0.0000		9999	390	1180	0	0
2017/11/10 01:39:00	BASE	5.35	329	6.17	328	-1.5	100	-1.5	0	0	995.3	NA	0.0000		9999	1050	0	0	0
2017/11/10 01:40:00	BASE	5.28	329	6.17	328	-1.5	100	-1.5	0	0	995.3	NA	0.0000		9999	820	0	0	0
2017/11/10 01:41:00	BASE	5.24	331	6.17	328	-1.5	100	-1.5	0	0	995.3	NA	0.0000		9999	430	0	0	0
2017/11/10 01:42:00	BASE	5.44	332	6.17	328	-1.5	100	-1.6	0	0	995.3	NA	0.0000		9999	390	0	0	0
2017/11/10 01:43:00	BASE	5.47	332	6.17	328	-1.6	100	-1.6	0	0	995.3	NA	0.0000		9999	1380	0	0	0
2017/11/10 01:44:00	BASE	5.42	331	6.17	328	-1.6	100	-1.6	0	0	995.3	NA	0.0000		9999	390	0	0	0
2017/11/10 01:45:00	BASE	5.33	332	6.17	328	-1.6	100	-1.6	0	0	995.3	NA	0.0000		9999	390	0	0	0
2017/11/10 01:46:00	BASE	5.17	332	6.17	328	-1.6	100	-1.6	0	0	995.3	NA	0.0000		9999	360	1310	0	0
2017/11/10 01:47:00	BASE	5.27	334	6.17	328	-1.6	100	-1.6	0	0	995.3	NA	0.0000		9999	360	0	0	0
2017/11/10 01:48:00	BASE	5.60	334	6.22	333	-1.5	100	-1.5	0	0	995.3	NA	0.0000		9999	360	0	0	0
2017/11/10 01:49:00	BASE	5.64	332	6.22	333	-1.6	100	-1.6	0	0	995.3	NA	0.0000		9999	390	0	0	0
2017/11/10 01:50:00	BASE	5.22	334	6.22	333	-1.6	100	-1.6	0	0	995.3	NA	0.0000		9999	1510	0	0	0
2017/11/10 01:51:00	BASE	4.99	335	6.22	333	-1.6	100	-1.6	0	0	995.3	NA	0.0000		9999	1410	0	0	0
2017/11/10 01:52:00	BASE	5.17	333	6.22	333	-1.6	100	-1.6	0	0	995.3	NA	0.0000		9999	1350	0	0	0
2017/11/10 01:53:00	BASE	5.58	332	6.22	329	-1.6	100	-1.6	0	0	995.3	NA	0.0000		9999	1540	0	0	0
2017/11/10 01:54:00	BASE	5.74	332	6.33	324	-1.6	100	-1.6	0	0	995.3	NA	0.0000		9999	1510	0	0	0
2017/11/10 01:55:00	BASE	5.50	333	6.33	324	-1.6	100	-1.6	0	0	995.4	NA	0.0000		9999	1310	0	0	0
2017/11/10 01:56:00	BASE	5.24	334	6.33	324	-1.6	100	-1.6	0	0	995.4	NA	0.0000		9999	1540	0	0	0
2017/11/10 01:57:00	BASE	5.09	335	6.33	324	-1.6	100	-1.6	0	0	995.4	NA	0.0000		9999	1050	0	0	0
2017/11/10 01:58:00	BASE	5.03	336	6.33	324	-1.5	100	-1.6	0	0	995.4	NA	0.0000		9999	1120	0	0	0
2017/11/10 01:59:00	BASE	5.07	335	6.33	324	-1.5	100	-1.5	0	0	995.4	NA	0.0000		9999	1380	0	0	0
2017/11/10 02:00:00	BASE	5.41	333	6.33	324	-1.5	100	-1.5	0	0	995.4	NA	0.0000		9999	1440	0	0	0
2017/11/10 02:01:00	BASE	5.47	341	6.33	324	-1.5	100	-1.5	0	0	995.4	NA	0.0000		9999	1280	0	0	0
2017/11/10 02:02:00	BASE	5.36	342	6.33	324	-1.5	100	-1.5	0	0	995.4	NA	0.0000		9999	1510	0	0	0
2017/11/10 02:03:00	BASE	5.37	334	6.33	324	-1.5	100	-1.5	0	0	995.4	NA	0.0000		9999	1540	0	0	0
2017/11/10 02:04:00	BASE	5.52	330	6.07	328	-1.5	100	-1.5	0	0	995.4	NA	0.0000		9999	1280	0	0	0
2017/11/10 02:05:00	BASE	5.65	328	6.43	336	-1.5	100	-1.5	0	0	995.4	NA	0.0000		9999	1150	1940	0	0
2017/11/10 02:06:00	BASE	5.59	328	6.43	336	-1.5	100	-1.5	0	0	995.3	NA	0.0000		9999	1150	0	0	0
2017/11/10 02:07:00	BASE	5.47	328	6.43	336	-1.5	100	-1.5	0	0	995.3	NA	0.0000		9999	1050	0	0	0
2017/11/10 02:08:00	BASE	5.30	325	6.43	336	-1.5	100	-1.5	0	0	995.3	NA	0.0000		9999	1250	0	0	0
2017/11/10 02:09:00	BASE	4.97	323	6.43	336	-1.4	100	-1.4	0	0	995.3	NA	0.0000		9999	1210	0	0	0
2017/11/10 02:10:00	BASE	4.71	323	6.43	336	-1.4	100	-1.4	0	0	995.4	NA	0.0000		9999	850	1410	0	0
2017/11/10 02:11:00	BASE	4.71	324	6.43	336	-1.5	100	-1.5	0	0	995.4	NA	0.0000		9999	850	0	0	0
2017/11/10 02:12:00	BASE	4.55	320	6.43	336	-1.5	100	-1.5	0	0	995.4	NA	0.0000		9999	920	0	0	0
2017/11/10 02:13:00	BASE	4.50	318	6.43	336	-1.5	100	-1.5	0	0	995.4	NA	0.0000		9999	980	0	0	0
2017/11/10 02:14:00	BASE	4.50	318	6.43	336	-1.5	100	-1.5	0	0	995.4	NA	0.0000		9999	690	0	0	0
2017/11/10 02:15:00	BASE	4.60	315	5.92	328	-1.5	100	-1.5	0	0	995.4	NA	0.0000		9999	790	0	0	0
2017/11/10 02:16:00	BASE	4.95	318	5.81	326	-1.5	100	-1.5	0	0	995.4	NA	0.0000		9999	620	0	0	0
2017/11/10 02:17:00	BASE	5.01	320	5.81	326	-1.4	100	-1.4	0	0	995.4	NA	0.0000		9999	660	0	0	0
2017/11/10 02:18:00	BASE	4.94	318	5.81	326	-1.4	100	-1.4	0	0	995.4	NA	0.0000		9999	660	0	0	0
2017/11/10 02:19:00	BASE	5.11	314	5.92	303	-1.4	100	-1.4	0	0	995.4	NA	0.0000		9999	490	0	0	0
2017/11/10 02:20:00	BASE	5.47	312	6.12	312	-1.4	100	-1.4	0	0	995.4	NA	0.0000		9999	460	0	0	0
2017/11/10 02:21:00	BASE	5.58	315	6.12	312	-1.4	100	-1.4	0	0	995.4	NA	0.0000		9999	490	0	0	0
2017/11/10 02:22:00	BASE	5.41	316	6.12	312	-1.4	100	-1.4	0	0	995.4	NA	0.0000		9999	460	0	0	0
2017/11/10 02:23:00	BASE	5.30	315	6.12	312	-1.5	100	-1.5	0	0	995.4	NA	0.0000		9999	430	0	0	0
2017/11/10 02:24:00	BASE	4.88	316	6.12	312	-1.5	100	-1.5	0	0	995.4	NA	0.0000		9999	460	0	0	0
2017/11/10 02:25:00	BASE	4.48	314	6.12	312	-1.5	100	-1.5	0	0	995.4	NA	0.0000		9999	520	0	0	0
2017/11/10 02:26:00	BASE	4.37	313	6.12	312	-1.4	100	-1.4	0	0	995.4	NA	0.0000		9999	560	0	0	0
2017/11/10 02:27:00	BASE	4.51	313	6.12	312	-1.4	100	-1.4	0	0	995.4	NA	0.0000		9999	620	0	0	0
2017/11/10 02:28:00	BASE	4.86	310	6.12	312	-1.4	100	-1.4	0	0	995.4	NA	0.0000		9999	490	0	0	0
2017/11/10 02:29:00	BASE	4.85	300	6.12	312	-1.4	100	-1.4	0	0	995.5	NA	0.0000		9999	460	0	0	0
2017/11/10 02:30:00	BASE	4.39	291	5.97	315	-1.4	100	-1.4	0	0	995.5	NA	0.0000		9999	460	0	0	0
2017/11/10 02:31:00	BASE	4.17	289	5.97	315	-1.4	100	-1.4	0	0	995.5	NA	0.0000		9999	430	0	0	0
2017/11/10 02:32:00	BASE	4.39	289	5.97	315	-1.4	100	-1.4	0	0	995.4	NA	0.0000		9999	390	0	0	0
2017/11/10 02:33:00	BASE	4.67	289	5.56	286	-1.4	100	-1.4	0	0	995.5	NA	0.0000		9999	490	0	0	0
2017/11/10 02:34:00	BASE	5.17	288	5.92	283	-1.4	100	-1.4	0	0	995.4	NA	0.0000		9999	460	0	0	0
2017/11/10 02:35:00	BASE	5.47	288	5.92	283	-1.5	100	-1.5	0	0	995.4	NA	0.0000		9999	790	0	0	0
2017/11/10 02:36:00	BASE	5.34	290	5.92	283	-1.5	100	-1.5	0	0	995.4	NA	0.0000		9999	460	0	0	0
2017/11/10 02:37:00	BASE	4.85	291	5.92	283	-1.5	100	-1.5	0	0	995.5	NA	0.0000		9999	590	0	0	0
2017/11/10 02:38:00	BASE	4.61	288	5.92	283	-1.5	100	-1.5	0	0	995.5	NA	0.0000		9999	1050	0	0	0
2017/11/10 02:39:00	BASE	5.03	288	5.92	283	-1.5	100	-1.5	0	0	995.4	NA	0.0000		9999	1050	0	0	0
2017/11/10 02:40:00	BASE	4.98	288	5.92	283	-1.5	100	-1.5	0	0	995.5	NA	0.0000		9999	890	0	0	0
2017/11/10 02:41:00	BASE	4.84	289	5.92	283	-1.5	100	-1.5	0	0	995.4	NA	0.0000		9999	890	0	0	0
2017/11/10 02:42:00	BASE	4.87	289	5.92	283	-1.5	100	-1.5	0	0	995.5	NA	0.0000		9999	890	0	0	0
2017/11/10 02:43:00	BASE	4.98	290	5.92	283	-1.5	100	-1.5	0	0	995.4	NA	0.0000		9999	850	0	0	0
2017/11/10 02:44:00	BASE	5.08	291	5.61	290	-1.5	100	-1.5	0	0	995.4	NA	0.0000		9999	890	1670	0	0
2017/11/10 02:45:00	BASE	4.86	290	5.61	290	-1.5	100	-1.5	0	0	995.4	NA	0.0000		9999	950	0	0	0
2017/11/10 02:46:00	BASE	4.71	289	5.61	290	-1.5	100	-1.5	0	0	995.4	NA	0.0000		9999	1440	0	0	0
2017/11/10 02:47:00	BASE	4.42	292	5.61	290	-1.5	100	-1.5	0	0	995.4	NA	0.0000		9999	1080	0	0	0
2017/11/10 02:48:00	BASE	4.12	295	5.61	290	-1.5	100	-1.5	0	0	995.4	NA	0.0000		9999	920	1570	0	0
2017/11/10 02:49:00	BASE	4.30	295	5.50	292	-1.5	100	-1.5	0	0	995.3	NA	0.0000		9999	890	1900	0	0
2017/11/10 02:50:00	BASE	4.37	295	5.50	292	-1.5	100	-1.5	0	0	995.4	NA	0.0000		9999	890	0	0	0
2017/11/10 02:51:00	BASE	4.21	295	5.50	292	-1.5	100	-1.5	0	0	995.4	NA	0.0000		9999	850	0	0	0
2017/11/10 02:52:00	BASE	4.26	297	5.50	292	-1.5	100	-1.5	0	0	995.4	NA	0.0000		9999	890	1480	0	0
2017/11/10 02:53:00	BASE	4.53	299	5.35	289	-1.5	100	-1.5	0	0	995.4	NA	0.0000		9999	1050	0	0	0
2017/11/10 02:54:00	BASE	4.64	300	5.09	286	-1.5	100	-1.5	0	0	995.4	NA	0.0000		9999	1020	0	0	0
2017/11/10 02:55:00	BASE	4.23	303	5.04	290	-1.5	100	-1.5	0	0	995.4	NA	0.0000		9999	1280	0	0	0
2017/11/10 02:56:00	BASE	3.73	307	4.99	298	-1.5	100	-1.5	0	0	995.4	NA	0.0000		9999	1210	0	0	0
2017/11/10 02:57:00	BASE	3.62	310	4.99	298	-1.5	100	-1.5	0	0	995.4	NA	0.0000		9999	1210	0	0	0
2017/11/10 02:58:00	BASE	3.87	312	4.99	298	-1.5	100	-1.5	0	0	995.4	NA	0.0000		9999	1150	0	0	0
2017/11/10 02:59:00	BASE	4.00	311	4.99	298	-1.5	100	-1.5	0	0	995.4	NA	0.0000		9999	1080	0	0	0
2017/11/10 03:00:00	BASE	3.90	311	4.99	298	-1.5	100	-1.5	0	0	995.4	NA	0.0000		9999	1150	0	0	0
2017/11/10 03:01:00	BASE	3.83	311	4.99	298	-1.5	100	-1.5	0	0	995.4	NA	0.0000		9999	1080	0	0	0
2017/11/10 03:02:00	BASE	3.67	312	4.99	298	-1.5	100	-1.5	0	0	995.4	NA	0.0000		9999	1180	0	0	0
2017/11/10 03:03:00	BASE	3.69	313	4.84	298	-1.5	100	-1.5	0	0	995.4	NA	0.0000		9999	1150	0	0	0
2017/11/10 03:04:00	BASE	3.77	312	4.37	313	-1.5	100	-1.5	0	0	995.4	NA	0.0000		9999	1150	0	0	0
2017/11/10 03:05:00	BASE	3.58	312	4.37	313	-1.5	100	-1.5	0	0	995.4	NA	0.0000		9999	1250	0	0	0
2017/11/10 03:06:00	BASE	3.39	311	4.37	313	-1.5	100	-1.5	0	0	995.4	NA	0.0000		9999	1210	0	0	0
2017/11/10 03:07:00	BASE	3.51	311	4.37	313	-1.5	100	-1.5	0	0	995.3	NA	0.0000		9999	1250	0	0	0
2017/11/10 03:08:00	BASE	3.55	309	4.37	313	-1.5	100	-1.5	0	0	995.3	NA	0.0000		9999	1120	0	0	0
2017/11/10 03:09:00	BASE	3.48	308	4.22	318	-1.5	100	-1.5	0	0	995.4	NA	0.0000		9999	1120	0	0	0
2017/11/10 03:10:00	BASE	3.51	309	4.22	318	-1.5	100	-1.5	0	0	995.4	NA	0.0000		9999	1120	0	0	0
2017/11/10 03:11:00	BASE	3.37	308	4.12	307	-1.5	100	-1.5	0	0	995.4	NA	0.0000		9999	1150	0	0	0
2017/11/10 03:12:00	BASE	3.19	306	4.12	307	-1.5	100	-1.5	0	0	995.4	NA	0.0000		9999	1120	0	0	0
2017/11/10 03:13:00	BASE	3.10	304	4.12	307	-1.5	100	-1.5	0	0	995.4	NA	0.0000		9999	1050	0	0	0
2017/11/10 03:14:00	BASE	3.21	304	4.01	303	-1.5	100	-1.5	0	0	995.4	NA	0.0000		9999	980	0	0	0
2017/11/10 03:15:00	BASE	3.19	304	4.01	303	-1.5	100	-1.5	0	0	995.5	NA	0.0000		9999	890	0	0	0
2017/11/10 03:16:00	BASE	3.27	307	4.01	303	-1.5	100	-1.5	0	0	995.5	NA	0.0000		9999	890	0	0	0
2017/11/10 03:17:00	BASE	3.33	306	3.76	308	-1.5	100	-1.5	0	0	995.5	NA	0.0000		9999	850	0	0	0
2017/11/10 03:18:00	BASE	3.24	305	3.76	308	-1.5	100	-1.5	0	0	995.5	NA	0.0000		9999	950	0	0	0
2017/11/10 03:19:00	BASE	3.32	305	3.76	308	-1.4	100	-1.4	0	0	995.5	NA	0.0000		9999	1120	0	0	0
2017/11/10 03:20:00	BASE	3.41	300	3.91	294	-1.4	100	-1.4	0	0	995.5	NA	0.0000		9999	1150	0	0	0
2017/11/10 03:21:00	BASE	3.47	298	3.91	294	-1.4	100	-1.4	0	0	995.5	NA	0.0000		9999	1150	0	0	0
2017/11/10 03:22:00	BASE	3.44	301	3.91	294	-1.4	100	-1.4	0	0	995.5	NA	0.0000		9999	1080	0	0	0
2017/11/10 03:23:00	BASE	3.41	302	4.01	302	-1.5	100	-1.5	0	0	995.5	NA	0.0000		9999	980	0	0	0
2017/11/10 03:24:00	BASE	3.50	300	4.32	296	-1.5	100	-1.5	0	0	995.5	NA	0.0000		9999	1020	0	0	0
2017/11/10 03:25:00	BASE	3.82	297	4.32	296	-1.5	100	-1.5	0	0	995.4	NA	0.0000		9999	1080	0	0	0
2017/11/10 03:26:00	BASE	3.83	297	4.32	296	-1.5	100	-1.5	0	0	995.4	NA	0.0000		9999	950	0	0	0
2017/11/10 03:27:00	BASE	3.89	300	4.42	299	-1.4	100	-1.4	0	0	995.4	NA	0.0000		9999	1020	0	0	0
2017/11/10 03:28:00	BASE	4.22	301	4.53	301	-1.4	100	-1.4	0	0	995.4	NA	0.0000		9999	850	0	0	0
2017/11/10 03:29:00	BASE	4.09	303	4.53	301	-1.4	100	-1.4	0	0	995.4	NA	0.0000		9999	890	0	0	0
2017/11/10 03:30:00	BASE	3.85	303	4.53	301	-1.4	100	-1.4	0	0	995.3	NA	0.0000		9999	890	0	0	0
2017/11/10 03:31:00	BASE	4.05	302	4.68	303	-1.4	100	-1.4	0	0	995.3	NA	0.0000		9999	590	0	0	0
2017/11/10 03:32:00	BASE	4.39	302	4.89	295	-1.4	100	-1.4	0	0	995.3	NA	0.0000		9999	520	0	0	0
2017/11/10 03:33:00	BASE	4.48	300	4.89	295	-1.4	100	-1.4	0	0	995.3	NA	0.0000		9999	430	0	0	0
2017/11/10 03:34:00	BASE	4.24	300	4.89	295	-1.4	100	-1.4	0	0	995.3	NA	0.0000		9999	520	0	0	0
2017/11/10 03:35:00	BASE	4.21	300	4.89	295	-1.4	100	-1.4	0	0	995.3	NA	0.0000		9999	490	0	0	0
2017/11/10 03:36:00	BASE	4.26	298	5.14	299	-1.4	100	-1.4	0	0	995.3	NA	0.0000		9999	460	0	0	0
2017/11/10 03:37:00	BASE	4.24	299	5.14	299	-1.4	100	-1.4	0	0	995.3	NA	0.0000		9999	590	0	0	0
2017/11/10 03:38:00	BASE	4.21	301	5.14	299	-1.4	100	-1.4	0	0	995.3	NA	0.0000		9999	560	0	0	0
2017/11/10 03:39:00	BASE	3.92	301	5.14	299	-1.4	100	-1.4	0	0	995.3	NA	0.0000		9999	560	0	0	0
2017/11/10 03:40:00	BASE	3.80	303	5.14	299	-1.4	100	-1.4	0	0	995.3	NA	0.0000		9999	620	0	0	0
2017/11/10 03:41:00	BASE	3.99	304	5.14	299	-1.4	100	-1.4	0	0	995.3	NA	0.0000		9999	490	0	0	0
2017/11/10 03:42:00	BASE	4.36	304	5.14	299	-1.4	100	-1.4	0	0	995.3	NA	0.0000		9999	490	0	0	0
2017/11/10 03:43:00	BASE	4.44	304	5.14	299	-1.4	100	-1.4	0	0	995.3	NA	0.0000		9999	520	0	0	0
2017/11/10 03:44:00	BASE	4.38	304	5.14	299	-1.4	100	-1.4	0	0	995.2	NA	0.0000		9999	720	0	0	0
2017/11/10 03:45:00	BASE	4.52	302	5.14	299	-1.4	100	-1.4	0	0	995.2	NA	0.0000		9999	690	0	0	0
2017/11/10 03:46:00	BASE	4.40	300	5.09	304	-1.5	100	-1.5	0	0	995.2	NA	0.0000		9999	720	0	0	0
2017/11/10 03:47:00	BASE	4.25	300	5.09	304	-1.5	100	-1.5	0	0	995.2	NA	0.0000		9999	620	0	0	0
2017/11/10 03:48:00	BASE	4.23	299	5.09	304	-1.5	100	-1.5	0	0	995.2	NA	0.0000		9999	490	0	0	0
2017/11/10 03:49:00	BASE	4.17	299	5.09	304	-1.5	100	-1.5	0	0	995.2	NA	0.0000		9999	950	0	0	0
2017/11/10 03:50:00	BASE	4.24	300	5.09	304	-1.5	100	-1.5	0	0	995.1	NA	0.0000		9999	890	0	0	0
2017/11/10 03:51:00	BASE	4.19	298	5.09	304	-1.5	100	-1.5	0	0	995.1	NA	0.0000		9999	720	1350	0	0
2017/11/10 03:52:00	BASE	4.08	297	4.78	303	-1.5	100	-1.5	0	0	995.1	NA	0.0000		9999	720	0	0	0
2017/11/10 03:53:00	BASE	4.03	297	4.78	303	-1.5	100	-1.5	0	0	995.1	NA	0.0000		9999	660	0	0	0
2017/11/10 03:54:00	BASE	3.90	297	4.78	303	-1.5	100	-1.5	0	0	995.1	NA	0.0000		9999	720	0	0	0
2017/11/10 03:55:00	BASE	3.77	299	4.63	294	-1.5	100	-1.5	0	0	995.1	NA	0.0000		9999	750	1250	0	0
2017/11/10 03:56:00	BASE	4.01	297	4.63	294	-1.5	100	-1.5	0	0	995.1	NA	0.0000		9999	690	1510	0	0
2017/11/10 03:57:00	BASE	3.97	294	4.63	294	-1.5	100	-1.5	0	0	995.1	NA	0.0000		9999	790	1410	0	0
2017/11/10 03:58:00	BASE	3.64	294	4.63	294	-1.5	100	-1.5	0	0	995.1	NA	0.0000		9999	820	0	0	0
2017/11/10 03:59:00	BASE	3.72	293	4.63	294	-1.5	100	-1.5	0	0	995.1	NA	0.0000		9999	750	0	0	0
2017/11/10 04:00:00	BASE	3.74	293	4.63	294	-1.5	100	-1.5	0	0	995.1	NA	0.0000		9999	690	0	0	0
2017/11/10 04:01:00	BASE	3.63	295	4.63	294	-1.5	100	-1.5	0	0	995.1	NA	0.0000		9999	620	0	0	0
2017/11/10 04:02:00	BASE	3.59	294	4.48	294	-1.5	100	-1.5	0	0	995.1	NA	0.0000		9999	620	0	0	0
2017/11/10 04:03:00	BASE	3.41	292	4.48	294	-1.5	100	-1.5	0	0	995.1	NA	0.0000		9999	620	0	0	0
2017/11/10 04:04:00	BASE	3.22	290	4.48	294	-1.5	100	-1.5	0	0	995.1	NA	0.0000		9999	620	0	0	0
2017/11/10 04:05:00	BASE	3.17	289	4.48	294	-1.5	100	-1.5	0	0	995.0	NA	0.0000		9999	620	0	0	0
2017/11/10 04:06:00	BASE	3.20	287	4.01	290	-1.5	100	-1.5	0	0	995.0	NA	0.0000		9999	620	0	0	0
2017/11/10 04:07:00	BASE	3.26	287	4.01	290	-1.5	100	-1.5	0	0	995.0	NA	0.0000		9999	660	0	0	0
2017/11/10 04:08:00	BASE	3.18	286	4.01	290	-1.5	100	-1.5	0	0	995.0	NA	0.0000		9999	620	0	0	0
2017/11/10 04:09:00	BASE	3.18	284	4.01	290	-1.5	100	-1.5	0	0	995.1	NA	0.0000		9999	560	0	0	0
2017/11/10 04:10:00	BASE	3.34	284	4.01	285	-1.5	100	-1.5	0	0	995.1	NA	0.0000		9999	520	0	0	0
2017/11/10 04:11:00	BASE	3.78	284	4.32	287	-1.5	100	-1.5	0	0	995.1	NA	0.0000		9999	560	0	0	0
2017/11/10 04:12:00	BASE	4.08	285	4.32	287	-1.5	100	-1.5	0	0	995.1	NA	0.0000		9999	560	0	0	0
2017/11/10 04:13:00	BASE	4.06	286	4.32	287	-1.6	100	-1.6	0	0	995.1	NA	0.0000		9999	560	0	0	0
2017/11/10 04:14:00	BASE	3.99	285	4.32	287	-1.6	100	-1.6	0	0	995.1	NA	0.0000		9999	520	0	0	0
2017/11/10 04:15:00	BASE	3.96	285	4.32	287	-1.6	100	-1.6	0	0	995.1	NA	0.0000		9999	490	0	0	0
2017/11/10 04:16:00	BASE	4.00	285	4.32	287	-1.6	100	-1.6	0	0	995.1	NA	0.0000		9999	490	1120	0	0
2017/11/10 04:17:00	BASE	3.94	285	4.32	287	-1.6	100	-1.6	0	0	995.1	NA	0.0000		9999	490	0	0	0
2017/11/10 04:18:00	BASE	3.79	285	4.32	287	-1.6	100	-1.6	0	0	995.1	NA	0.0000		9999	490	0	0	0
2017/11/10 04:19:00	BASE	3.66	287	4.32	287	-1.6	100	-1.6	0	0	995.1	NA	0.0000		9999	460	0	0	0
2017/11/10 04:20:00	BASE	3.62	288	4.32	287	-1.6	100	-1.6	0	0	995.1	NA	0.0000		9999	430	0	0	0
2017/11/10 04:21:00	BASE	3.84	287	4.32	292	-1.6	100	-1.6	0	0	995.1	NA	0.0000		9999	360	0	0	0
2017/11/10 04:22:00	BASE	4.11	289	4.37	292	-1.6	100	-1.6	0	0	995.1	NA	0.0000		9999	360	0	0	0
2017/11/10 04:23:00	BASE	4.27	288	4.58	286	-1.6	100	-1.6	0	0	995.1	NA	0.0000		9999	360	0	0	0
2017/11/10 04:24:00	BASE	4.34	286	4.58	286	-1.6	100	-1.6	0	0	995.1	NA	0.0000		9999	390	1540	0	0
2017/11/10 04:25:00	BASE	4.15	285	4.58	286	-1.6	100	-1.6	0	0	995.1	NA	0.0000		9999	360	1050	0	0
2017/11/10 04:26:00	BASE	3.91	285	4.58	286	-1.7	100	-1.7	0	0	995.1	NA	0.0000		9999	490	1210	0	0
2017/11/10 04:27:00	BASE	3.77	285	4.58	286	-1.7	100	-1.7	0	0	995.1	NA	0.0000		9999	690	0	0	0
2017/11/10 04:28:00	BASE	3.57	285	4.58	286	-1.7	100	-1.7	0	0	995.1	NA	0.0000		9999	620	0	0	0
2017/11/10 04:29:00	BASE	3.49	284	4.58	286	-1.7	100	-1.7	0	0	995.1	NA	0.0000		9999	520	0	0	0
2017/11/10 04:30:00	BASE	3.57	283	4.58	286	-1.7	100	-1.7	0	0	995.2	NA	0.0000		9999	430	0	0	0
2017/11/10 04:31:00	BASE	3.57	282	4.58	286	-1.7	100	-1.7	0	0	995.2	NA	0.0000		9999	430	0	0	0
2017/11/10 04:32:00	BASE	3.62	283	4.58	286	-1.7	100	-1.7	0	0	995.2	NA	0.0000		9999	430	0	0	0
2017/11/10 04:33:00	BASE	3.69	282	4.48	289	-1.7	100	-1.7	0	0	995.2	NA	0.0000		9999	390	0	0	0
2017/11/10 04:34:00	BASE	3.64	281	4.22	285	-1.7	100	-1.7	0	0	995.2	NA	0.0000		9999	360	0	0	0
2017/11/10 04:35:00	BASE	3.56	282	4.12	287	-1.7	100	-1.7	0	0	995.2	NA	0.0000		9999	390	0	0	0
2017/11/10 04:36:00	BASE	3.54	283	3.91	284	-1.7	100	-1.7	0	0	995.2	NA	0.0000		9999	430	0	0	0
2017/11/10 04:37:00	BASE	3.56	280	3.91	282	-1.7	100	-1.7	0	0	995.2	NA	0.0000		9999	430	0	0	0
2017/11/10 04:38:00	BASE	3.55	281	3.91	282	-1.7	100	-1.7	0	0	995.2	NA	0.0000		9999	430	0	0	0
2017/11/10 04:39:00	BASE	3.56	284	3.91	282	-1.7	100	-1.7	0	0	995.2	NA	0.0000		9999	430	1840	0	0
2017/11/10 04:40:00	BASE	3.63	284	3.91	280	-1.6	100	-1.6	0	0	995.1	NA	0.0000		9999	490	0	0	0
2017/11/10 04:41:00	BASE	3.52	286	3.91	280	-1.6	100	-1.6	0	0	995.1	NA	0.0000		9999	460	0	0	0
2017/11/10 04:42:00	BASE	3.39	287	3.91	280	-1.6	100	-1.6	0	0	995.1	NA	0.0000		9999	490	0	0	0
2017/11/10 04:43:00	BASE	3.42	289	3.91	280	-1.6	100	-1.6	0	0	995.1	NA	0.0000		9999	460	0	0	0
2017/11/10 04:44:00	BASE	3.57	294	4.01	307	-1.6	100	-1.6	0	0	995.1	NA	0.0000		9999	590	0	0	0
2017/11/10 04:45:00	BASE	3.76	298	4.58	297	-1.6	100	-1.6	0	0	995.1	NA	0.0000		9999	690	0	0	0
2017/11/10 04:46:00	BASE	3.99	301	4.58	297	-1.6	100	-1.6	0	0	995.1	NA	0.0000		9999	560	0	0	0
2017/11/10 04:47:00	BASE	3.94	302	4.58	297	-1.6	100	-1.6	0	0	995.1	NA	0.0000		9999	560	0	0	0
2017/11/10 04:48:00	BASE	3.48	298	4.58	297	-1.6	100	-1.6	0	0	995.1	NA	0.0000		9999	390	0	0	0
2017/11/10 04:49:00	BASE	3.34	295	4.58	297	-1.6	100	-1.6	0	0	995.1	NA	0.0000		9999	490	0	0	0
2017/11/10 04:50:00	BASE	3.35	296	4.58	297	-1.5	100	-1.5	0	0	995.2	NA	0.0000		9999	360	0	0	0
2017/11/10 04:51:00	BASE	3.37	297	4.58	297	-1.5	100	-1.5	0	0	995.2	NA	0.0000		9999	390	0	0	0
2017/11/10 04:52:00	BASE	3.74	297	4.58	308	-1.5	100	-1.5	0	0	995.1	NA	0.0000		9999	460	0	0	0
2017/11/10 04:53:00	BASE	4.01	296	4.58	308	-1.5	100	-1.5	0	0	995.1	NA	0.0000		9999	520	0	0	0
2017/11/10 04:54:00	BASE	4.13	296	4.58	308	-1.6	100	-1.6	0	0	995.1	NA	0.0000		9999	490	0	0	0
2017/11/10 04:55:00	BASE	4.35	300	5.20	297	-1.6	100	-1.6	0	0	995.1	NA	0.0000		9999	490	0	0	0
2017/11/10 04:56:00	BASE	4.41	302	5.20	297	-1.6	100	-1.6	0	0	995.1	NA	0.0000		9999	490	0	0	0
2017/11/10 04:57:00	BASE	4.24	303	5.20	297	-1.6	100	-1.6	0	0	995.1	NA	0.0000		9999	490	0	0	0
2017/11/10 04:58:00	BASE	4.75	304	6.28	309	-1.6	100	-1.6	0	0	995.0	NA	0.0000		9999	460	0	0	0
2017/11/10 04:59:00	BASE	5.50	300	6.28	309	-1.6	100	-1.6	0	0	995.0	NA	0.0000		9999	430	0	0	0
2017/11/10 05:00:00	BASE	5.32	284	6.28	309	-1.6	100	-1.6	0	0	995.0	NA	0.0000		9999	360	0	0	0
2017/11/10 05:01:00	BASE	4.88	269	6.28	309	-1.6	100	-1.6	0	0	995.0	NA	0.0000		9999	360	1050	0	0
2017/11/10 05:02:00	BASE	4.28	262	6.28	309	-1.7	100	-1.7	0	0	995.1	NA	0.0000		9999	390	1250	0	0
2017/11/10 05:03:00	BASE	4.04	259	6.28	309	-1.8	100	-1.8	0	0	995.1	NA	0.0000		9999	430	1310	0	0
2017/11/10 05:04:00	BASE	4.28	261	6.28	309	-1.9	100	-1.9	0	0	995.1	NA	0.0000		9999	460	0	0	0
2017/11/10 05:05:00	BASE	4.34	261	6.28	309	-2.0	100	-2.0	0	0	995.1	NA	0.0000		9999	390	1120	0	0
2017/11/10 05:06:00	BASE	4.07	264	6.28	309	-2.0	100	-2.0	0	0	995.2	NA	0.0000		9999	390	0	0	0
2017/11/10 05:07:00	BASE	3.94	267	6.28	309	-2.0	100	-2.0	0	0	995.2	NA	0.0000		9999	300	1020	0	0
2017/11/10 05:08:00	BASE	4.31	265	6.12	297	-2.0	100	-2.0	0	0	995.2	NA	0.0000		9999	390	1120	0	0
2017/11/10 05:09:00	BASE	4.22	261	5.81	269	-2.1	100	-2.1	0	0	995.2	NA	0.0000		9999	1150	0	0	0
2017/11/10 05:10:00	BASE	3.65	262	5.14	268	-2.1	100	-2.1	0	0	995.2	NA	0.0000		9999	620	0	0	0
2017/11/10 05:11:00	BASE	3.58	266	5.14	268	-2.1	100	-2.1	0	0	995.2	NA	0.0000		9999	390	0	0	0
2017/11/10 05:12:00	BASE	3.81	268	5.14	268	-2.1	100	-2.1	0	0	995.2	NA	0.0000		9999	1120	0	0	0
2017/11/10 05:13:00	BASE	3.47	267	5.14	268	-2.1	100	-2.1	0	0	995.2	NA	0.0000		9999	1120	0	0	0
2017/11/10 05:14:00	BASE	3.46	270	5.14	268	-2.1	100	-2.1	0	0	995.1	NA	0.0000		9999	1150	0	0	0
2017/11/10 05:15:00	BASE	3.88	272	5.14	268	-2.1	100	-2.1	0	0	995.1	NA	0.0000		9999	1120	0	0	0
2017/11/10 05:16:00	BASE	3.94	274	5.14	268	-2.1	100	-2.1	0	0	995.1	NA	0.0000		9999	950	0	0	0
2017/11/10 05:17:00	BASE	3.97	276	5.04	262	-2.1	100	-2.1	0	0	995.1	NA	0.0000		9999	1150	0	0	0
2017/11/10 05:18:00	BASE	3.75	277	4.63	261	-2.1	100	-2.1	0	0	995.1	NA	0.0000		9999	1440	0	0	0
2017/11/10 05:19:00	BASE	3.54	279	4.58	273	-2.1	100	-2.1	0	0	995.1	NA	0.0000		9999	1510	0	0	0
2017/11/10 05:20:00	BASE	3.42	281	4.58	273	-2.1	100	-2.1	0	0	995.1	NA	0.0000		9999	1180	0	0	0
2017/11/10 05:21:00	BASE	3.29	283	4.58	273	-2.1	100	-2.1	0	0	995.1	NA	0.0000		9999	1080	0	0	0
2017/11/10 05:22:00	BASE	3.26	284	4.58	273	-2.1	100	-2.1	0	0	995.1	NA	0.0000		9999	360	1020	0	0
2017/11/10 05:23:00	BASE	3.17	283	4.58	273	-2.1	100	-2.1	0	0	995.2	NA	0.0000		9999	1020	0	0	0
2017/11/10 05:24:00	BASE	3.18	284	4.48	274	-2.1	100	-2.1	0	0	995.2	NA	0.0000		9999	980	0	0	0
2017/11/10 05:25:00	BASE	3.24	283	4.37	274	-2.1	100	-2.1	0	0	995.2	NA	0.0000		9999	390	1150	0	0
2017/11/10 05:26:00	BASE	3.14	285	4.22	278	-2.1	100	-2.1	0	0	995.2	NA	0.0000		9999	390	1150	0	0
2017/11/10 05:27:00	BASE	2.84	287	3.86	285	-2.1	100	-2.1	0	0	995.2	NA	0.0000		9999	430	1150	0	0
2017/11/10 05:28:00	BASE	2.47	292	3.86	285	-2.1	100	-2.1	0	0	995.2	NA	0.0000		9999	390	0	0	0
2017/11/10 05:29:00	BASE	2.47	295	3.76	286	-2.1	100	-2.1	0	0	995.2	NA	0.0000		9999	360	0	0	0
2017/11/10 05:30:00	BASE	2.51	295	3.76	286	-2.1	100	-2.1	0	0	995.2	NA	0.0000		9999	330	0	0	0
2017/11/10 05:31:00	BASE	2.33	294	3.65	280	-2.1	100	-2.1	0	0	995.2	NA	0.0000		9999	390	0	0	0
2017/11/10 05:32:00	BASE	2.61	295	3.65	280	-2.1	100	-2.1	0	0	995.1	NA	0.0000		9999	300	0	0	0
2017/11/10 05:33:00	BASE	2.93	294	3.65	280	-2.1	100	-2.1	0	0	995.1	NA	0.0000		9999	330	0	0	0
2017/11/10 05:34:00	BASE	3.01	297	3.65	280	-2.1	100	-2.1	0	0	995.1	NA	0.0000		9999	360	0	0	0
2017/11/10 05:35:00	BASE	3.09	298	3.55	298	-2.0	100	-2.0	0	0	995.2	NA	0.0000		9999	330	0	0	0
2017/11/10 05:36:00	BASE	3.41	295	4.06	298	-2.1	100	-2.1	0	0	995.1	NA	0.0000		9999	360	0	0	0
2017/11/10 05:37:00	BASE	3.50	295	4.06	298	-2.1	100	-2.1	0	0	995.1	NA	0.0000		9999	390	0	0	0
2017/11/10 05:38:00	BASE	3.19	295	4.06	298	-2.1	100	-2.1	0	0	995.1	NA	0.0000		9999	430	0	0	0
2017/11/10 05:39:00	BASE	2.91	295	4.06	298	-2.1	100	-2.1	0	0	995.1	NA	0.0000		9999	430	0	0	0
2017/11/10 05:40:00	BASE	2.75	295	4.06	298	-2.1	100	-2.1	0	0	995.1	NA	0.0000		9999	430	0	0	0
2017/11/10 05:41:00	BASE	2.99	298	4.06	298	-2.1	100	-2.1	0	0	995.1	NA	0.0000		9999	360	0	0	0
2017/11/10 05:42:00	BASE	3.40	299	4.06	299	-2.1	100	-2.1	0	0	995.0	NA	0.0000		9999	360	0	0	0
2017/11/10 05:43:00	BASE	3.56	296	4.06	299	-2.1	100	-2.1	0	0	995.0	NA	0.0000		9999	430	0	0	0
2017/11/10 05:44:00	BASE	3.41	293	4.06	299	-2.2	100	-2.2	0	0	995.0	NA	0.0000		9999	390	0	0	0
2017/11/10 05:45:00	BASE	3.28	296	4.06	299	-2.2	100	-2.2	0	0	995.0	NA	0.0000		9999	390	0	0	0
2017/11/10 05:46:00	BASE	3.18	301	4.06	299	-2.2	100	-2.2	0	0	995.1	NA	0.0000		9999	330	0	0	0
2017/11/10 05:47:00	BASE	2.97	305	4.06	299	-2.1	100	-2.1	0	0	995.1	NA	0.0000		9999	300	0	0	0
2017/11/10 05:48:00	BASE	2.96	309	4.06	299	-2.1	100	-2.1	0	0	995.1	NA	0.0000		9999	330	0	0	0
2017/11/10 05:49:00	BASE	2.97	311	4.06	299	-2.1	100	-2.1	0	0	995.1	NA	0.0000		9999	300	0	0	0
2017/11/10 05:50:00	BASE	2.99	312	4.06	299	-2.1	100	-2.1	0	0	995.1	NA	0.0000		9999	300	0	0	0
2017/11/10 05:51:00	BASE	3.14	312	4.06	299	-2.1	100	-2.1	0	0	995.1	NA	0.0000		9999	300	0	0	0
2017/11/10 05:52:00	BASE	3.23	309	3.91	297	-2.0	100	-2.0	0	0	995.0	NA	0.0000		9999	300	0	0	0
2017/11/10 05:53:00	BASE	3.18	304	3.86	306	-2.0	100	-2.0	0	0	994.9	NA	0.0000		9999	330	0	0	0
2017/11/10 05:54:00	BASE	3.26	298	3.86	306	-2.0	100	-2.0	0	0	994.9	NA	0.0000		9999	360	0	0	0
2017/11/10 05:55:00	BASE	3.26	301	3.86	306	-2.0	100	-2.0	0	0	994.9	NA	0.0000		9999	360	1120	0	0
2017/11/10 05:56:00	BASE	3.10	307	3.86	306	-2.0	100	-2.0	0	0	994.9	NA	0.0000		9999	360	0	0	0
2017/11/10 05:57:00	BASE	2.98	307	3.86	306	-2.1	100	-2.1	0	0	994.9	NA	0.0000		9999	360	0	0	0
2017/11/10 05:58:00	BASE	2.83	308	3.86	306	-2.1	100	-2.1	0	0	994.9	NA	0.0000		9999	330	0	0	0
2017/11/10 05:59:00	BASE	3.04	305	3.86	306	-2.1	100	-2.1	0	0	994.9	NA	0.0000		9999	360	0	0	0
2017/11/10 06:00:00	BASE	3.16	305	3.86	306	-2.1	100	-2.1	0	0	994.9	NA	0.0000		9999	360	0	0	0
2017/11/10 06:01:00	BASE	3.09	308	3.81	295	-2.1	100	-2.1	0	0	994.8	NA	0.0000		9999	360	0	0	0
2017/11/10 06:02:00	BASE	3.17	302	3.81	295	-2.1	100	-2.1	0	0	994.8	NA	0.0000		9999	390	0	0	0
2017/11/10 06:03:00	BASE	3.03	300	3.81	295	-2.2	100	-2.2	0	0	994.9	NA	0.0000		9999	430	0	0	0
2017/11/10 06:04:00	BASE	2.75	302	3.50	303	-2.2	100	-2.2	0	0	994.9	NA	0.0000		9999	390	0	0	0
2017/11/10 06:05:00	BASE	2.71	304	3.50	303	-2.2	100	-2.2	0	0	994.9	NA	0.0000		9999	330	0	0	0
2017/11/10 06:06:00	BASE	2.72	303	3.50	303	-2.2	100	-2.2	0	0	994.9	NA	0.0000		9999	300	0	0	0
2017/11/10 06:07:00	BASE	2.53	301	3.50	303	-2.2	100	-2.2	0	0	994.9	NA	0.0000		9999	330	0	0	0
2017/11/10 06:08:00	BASE	2.47	307	3.50	303	-2.2	100	-2.2	0	0	994.9	NA	0.0000		9999	300	0	0	0
2017/11/10 06:09:00	BASE	2.74	311	3.45	294	-2.2	100	-2.2	0	0	994.8	NA	0.0000		9999	330	0	0	0
2017/11/10 06:10:00	BASE	2.98	315	3.60	318	-2.2	100	-2.2	0	0	994.8	NA	0.0000		9999	300	0	0	0
2017/11/10 06:11:00	BASE	3.41	319	3.91	319	-2.1	100	-2.1	0	0	994.8	NA	0.0000		9999	300	0	0	0
2017/11/10 06:12:00	BASE	3.65	317	3.91	319	-2.1	100	-2.1	0	0	994.8	NA	0.0000		9999	330	0	0	0
2017/11/10 06:13:00	BASE	3.36	312	3.91	319	-2.2	100	-2.2	0	0	994.9	NA	0.0000		9999	330	0	0	0
2017/11/10 06:14:00	BASE	3.12	305	3.91	319	-2.2	100	-2.2	0	0	994.9	NA	0.0000		9999	360	0	0	0
2017/11/10 06:15:00	BASE	3.04	303	3.91	319	-2.2	100	-2.2	0	0	994.9	NA	0.0000		9999	360	0	0	0
2017/11/10 06:16:00	BASE	3.00	307	3.91	319	-2.2	100	-2.2	0	0	994.9	NA	0.0000		9999	300	0	0	0
2017/11/10 06:17:00	BASE	3.07	316	3.91	319	-2.2	100	-2.2	0	0	994.9	NA	0.0000		9999	300	0	0	0
2017/11/10 06:18:00	BASE	3.15	317	3.91	319	-2.1	100	-2.1	0	0	994.9	NA	0.0000		9999	330	0	0	0
2017/11/10 06:19:00	BASE	3.08	315	3.91	319	-2.1	100	-2.1	0	0	994.9	NA	0.0000		9999	330	0	0	0
2017/11/10 06:20:00	BASE	2.96	317	3.91	319	-2.1	100	-2.1	0	0	994.9	NA	0.0000		9999	330	0	0	0
2017/11/10 06:21:00	BASE	2.78	315	3.81	323	-2.1	100	-2.1	0	0	994.9	NA	0.0000		9999	330	0	0	0
2017/11/10 06:22:00	BASE	2.79	313	3.55	303	-2.2	100	-2.2	0	0	994.9	NA	0.0000		9999	260	0	0	0
2017/11/10 06:23:00	BASE	2.96	310	3.50	315	-2.2	100	-2.2	0	0	994.9	NA	0.0000		9999	260	0	0	0
2017/11/10 06:24:00	BASE	2.86	310	3.50	315	-2.2	100	-2.2	0	0	994.9	NA	0.0000		9999	260	0	0	0
2017/11/10 06:25:00	BASE	2.51	312	3.50	315	-2.2	100	-2.2	0	0	994.9	NA	0.0000		9999	300	0	0	0
2017/11/10 06:26:00	BASE	2.33	316	3.50	315	-2.1	100	-2.1	0	0	994.8	NA	0.0000		9999	230	0	0	0
2017/11/10 06:27:00	BASE	2.29	319	3.50	315	-2.1	100	-2.1	0	0	994.8	NA	0.0000		9999	230	0	0	0
2017/11/10 06:28:00	BASE	2.17	324	3.24	312	-2.1	100	-2.1	0	0	994.8	NA	0.0000		9999	230	0	0	0
2017/11/10 06:29:00	BASE	2.04	328	3.24	312	-2.1	100	-2.1	0	0	994.8	NA	0.0000		9000	200	0	0	0
2017/11/10 06:30:00	BASE	2.28	328	3.76	335	-2.1	100	-2.1	0	0	994.8	NA	0.0000		9999	230	0	0	0
2017/11/10 06:31:00	BASE	2.78	321	3.76	304	-2.0	100	-2.0	0	0	994.8	NA	0.0000		9999	230	0	0	0
2017/11/10 06:32:00	BASE	2.79	310	3.76	304	-2.0	100	-2.0	0	0	994.8	NA	0.0000		9999	230	0	0	0
2017/11/10 06:33:00	BASE	2.62	312	3.76	304	-2.0	100	-2.0	0	1	994.8	NA	0.0000		9999	230	1150	0	0
2017/11/10 06:34:00	BASE	2.60	317	3.76	304	-2.0	100	-2.0	0	0	994.8	NA	0.0000		9999	260	0	0	0
2017/11/10 06:35:00	BASE	2.67	314	3.76	304	-2.0	100	-2.0	0	0	994.8	NA	0.0000		9999	230	0	0	0
2017/11/10 06:36:00	BASE	2.64	313	3.76	304	-2.0	100	-2.0	0	1	994.7	NA	0.0000		9999	260	0	0	0
2017/11/10 06:37:00	BASE	2.84	314	3.96	306	-2.0	100	-2.0	0	1	994.7	NA	0.0000		9999	230	0	0	0
2017/11/10 06:38:00	BASE	3.61	305	4.48	299	-2.0	100	-2.0	0	1	994.7	NA	0.0000		9999	200	0	0	0
2017/11/10 06:39:00	BASE	4.28	296	4.89	295	-2.0	100	-2.0	0	1	994.7	NA	0.0000		9999	230	0	0	0
2017/11/10 06:40:00	BASE	4.44	296	5.04	293	-2.0	100	-2.0	0	1	994.7	NA	0.0000		9999	230	0	0	0
2017/11/10 06:41:00	BASE	4.25	297	5.04	293	-2.0	100	-2.0	0	1	994.7	NA	0.0000		9999	330	0	0	0
2017/11/10 06:42:00	BASE	4.33	296	5.04	293	-2.1	100	-2.1	0	1	994.7	NA	0.0000		9999	300	0	0	0
2017/11/10 06:43:00	BASE	4.32	295	5.04	293	-2.1	100	-2.1	0	1	994.7	NA	0.0000		9999	330	0	0	0
2017/11/10 06:44:00	BASE	4.13	295	5.04	293	-2.1	100	-2.1	0	1	994.7	NA	0.0000		9999	230	0	0	0
2017/11/10 06:45:00	BASE	4.01	296	5.04	293	-2.1	100	-2.1	0	1	994.7	NA	0.0000		9999	230	0	0	0
2017/11/10 06:46:00	BASE	3.87	299	5.04	293	-2.1	100	-2.1	0	1	994.7	NA	0.0000		9999	300	0	0	0
2017/11/10 06:47:00	BASE	3.67	298	5.04	293	-2.1	100	-2.1	0	1	994.7	NA	0.0000		9999	260	0	0	0
2017/11/10 06:48:00	BASE	3.59	295	5.04	293	-2.1	100	-2.1	0	1	994.7	NA	0.0000		9999	200	0	0	0
2017/11/10 06:49:00	BASE	3.85	295	5.04	293	-2.0	100	-2.0	0	1	994.7	NA	0.0000		9999	200	1020	0	0
2017/11/10 06:50:00	BASE	4.14	295	4.78	295	-2.1	100	-2.1	0	1	994.7	NA	0.0000		9999	260	0	0	0
2017/11/10 06:51:00	BASE	4.18	293	4.78	295	-2.1	100	-2.1	1	2	994.7	NA	0.0000		9999	330	1180	0	0
2017/11/10 06:52:00	BASE	4.41	293	5.09	289	-2.1	100	-2.1	1	2	994.7	NA	0.0000		9999	260	1210	0	0
2017/11/10 06:53:00	BASE	4.73	295	5.09	294	-2.1	100	-2.1	0	2	994.7	NA	0.0000		9999	330	0	0	0
2017/11/10 06:54:00	BASE	4.75	295	5.14	291	-2.2	100	-2.2	0	2	994.7	NA	0.0000		9999	330	0	0	0
2017/11/10 06:55:00	BASE	4.59	292	5.14	291	-2.2	100	-2.2	1	2	994.7	NA	0.0000		9999	260	0	0	0
2017/11/10 06:56:00	BASE	4.62	289	5.14	288	-2.2	100	-2.2	1	2	994.7	NA	0.0000		9999	260	0	0	0
2017/11/10 06:57:00	BASE	4.97	288	5.40	288	-2.2	100	-2.2	1	2	994.7	NA	0.0000		9999	360	0	0	0
2017/11/10 06:58:00	BASE	4.97	288	5.40	288	-2.2	100	-2.2	1	2	994.7	NA	0.0000		9999	330	0	0	0
2017/11/10 06:59:00	BASE	4.78	288	5.40	288	-2.2	100	-2.2	1	2	994.7	NA	0.0000		9999	300	0	0	0
2017/11/10 07:00:00	BASE	4.81	287	5.40	288	-2.2	100	-2.2	1	2	994.7	NA	0.0000		9999	300	0	0	0
2017/11/10 07:01:00	BASE	4.63	289	5.40	288	-2.2	100	-2.2	1	2	994.7	NA	0.0000		9999	260	0	0	0
2017/11/10 07:02:00	BASE	4.59	292	5.40	288	-2.1	100	-2.1	1	2	994.7	NA	0.0000		9999	230	0	0	0
2017/11/10 07:03:00	BASE	5.12	290	5.61	288	-2.1	100	-2.1	1	3	994.7	NA	0.0000		9999	330	0	0	0
2017/11/10 07:04:00	BASE	5.09	289	5.61	288	-2.1	100	-2.1	1	3	994.7	NA	0.0000		9999	260	0	0	0
2017/11/10 07:05:00	BASE	5.10	289	5.86	285	-2.1	100	-2.1	1	3	994.7	NA	0.0000		9999	300	0	0	0
2017/11/10 07:06:00	BASE	5.22	288	5.86	285	-2.2	100	-2.2	1	3	994.7	NA	0.0000		9999	330	0	0	0
2017/11/10 07:07:00	BASE	4.98	289	5.86	285	-2.2	100	-2.2	1	3	994.7	NA	0.0000		9999	360	0	0	0
2017/11/10 07:08:00	BASE	4.50	288	5.86	285	-2.2	100	-2.2	1	3	994.7	NA	0.0000		9999	330	0	0	0
2017/11/10 07:09:00	BASE	4.25	287	5.86	285	-2.2	100	-2.2	1	3	994.7	NA	0.0000		9999	330	0	0	0
2017/11/10 07:10:00	BASE	4.47	287	5.86	285	-2.2	100	-2.2	1	3	994.7	NA	0.0000		9999	330	0	0	0
2017/11/10 07:11:00	BASE	4.58	289	5.86	285	-2.2	100	-2.2	1	3	994.7	NA	0.0000		9999	330	0	0	0
2017/11/10 07:12:00	BASE	4.66	290	5.86	285	-2.2	100	-2.2	1	3	994.7	NA	0.0000		9999	330	0	0	0
2017/11/10 07:13:00	BASE	4.59	288	5.86	285	-2.2	100	-2.2	1	3	994.7	NA	0.0000		9999	330	0	0	0
2017/11/10 07:14:00	BASE	4.45	286	5.86	285	-2.2	100	-2.2	1	4	994.7	NA	0.0000		9999	260	950	0	0
2017/11/10 07:15:00	BASE	4.16	285	5.35	289	-2.2	100	-2.2	1	4	994.7	NA	0.0000		9999	200	0	0	0
2017/11/10 07:16:00	BASE	3.85	285	5.35	289	-2.2	100	-2.2	2	5	994.7	NA	0.0000		9999	160	0	0	0
2017/11/10 07:17:00	BASE	3.95	285	4.99	291	-2.2	100	-2.2	2	5	994.7	NA	0.0000		9999	260	0	0	0
2017/11/10 07:18:00	BASE	4.34	283	5.14	284	-2.2	100	-2.2	2	5	994.7	NA	0.0000		9999	300	0	0	0
2017/11/10 07:19:00	BASE	4.30	287	5.14	284	-2.2	100	-2.2	2	6	994.7	NA	0.0000		9999	260	0	0	0
2017/11/10 07:20:00	BASE	4.48	286	5.35	284	-2.2	100	-2.2	2	6	994.7	NA	0.0000		9999	300	0	0	0
2017/11/10 07:21:00	BASE	4.53	277	5.35	284	-2.2	100	-2.2	2	6	994.7	NA	0.0000		9999	300	0	0	0
2017/11/10 07:22:00	BASE	4.40	272	5.35	284	-2.2	100	-2.2	2	7	994.7	NA	0.0000		9999	360	0	0	0
2017/11/10 07:23:00	BASE	4.34	270	5.35	284	-2.3	100	-2.3	3	7	994.7	NA	0.0000		9999	360	0	0	0
2017/11/10 07:24:00	BASE	3.91	267	5.35	284	-2.3	100	-2.3	3	7	994.6	NA	0.0000		8000	330	0	0	0
2017/11/10 07:25:00	BASE	3.68	268	5.35	284	-2.3	100	-2.3	3	7	994.6	NA	0.0000		8000	300	0	0	0
2017/11/10 07:26:00	BASE	3.56	275	5.35	284	-2.3	100	-2.3	3	8	994.6	NA	0.0000		9000	260	0	0	0
2017/11/10 07:27:00	BASE	3.66	274	5.35	284	-2.3	100	-2.3	3	8	994.6	NA	0.0000		9999	260	0	0	0
2017/11/10 07:28:00	BASE	3.69	275	5.35	284	-2.3	100	-2.3	3	8	994.6	NA	0.0000		9999	300	0	0	0
2017/11/10 07:29:00	BASE	3.68	275	5.35	284	-2.3	100	-2.3	3	8	994.6	NA	0.0000		9999	330	0	0	0
2017/11/10 07:30:00	BASE	3.67	273	5.14	272	-2.3	100	-2.3	3	9	994.6	NA	0.0000		8000	330	0	0	0
2017/11/10 07:31:00	BASE	3.65	276	5.14	272	-2.3	100	-2.3	3	9	994.6	NA	0.0000	BR	7000	300	0	0	0
2017/11/10 07:32:00	BASE	3.54	276	4.53	268	-2.3	100	-2.3	4	10	994.6	NA	0.0000	BR	7000	300	0	0	0
2017/11/10 07:33:00	BASE	3.28	272	4.32	268	-2.3	100	-2.3	4	10	994.6	NA	0.0000	BR	8000	260	0	0	0
2017/11/10 07:34:00	BASE	3.20	272	4.17	276	-2.3	100	-2.3	3	9	994.6	NA	0.0000	BR	5000	200	0	0	0
2017/11/10 07:35:00	BASE	3.36	265	4.84	245	-2.3	100	-2.3	3	8	994.6	NA	0.0000	BR	5000	230	0	0	0
2017/11/10 07:36:00	BASE	3.86	249	4.84	245	-2.3	100	-2.3	3	8	994.6	NA	0.0000	BR	4100	200	0	0	0
2017/11/10 07:37:00	BASE	4.36	243	5.71	243	-2.3	100	-2.3	3	9	994.5	NA	0.0000	BR	2500	0	0	0	1150
2017/11/10 07:38:00	BASE	4.56	245	5.71	243	-2.4	100	-2.4	3	9	994.6	NA	0.0000	UP BR	2700	0	0	0	1180
2017/11/10 07:39:00	BASE	4.36	246	5.71	243	-2.4	100	-2.4	3	10	994.6	NA	0.0000	UP BR	3500	230	0	0	0
2017/11/10 07:40:00	BASE	4.12	246	5.71	243	-2.5	100	-2.5	3	10	994.6	NA	0.0000	UP BR	5000	260	0	0	0
2017/11/10 07:41:00	BASE	3.76	247	5.71	243	-2.5	100	-2.5	3	10	994.6	NA	0.0000	UP BR	5000	200	0	0	0
2017/11/10 07:42:00	BASE	3.51	250	5.71	243	-2.6	100	-2.6	4	11	994.6	NA	0.0000	UP BR	6000	200	890	0	0
2017/11/10 07:43:00	BASE	3.77	250	5.71	243	-2.5	100	-2.5	4	11	994.6	NA	0.0000	UP BR	6000	260	0	0	0
2017/11/10 07:44:00	BASE	3.99	248	5.71	243	-2.5	100	-2.5	3	11	994.6	NA	0.0000	UP BR	8000	330	0	0	0
2017/11/10 07:45:00	BASE	3.87	249	5.71	243	-2.5	100	-2.5	3	11	994.6	NA	0.0000	UP BR	8000	300	0	0	0
2017/11/10 07:46:00	BASE	4.06	248	5.71	235	-2.6	100	-2.6	4	12	994.6	NA	0.0000	UP BR	7000	330	0	0	0
2017/11/10 07:47:00	BASE	4.47	247	5.71	235	-2.6	100	-2.6	4	12	994.6	NA	0.0000	UP BR	7000	330	0	0	0
2017/11/10 07:48:00	BASE	4.21	248	5.71	235	-2.6	100	-2.6	4	13	994.5	NA	0.0000	UP BR	8000	330	0	0	0
2017/11/10 07:49:00	BASE	3.93	248	5.71	235	-2.7	100	-2.7	5	14	994.5	NA	0.0000	BR	8000	330	1280	0	0
2017/11/10 07:50:00	BASE	3.60	248	5.71	235	-2.7	100	-2.7	5	15	994.6	NA	0.0000	BR	9000	330	0	0	0
2017/11/10 07:51:00	BASE	3.39	247	5.71	235	-2.7	100	-2.7	5	15	994.6	NA	0.0000	BR	8000	330	0	0	0
2017/11/10 07:52:00	BASE	3.44	247	5.71	235	-2.7	100	-2.7	5	15	994.6	NA	0.0000	BR	8000	330	0	0	0
2017/11/10 07:53:00	BASE	3.20	248	5.71	235	-2.7	100	-2.7	5	16	994.6	NA	0.0000	BR	8000	330	1150	0	0
2017/11/10 07:54:00	BASE	3.26	250	5.71	235	-2.7	100	-2.7	5	16	994.6	NA	0.0000	BR	8000	300	0	0	0
2017/11/10 07:55:00	BASE	3.42	244	5.71	235	-2.7	100	-2.7	5	16	994.6	NA	0.0000	BR	7000	300	0	0	0
2017/11/10 07:56:00	BASE	3.04	244	5.56	247	-2.7	100	-2.7	5	16	994.6	NA	0.0000	BR	7000	230	0	0	0
2017/11/10 07:57:00	BASE	2.69	248	4.68	243	-2.7	100	-2.7	5	16	994.5	NA	0.0000	BR	6000	260	0	0	0
2017/11/10 07:58:00	BASE	3.06	247	4.68	243	-2.7	100	-2.7	5	17	994.5	NA	0.0000	BR	6000	260	0	0	0
2017/11/10 07:59:00	BASE	3.27	251	4.58	237	-2.6	100	-2.6	6	17	994.5	NA	0.0000	BR	7000	200	0	0	0
2017/11/10 08:00:00	BASE	3.11	265	4.58	237	-2.6	100	-2.6	6	18	994.5	NA	0.0000	BR	7000	160	0	0	0
2017/11/10 08:01:00	BASE	3.68	272	5.09	268	-2.6	100	-2.6	7	21	994.5	NA	0.0000	BR	7000	200	0	0	0
2017/11/10 08:02:00	BASE	4.10	267	5.09	268	-2.6	100	-2.6	8	22	994.5	NA	0.0000	BR	7000	230	0	0	0
2017/11/10 08:03:00	BASE	4.18	260	5.09	268	-2.6	100	-2.6	8	22	994.5	NA	0.0000	BR	9000	260	0	0	0
2017/11/10 08:04:00	BASE	4.28	260	5.09	268	-2.6	100	-2.6	8	22	994.5	NA	0.0000	BR	9000	330	0	0	0
2017/11/10 08:05:00	BASE	4.20	260	5.09	268	-2.6	100	-2.6	8	23	994.5	NA	0.0000	BR	9000	260	0	0	0
2017/11/10 08:06:00	BASE	4.20	253	5.09	268	-2.6	100	-2.6	8	22	994.5	NA	0.0000	BR	9000	230	0	0	0
2017/11/10 08:07:00	BASE	4.19	245	5.25	235	-2.7	100	-2.7	8	22	994.5	NA	0.0000	BR	9999	300	0	0	0
2017/11/10 08:08:00	BASE	4.92	240	6.07	235	-2.7	100	-2.7	9	24	994.5	NA	0.0000	BR	9000	300	0	0	0
2017/11/10 08:09:00	BASE	5.60	238	6.07	235	-2.8	100	-2.8	10	26	994.5	NA	0.0000	BR	8000	330	0	0	0
2017/11/10 08:10:00	BASE	5.44	238	6.07	235	-2.8	100	-2.8	11	28	994.5	NA	0.0000	BR	9000	330	0	0	0
2017/11/10 08:11:00	BASE	5.21	237	6.07	235	-2.9	100	-2.9	11	29	994.5	NA	0.0000	BR	8000	330	0	0	0
2017/11/10 08:12:00	BASE	4.87	239	6.07	235	-2.9	100	-2.9	11	29	994.5	NA	0.0000	BR	6000	330	0	0	0
2017/11/10 08:13:00	BASE	4.79	240	6.07	235	-3.0	100	-3.0	11	29	994.5	NA	0.0000	BR	9000	330	0	0	0
2017/11/10 08:14:00	BASE	4.88	240	6.07	235	-3.0	100	-3.0	10	27	994.5	NA	0.0000	BR	9000	330	0	0	0
2017/11/10 08:15:00	BASE	4.65	240	6.07	235	-3.0	100	-3.0	9	26	994.5	NA	0.0000	BR	9000	330	0	0	0
2017/11/10 08:16:00	BASE	4.38	239	6.07	235	-2.9	100	-2.9	10	27	994.5	NA	0.0000	BR	9000	330	0	0	0
2017/11/10 08:17:00	BASE	4.54	240	6.07	235	-2.9	100	-2.9	11	29	994.5	NA	0.0000	BR	9999	330	0	0	0
2017/11/10 08:18:00	BASE	4.70	239	5.92	238	-2.9	100	-2.9	11	30	994.5	NA	0.0000	BR	9000	330	0	0	0
2017/11/10 08:19:00	BASE	4.53	235	5.92	238	-2.9	100	-2.9	12	32	994.4	NA	0.0000	BR	8000	330	0	0	0
2017/11/10 08:20:00	BASE	4.38	233	5.92	238	-2.9	100	-2.9	12	33	994.4	NA	0.0000	BR	7000	330	0	0	0
2017/11/10 08:21:00	BASE	4.39	232	5.50	242	-3.0	100	-3.0	12	33	994.3	NA	0.0000	BR	7000	330	0	0	0
2017/11/10 08:22:00	BASE	4.50	233	5.30	232	-3.0	100	-3.0	12	34	994.3	NA	0.0000	BR	7000	330	0	0	0
2017/11/10 08:23:00	BASE	4.54	235	5.30	232	-3.0	100	-3.0	13	35	994.4	NA	0.0000	BR	9000	330	0	0	0
2017/11/10 08:24:00	BASE	4.36	237	5.30	232	-3.0	100	-3.0	13	35	994.4	NA	0.0000	BR	9999	360	0	0	0
2017/11/10 08:25:00	BASE	4.13	240	5.30	232	-3.0	100	-3.0	13	35	994.4	NA	0.0000	BR	9999	360	0	0	0
2017/11/10 08:26:00	BASE	3.86	242	5.30	232	-3.0	100	-3.0	13	37	994.4	NA	0.0000	BR	9999	330	0	0	0
2017/11/10 08:27:00	BASE	3.93	242	5.30	232	-3.0	100	-3.0	14	38	994.3	NA	0.0000	BR	9999	330	1210	0	0
2017/11/10 08:28:00	BASE	4.23	241	5.30	232	-3.0	100	-3.0	14	39	994.3	NA	0.0000	BR	9999	330	0	0	0
2017/11/10 08:29:00	BASE	4.14	241	5.30	232	-3.0	100	-3.0	16	42	994.3	NA	0.0000	BR	9999	330	0	0	0
2017/11/10 08:30:00	BASE	4.15	241	5.04	227	-3.0	100	-3.0	17	45	994.3	NA	0.0000	BR	8000	300	0	0	0
2017/11/10 08:31:00	BASE	4.41	236	4.99	237	-3.0	100	-3.0	18	46	994.3	NA	0.0000		9000	300	0	0	0
2017/11/10 08:32:00	BASE	4.18	232	4.99	237	-3.0	100	-3.0	18	47	994.2	NA	0.0000		9999	360	0	0	0
2017/11/10 08:33:00	BASE	3.65	233	4.99	237	-3.0	100	-3.0	16	43	994.2	NA	0.0000		9999	390	0	0	0
2017/11/10 08:34:00	BASE	3.67	235	4.99	237	-3.0	100	-3.0	13	38	994.2	NA	0.0000		9999	360	0	0	0
2017/11/10 08:35:00	BASE	4.09	235	4.99	237	-3.0	100	-3.0	12	36	994.2	NA	0.0000		9999	360	0	0	0
2017/11/10 08:36:00	BASE	4.21	233	4.99	237	-3.0	100	-3.0	15	41	994.2	NA	0.0000		8000	330	0	0	0
2017/11/10 08:37:00	BASE	4.21	234	4.99	237	-3.0	100	-3.0	16	45	994.2	NA	0.0000		9999	360	0	0	0
2017/11/10 08:38:00	BASE	4.42	234	4.99	237	-3.0	100	-3.0	17	46	994.2	NA	0.0000		9999	360	1080	0	0
2017/11/10 08:39:00	BASE	4.36	231	4.99	237	-3.0	100	-3.0	16	46	994.2	NA	0.0000		9999	360	0	0	0
2017/11/10 08:40:00	BASE	4.12	231	4.94	233	-3.0	100	-3.0	17	47	994.3	NA	0.0000		9999	360	0	0	0
2017/11/10 08:41:00	BASE	4.02	233	4.94	233	-3.0	100	-3.0	18	50	994.3	NA	0.0000		9999	360	0	0	0
2017/11/10 08:42:00	BASE	3.96	232	4.94	233	-3.0	100	-3.0	19	52	994.4	NA	0.0000		9999	360	0	0	0
2017/11/10 08:43:00	BASE	4.09	232	4.94	233	-3.1	100	-3.1	19	51	994.4	NA	0.0000		9999	360	1180	0	0
2017/11/10 08:44:00	BASE	4.26	230	4.94	233	-3.1	100	-3.1	18	49	994.4	NA	0.0000		9999	360	0	0	0
2017/11/10 08:45:00	BASE	4.13	230	4.94	233	-3.1	100	-3.1	18	49	994.4	NA	0.0000		9999	360	0	0	0
2017/11/10 08:46:00	BASE	4.18	230	4.94	233	-3.1	100	-3.1	19	51	994.4	NA	0.0000		9999	360	0	0	0
2017/11/10 08:47:00	BASE	4.23	231	4.78	230	-3.1	100	-3.1	20	54	994.4	NA	0.0000		9999	390	0	0	0
2017/11/10 08:48:00	BASE	4.06	231	4.73	232	-3.1	100	-3.1	22	57	994.4	NA	0.0000		9999	390	0	0	0
2017/11/10 08:49:00	BASE	3.86	228	4.73	232	-3.2	100	-3.2	25	63	994.4	NA	0.0000		9999	430	0	0	0
2017/11/10 08:50:00	BASE	3.70	233	4.73	232	-3.2	100	-3.2	27	68	994.4	NA	0.0000		9999	430	0	0	0
2017/11/10 08:51:00	BASE	3.45	236	4.73	232	-3.2	100	-3.2	28	70	994.4	NA	0.0000		9999	460	0	0	0
2017/11/10 08:52:00	BASE	3.23	230	4.73	232	-3.2	100	-3.2	27	69	994.4	NA	0.0000		9999	430	0	0	0
2017/11/10 08:53:00	BASE	3.06	231	4.73	232	-3.2	100	-3.2	25	66	994.3	NA	0.0000		9999	430	0	0	0
2017/11/10 08:54:00	BASE	2.87	236	4.73	232	-3.2	100	-3.2	24	63	994.3	NA	0.0000		9999	430	0	0	0
2017/11/10 08:55:00	BASE	2.68	233	4.73	232	-3.2	100	-3.2	24	63	994.2	NA	0.0000		9999	430	0	0	0
2017/11/10 08:56:00	BASE	2.46	232	4.68	227	-3.2	100	-3.2	24	63	994.2	NA	0.0000		9999	390	1380	0	0
2017/11/10 08:57:00	BASE	2.45	235	4.48	233	-3.1	100	-3.1	22	59	994.2	NA	0.0000		9999	390	0	0	0
2017/11/10 08:58:00	BASE	2.28	233	4.22	233	-3.1	100	-3.1	19	54	994.2	NA	0.0000		9999	390	0	0	0
2017/11/10 08:59:00	BASE	2.50	229	4.01	239	-3.1	100	-3.1	17	49	994.2	NA	0.0000		9999	430	0	0	0
2017/11/10 09:00:00	BASE	3.08	225	3.65	241	-3.1	100	-3.1	17	48	994.2	NA	0.0000		9999	430	0	0	0
2017/11/10 09:01:00	BASE	3.21	224	3.55	225	-3.1	100	-3.1	17	48	994.2	NA	0.0000		9999	430	0	0	0
2017/11/10 09:02:00	BASE	3.06	227	3.55	225	-3.1	100	-3.1	17	49	994.2	NA	0.0000		9999	390	0	0	0
2017/11/10 09:03:00	BASE	2.73	226	3.55	225	-3.1	100	-3.1	17	50	994.2	NA	0.0000		9999	430	0	0	0
2017/11/10 09:04:00	BASE	2.25	225	3.55	225	-3.1	100	-3.1	18	52	994.2	NA	0.0000		9999	430	1440	0	0
2017/11/10 09:05:00	BASE	2.11	227	3.55	225	-3.1	100	-3.1	19	55	994.2	NA	0.0000		9999	430	0	0	0
2017/11/10 09:06:00	BASE	2.35	224	3.55	225	-3.1	100	-3.1	21	59	994.2	NA	0.0000		9999	460	0	0	0
2017/11/10 09:07:00	BASE	2.29	218	3.55	225	-3.1	100	-3.1	23	63	994.1	NA	0.0000		9999	430	0	0	0
2017/11/10 09:08:00	BASE	2.10	216	3.55	225	-3.1	100	-3.1	24	66	994.1	NA	0.0000		9999	460	0	0	0
2017/11/10 09:09:00	BASE	2.12	221	3.55	225	-3.1	100	-3.1	25	68	994.1	NA	0.0000		9999	390	0	0	0
2017/11/10 09:10:00	BASE	2.23	228	3.40	227	-3.1	100	-3.1	27	72	994.1	NA	0.0000		9999	430	0	0	0
2017/11/10 09:11:00	BASE	2.23	229	3.14	230	-3.1	100	-3.1	29	76	994.2	NA	0.0000		9999	430	0	0	0
2017/11/10 09:12:00	BASE	1.99	229	2.83	222	-3.1	100	-3.1	30	79	994.2	NA	0.0000		9999	430	0	0	0
2017/11/10 09:13:00	BASE	1.73	231	2.78	230	-3.1	100	-3.1	31	81	994.2	NA	0.0000		9999	460	0	0	0
2017/11/10 09:14:00	BASE	1.67	225	2.78	230	-3.0	100	-3.0	32	84	994.2	NA	0.0000		9999	460	0	0	0
2017/11/10 09:15:00	BASE	1.90	214	2.78	230	-3.0	100	-3.0	34	89	994.2	NA	0.0000		9999	590	0	0	0
2017/11/10 09:16:00	BASE	2.08	221	2.78	230	-3.0	100	-3.0	37	95	994.2	NA	0.0000		9999	560	1670	0	0
2017/11/10 09:17:00	BASE	2.03	240	2.78	230	-3.0	100	-3.0	39	99	994.2	NA	0.0000		9999	1610	0	0	0
2017/11/10 09:18:00	BASE	1.79	244	2.78	230	-3.0	100	-3.0	41	103	994.2	NA	0.0000		9999	590	0	0	0
2017/11/10 09:19:00	BASE	1.39	234	2.78	230	-3.0	100	-3.0	41	103	994.2	NA	0.0000		9999	850	0	0	0
2017/11/10 09:20:00	BASE	1.30	229	2.57	210	-3.0	100	-3.0	40	102	994.2	NA	0.0000		9999	690	1710	0	0
2017/11/10 09:21:00	BASE	1.50	226	2.57	210	-3.0	100	-3.0	39	100	994.2	NA	0.0000		9999	590	1740	0	0
2017/11/10 09:22:00	BASE	1.61	221	2.57	210	-3.0	100	-3.0	39	99	994.2	NA	0.0000		9999	890	1770	0	0
2017/11/10 09:23:00	BASE	1.45	223	2.57	210	-3.0	100	-3.0	39	101	994.2	NA	0.0000		9999	750	1640	0	0
2017/11/10 09:24:00	BASE	1.22	225	2.57	210	-3.0	100	-3.0	41	104	994.2	NA	0.0000		9999	820	1350	0	0
2017/11/10 09:25:00	BASE	0.89	229	2.26	246	-3.0	100	-3.0	42	108	994.2	NA	0.0000		9999	790	1570	0	0
2017/11/10 09:26:00	BASE	0.74	230	2.26	246	-3.0	100	-3.0	43	110	994.2	NA	0.0000		9999	690	1740	0	0
2017/11/10 09:27:00	BASE	0.58	237	1.95	212	-3.0	100	-3.0	43	111	994.2	NA	0.0000		9999	660	0	0	0
2017/11/10 09:28:00	BASE	0.15	247	1.95	212	-3.0	100	-3.0	44	112	994.2	NA	0.0000		9999	590	0	0	0
2017/11/10 09:29:00	BASE	0.00	246	1.95	212	-3.0	100	-3.0	44	114	994.2	NA	0.0000		9999	520	0	0	0
2017/11/10 09:30:00	BASE	0.00	252	1.85	220	-3.0	100	-3.0	44	114	994.2	NA	0.0000		9999	660	0	0	0
2017/11/10 09:31:00	BASE	0.00	254	1.85	220	-3.0	100	-3.0	43	113	994.2	NA	0.0000		9999	660	0	0	0
2017/11/10 09:32:00	BASE	0.00	253	1.49	224	-3.0	100	-3.0	42	111	994.2	NA	0.0000		9999	490	0	0	0
2017/11/10 09:33:00	BASE	0.00	260	1.39	215	-3.0	100	-3.0	43	112	994.2	NA	0.0000		9999	460	1350	0	0
2017/11/10 09:34:00	BASE	0.14	266	1.39	215	-3.0	100	-3.0	44	114	994.1	NA	0.0000		9999	460	0	0	0
2017/11/10 09:35:00	BASE	0.31	275	1.39	215	-2.9	100	-2.9	45	116	994.1	NA	0.0000		9999	460	0	0	0
2017/11/10 09:36:00	BASE	0.31	291	1.29	245	-3.0	100	-3.0	44	114	994.2	NA	0.0000		9999	460	0	0	0
2017/11/10 09:37:00	BASE	0.57	297	1.44	282	-3.0	100	-3.0	43	112	994.2	NA	0.0000		9999	460	0	0	0
2017/11/10 09:38:00	BASE	0.76	289	1.44	282	-2.9	100	-3.0	44	115	994.2	NA	0.0000		9999	490	0	0	0
2017/11/10 09:39:00	BASE	0.87	289	1.44	282	-3.0	100	-3.0	46	119	994.1	NA	0.0000		9999	460	1770	0	0
2017/11/10 09:40:00	BASE	0.63	300	1.44	282	-3.0	100	-3.0	47	123	994.1	NA	0.0000		9999	750	0	0	0
2017/11/10 09:41:00	BASE	0.18	313	1.44	282	-3.0	100	-3.0	48	125	994.1	NA	0.0000		9999	590	0	0	0
2017/11/10 09:42:00	BASE	0.54	318	1.44	282	-3.0	100	-3.0	49	126	994.2	NA	0.0000		9999	1210	0	0	0
2017/11/10 09:43:00	BASE	0.86	314	1.44	282	-3.0	100	-3.0	48	126	994.2	NA	0.0000		9999	1180	0	0	0
2017/11/10 09:44:00	BASE	0.92	317	1.44	317	-2.9	100	-2.9	49	127	994.2	NA	0.0000		9999	950	1870	0	0
2017/11/10 09:45:00	BASE	0.80	318	1.44	317	-2.9	100	-2.9	50	130	994.2	NA	0.0000		9999	720	0	0	0
2017/11/10 09:46:00	BASE	0.30	307	1.44	317	-2.9	100	-2.9	52	135	994.2	NA	0.0000		9999	690	0	0	0
2017/11/10 09:47:00	BASE	0.00	309	1.44	317	-2.9	100	-2.9	55	141	994.2	NA	0.0000		9999	1310	0	0	0
2017/11/10 09:48:00	BASE	0.30	314	1.44	317	-2.8	100	-2.8	57	146	994.2	NA	0.0000		9999	1250	0	0	0
2017/11/10 09:49:00	BASE	0.69	311	1.44	317	-2.8	100	-2.8	58	150	994.2	NA	0.0000		9999	1280	0	0	0
2017/11/10 09:50:00	BASE	0.40	316	1.44	317	-2.8	100	-2.8	59	153	994.2	NA	0.0000		9999	1080	1670	0	0
2017/11/10 09:51:00	BASE	0.00	322	1.44	317	-2.8	100	-2.8	61	158	994.2	NA	0.0000		9999	1080	0	0	0
2017/11/10 09:52:00	BASE	0.18	327	1.44	317	-2.8	100	-2.8	67	169	994.2	NA	0.0000		9999	1080	0	0	0
2017/11/10 09:53:00	BASE	0.89	337	1.59	335	-2.8	100	-2.8	73	182	994.2	NA	0.0000		9999	1080	0	0	0
2017/11/10 09:54:00	BASE	1.38	340	1.59	335	-2.8	100	-2.8	80	197	994.2	NA	0.0000		9999	1800	0	0	0
2017/11/10 09:55:00	BASE	1.48	336	1.75	332	-2.8	100	-2.8	86	209	994.2	NA	0.0000		9999	1150	1970	0	0
2017/11/10 09:56:00	BASE	1.55	332	1.75	332	-2.8	100	-2.8	92	221	994.2	NA	0.0000		9999	1380	2070	0	0
2017/11/10 09:57:00	BASE	1.48	334	1.75	332	-2.8	100	-2.8	98	233	994.2	NA	0.0000		9999	1740	2230	0	0
2017/11/10 09:58:00	BASE	1.51	341	1.75	332	-2.8	100	-2.8	100	239	994.2	NA	0.0000		9999	1610	2230	0	0
2017/11/10 09:59:00	BASE	1.44	352	1.75	332	-2.9	100	-2.9	101	242	994.2	NA	0.0000		9999	1480	2200	0	0
2017/11/10 10:00:00	BASE	1.12	357	1.75	332	-2.9	100	-2.9	103	248	994.2	NA	0.0000		9999	1480	0	0	0
2017/11/10 10:01:00	BASE	1.07	349	1.75	332	-2.9	100	-2.9	106	253	994.2	NA	0.0000		9999	1480	0	0	0
2017/11/10 10:02:00	BASE	0.99	346	1.75	332	-2.9	100	-2.9	110	261	994.1	NA	0.0000		9999	1710	2330	0	0
2017/11/10 10:03:00	BASE	1.11	355	1.75	332	-2.9	100	-2.9	116	273	994.1	NA	0.0000		9999	1640	0	0	0
2017/11/10 10:04:00	BASE	1.41	4	1.75	332	-2.9	100	-2.9	125	290	994.1	NA	0.0000		9999	1480	2330	0	0
2017/11/10 10:05:00	BASE	1.37	10	1.70	347	-2.8	100	-2.8	134	308	994.1	NA	0.0000		9999	1510	2030	0	0
2017/11/10 10:06:00	BASE	1.39	16	1.70	347	-2.8	100	-2.8	145	330	994.1	NA	0.0000		9999	1510	2360	0	0
2017/11/10 10:07:00	BASE	1.36	14	1.70	347	-2.8	100	-2.8	159	359	994.1	NA	0.0000		9999	1440	0	0	0
2017/11/10 10:08:00	BASE	1.33	11	1.54	6	-2.8	100	-2.8	168	376	994.1	NA	0.0000		9999	1410	0	0	0
2017/11/10 10:09:00	BASE	1.29	15	1.54	6	-2.8	100	-2.8	171	384	994.1	NA	0.0000		9999	1050	0	0	0
2017/11/10 10:10:00	BASE	1.28	7	1.65	352	-2.7	100	-2.7	199	434	994.1	NA	0.0000		9999	890	1510	0	0
2017/11/10 10:11:00	BASE	1.39	355	1.70	351	-2.8	100	-2.8	174	388	994.1	NA	0.0000		9999	850	1540	22900	0
2017/11/10 10:12:00	BASE	1.44	3	1.70	351	-2.7	100	-2.7	153	347	994.1	NA	0.0000		9999	890	1410	0	0
2017/11/10 10:13:00	BASE	1.57	9	1.85	12	-2.7	100	-2.7	165	371	994.1	NA	0.0000		9999	2300	0	0	0
2017/11/10 10:14:00	BASE	1.67	10	1.85	12	-2.7	100	-2.7	209	447	994.1	NA	0.0000		9999	12300	0	0	0
2017/11/10 10:15:00	BASE	1.72	2	1.95	269	-2.7	100	-2.7	181	400	994.1	NA	0.0000		9999	1480	0	0	0
2017/11/10 10:16:00	BASE	1.85	358	2.06	6	-2.7	100	-2.7	158	359	994.0	NA	0.0000		9999	1410	0	0	0
2017/11/10 10:17:00	BASE	1.89	6	2.06	6	-2.7	100	-2.7	148	342	994.0	NA	0.0000		9999	1440	0	0	0
2017/11/10 10:18:00	BASE	2.02	5	2.57	1	-2.7	100	-2.7	161	364	994.0	NA	0.0000		9999	1480	0	0	0
2017/11/10 10:19:00	BASE	2.21	2	2.57	1	-2.7	100	-2.7	165	372	994.0	NA	0.0000		9999	1440	0	0	0
2017/11/10 10:20:00	BASE	2.26	359	2.57	1	-2.7	100	-2.7	181	402	994.0	NA	0.0000		9999	0	0	0	0
2017/11/10 10:21:00	BASE	2.00	355	2.57	1	-2.7	100	-2.7	220	474	994.0	NA	0.0000		9999	1020	0	0	0
2017/11/10 10:22:00	BASE	1.65	358	2.57	1	-2.7	100	-2.7	248	524	994.0	NA	0.0000		9999	1080	1540	0	0
2017/11/10 10:23:00	BASE	1.51	2	2.57	1	-2.8	100	-2.8	259	545	994.0	NA	0.0000		9999	1050	0	0	0
2017/11/10 10:24:00	BASE	1.40	3	2.57	1	-2.8	100	-2.8	267	560	994.0	NA	0.0000		9999	0	0	0	0
2017/11/10 10:25:00	BASE	1.44	1	2.57	1	-2.7	100	-2.7	289	598	993.9	NA	0.0000		9999	0	0	0	0
2017/11/10 10:26:00	BASE	1.52	354	2.57	1	-2.7	100	-2.7	298	616	993.9	NA	0.0000		9999	0	0	0	0
2017/11/10 10:27:00	BASE	1.54	347	2.57	1	-2.7	100	-2.7	283	591	993.9	NA	0.0000		9999	0	0	0	0
2017/11/10 10:28:00	BASE	1.44	348	2.57	1	-2.7	100	-2.7	272	572	994.0	NA	0.0000		9999	0	0	0	0
2017/11/10 10:29:00	BASE	1.15	350	2.57	1	-2.6	100	-2.6	274	577	994.0	NA	0.0000		9999	0	0	0	0
2017/11/10 10:30:00	BASE	1.13	350	2.11	346	-2.6	100	-2.6	286	599	994.0	NA	0.0000		9999	1480	0	0	0
2017/11/10 10:31:00	BASE	1.32	345	2.01	360	-2.7	100	-2.7	303	627	994.0	NA	0.0000		9999	1440	0	0	0
2017/11/10 10:32:00	BASE	1.29	320	1.75	345	-2.7	100	-2.7	302	624	994.0	NA	0.0000		9999	1280	0	0	0
2017/11/10 10:33:00	BASE	1.35	295	1.75	294	-2.6	100	-2.6	302	624	994.1	NA	0.0000		9999	0	0	0	0
2017/11/10 10:34:00	BASE	1.57	284	1.95	283	-2.6	100	-2.6	326	665	994.1	NA	0.0000		9999	0	0	0	0
2017/11/10 10:35:00	BASE	1.67	280	1.95	283	-2.6	100	-2.7	369	745	994.1	NA	0.0000		9999	1510	0	0	0
2017/11/10 10:36:00	BASE	1.56	277	1.95	283	-2.6	100	-2.7	414	831	994.1	NA	0.0000		9999	1570	0	0	0
2017/11/10 10:37:00	BASE	1.64	270	2.06	266	-2.6	99	-2.7	442	885	994.1	NA	0.0000		9999	1510	0	0	0
2017/11/10 10:38:00	BASE	1.84	265	2.06	266	-2.6	99	-2.7	214	490	994.1	NA	0.0000		9999	1610	0	0	0
2017/11/10 10:39:00	BASE	1.80	257	2.11	257	-2.6	99	-2.8	147	357	994.1	NA	0.0000		9999	1610	0	0	0
2017/11/10 10:40:00	BASE	1.70	244	2.11	233	-2.6	98	-2.8	124	313	994.1	NA	0.0000		9999	1640	0	0	0
2017/11/10 10:41:00	BASE	1.29	236	2.11	233	-2.5	98	-2.8	116	295	994.1	NA	0.0000		9999	1670	2030	0	0
2017/11/10 10:42:00	BASE	0.85	238	2.11	233	-2.6	98	-2.8	113	290	994.1	NA	0.0000		9999	1640	0	0	0
2017/11/10 10:43:00	BASE	1.25	242	2.11	233	-2.6	98	-2.9	118	300	994.1	NA	0.0000		9999	1710	0	0	0
2017/11/10 10:44:00	BASE	1.77	242	2.11	238	-2.6	98	-3.0	132	328	994.1	NA	0.0000		9999	1770	0	0	0
2017/11/10 10:45:00	BASE	1.62	245	2.11	238	-2.7	97	-3.0	150	363	994.1	NA	0.0000		9999	1710	0	0	0
2017/11/10 10:46:00	BASE	1.22	249	2.11	238	-2.7	97	-3.1	156	375	994.0	NA	0.0000		9999	1640	0	0	0
2017/11/10 10:47:00	BASE	1.43	249	2.11	238	-2.7	96	-3.2	186	441	994.0	NA	0.0000		9999	1540	0	0	0
2017/11/10 10:48:00	BASE	1.35	246	2.11	238	-2.7	96	-3.2	275	606	994.0	NA	0.0000		9999	1670	0	0	0
2017/11/10 10:49:00	BASE	0.96	246	2.11	238	-2.6	96	-3.2	213	486	994.0	NA	0.0000		9999	1740	0	0	0
2017/11/10 10:50:00	BASE	1.21	243	2.11	238	-2.6	95	-3.3	287	623	994.0	NA	0.0000		9999	1640	0	0	0
2017/11/10 10:51:00	BASE	1.58	238	2.11	232	-2.6	95	-3.3	220	502	994.0	NA	0.0000		9999	1540	0	0	0
2017/11/10 10:52:00	BASE	1.87	234	2.11	233	-2.6	95	-3.3	301	653	994.0	NA	0.0000		9999	1540	0	0	0
2017/11/10 10:53:00	BASE	2.08	231	2.52	235	-2.6	95	-3.3	236	528	994.0	NA	0.0000		9999	1710	0	0	0
2017/11/10 10:54:00	BASE	2.22	227	2.52	235	-2.6	95	-3.3	209	485	994.0	NA	0.0000		9999	1410	0	0	0
2017/11/10 10:55:00	BASE	2.19	221	2.52	235	-2.6	95	-3.3	160	393	994.0	NA	0.0000		9999	1570	0	0	0
2017/11/10 10:56:00	BASE	2.09	217	2.52	235	-2.6	95	-3.3	139	351	993.9	NA	0.0000		9999	1380	0	0	0
2017/11/10 10:57:00	BASE	2.10	214	2.52	235	-2.6	95	-3.3	129	329	993.9	NA	0.0000		9999	1380	0	0	0
2017/11/10 10:58:00	BASE	1.99	212	2.52	235	-2.6	95	-3.3	122	315	993.9	NA	0.0000		9999	1440	0	0	0
2017/11/10 10:59:00	BASE	1.77	212	2.52	235	-2.6	95	-3.3	122	314	993.9	NA	0.0000		9999	1740	0	0	0
2017/11/10 11:00:00	BASE	2.01	216	2.52	235	-2.7	95	-3.4	139	344	993.9	NA	0.0000		9999	1740	0	0	0
2017/11/10 11:01:00	BASE	2.43	218	2.78	219	-2.7	95	-3.4	197	465	993.9	NA	0.0000		9999	1540	0	0	0
2017/11/10 11:02:00	BASE	2.46	215	2.78	219	-2.7	95	-3.4	211	492	993.9	NA	0.0000		9999	1480	21420	22050	0
2017/11/10 11:03:00	BASE	2.36	212	2.78	219	-2.7	95	-3.4	454	925	993.9	NA	0.0000		9999	1440	0	0	0
2017/11/10 11:04:00	BASE	2.25	208	2.78	219	-2.7	95	-3.4	282	617	993.9	NA	0.0000		9999	0	0	0	0
2017/11/10 11:05:00	BASE	1.96	208	2.78	219	-2.7	94	-3.5	217	497	993.9	NA	0.0000		9999	13320	0	0	0
2017/11/10 11:06:00	BASE	1.70	208	2.78	219	-2.7	94	-3.5	330	704	993.9	NA	0.0000		9999	13320	0	0	0
2017/11/10 11:07:00	BASE	1.17	209	2.78	219	-2.7	94	-3.5	327	702	993.9	NA	0.0000		9999	5580	13290	0	0
2017/11/10 11:08:00	BASE	0.66	213	2.78	219	-2.6	93	-3.6	345	732	993.9	NA	0.0000		9999	5510	13260	0	0
2017/11/10 11:09:00	BASE	1.13	209	2.78	219	-2.7	93	-3.6	247	555	993.9	NA	0.0000		9999	5580	0	0	0
2017/11/10 11:10:00	BASE	1.81	205	2.78	219	-2.7	93	-3.7	191	443	993.9	NA	0.0000		9999	5580	0	0	0
2017/11/10 11:11:00	BASE	1.85	207	2.57	214	-2.7	92	-3.8	325	702	993.8	NA	0.0000		9999	1570	0	0	0
2017/11/10 11:12:00	BASE	1.79	205	2.57	214	-2.7	92	-3.8	327	700	993.7	NA	0.0000		9999	0	0	0	0
2017/11/10 11:13:00	BASE	1.76	204	2.31	206	-2.7	92	-3.8	260	580	993.7	NA	0.0000		9999	0	0	0	0
2017/11/10 11:14:00	BASE	1.97	204	2.31	200	-2.7	92	-3.8	230	525	993.7	NA	0.0000		9999	1670	0	0	0
2017/11/10 11:15:00	BASE	2.02	203	2.31	200	-2.7	92	-3.8	185	434	993.7	NA	0.0000		9999	1670	0	0	0
2017/11/10 11:16:00	BASE	1.84	208	2.31	200	-2.7	92	-3.8	181	424	993.7	NA	0.0000		9999	1870	0	0	0
2017/11/10 11:17:00	BASE	1.79	215	2.31	200	-2.7	92	-3.8	233	531	993.7	NA	0.0000		9999	1670	0	0	0
2017/11/10 11:18:00	BASE	1.82	211	2.31	200	-2.7	92	-3.9	266	595	993.7	NA	0.0000		9999	1640	0	0	0
2017/11/10 11:19:00	BASE	1.98	204	2.42	196	-2.7	91	-3.9	341	737	993.7	NA	0.0000		9999	1610	0	0	0
2017/11/10 11:20:00	BASE	2.27	196	2.73	187	-2.7	91	-3.9	284	631	993.7	NA	0.0000		9999	1610	0	0	0
2017/11/10 11:21:00	BASE	2.40	185	2.73	187	-2.6	91	-3.9	336	736	993.7	NA	0.0000		9999	1710	5540	0	0
2017/11/10 11:22:00	BASE	2.41	194	2.78	219	-2.6	91	-3.9	433	923	993.7	NA	0.0000		9999	1570	0	0	0
2017/11/10 11:23:00	BASE	2.77	206	3.45	196	-2.6	91	-3.8	385	835	993.7	NA	0.0000		9999	1510	0	0	0
2017/11/10 11:24:00	BASE	3.48	202	4.58	202	-2.5	91	-3.8	325	724	993.7	NA	0.0000		9999	1480	0	0	0
2017/11/10 11:25:00	BASE	4.22	203	4.73	208	-2.5	91	-3.8	243	560	993.7	NA	0.0000		9999	1510	5580	0	0
2017/11/10 11:26:00	BASE	4.56	205	4.89	204	-2.5	91	-3.8	229	536	993.7	NA	0.0000		9999	1900	0	0	0
2017/11/10 11:27:00	BASE	4.70	203	5.04	205	-2.5	91	-3.8	197	464	993.7	NA	0.0000		9999	2260	0	0	0
2017/11/10 11:28:00	BASE	4.65	203	5.04	205	-2.6	91	-3.8	194	458	993.7	NA	0.0000		9999	2330	0	0	0
2017/11/10 11:29:00	BASE	4.36	202	5.04	205	-2.6	91	-3.9	209	485	993.7	NA	0.0000		9999	2400	5540	0	0
2017/11/10 11:30:00	BASE	4.34	202	5.04	205	-2.6	91	-3.9	223	513	993.7	NA	0.0000		9999	2490	5450	0	0
2017/11/10 11:31:00	BASE	4.23	204	5.04	205	-2.7	91	-3.9	222	513	993.7	NA	0.0000		9999	2400	5540	0	0
2017/11/10 11:32:00	BASE	4.01	208	5.04	205	-2.7	91	-3.9	216	502	993.7	NA	0.0000		9999	2400	0	0	0
2017/11/10 11:33:00	BASE	4.26	207	5.04	205	-2.7	91	-3.9	212	494	993.6	NA	0.0000		9999	2400	5540	0	0
2017/11/10 11:34:00	BASE	4.53	204	5.04	205	-2.6	91	-3.9	214	497	993.6	NA	0.0000		9999	2030	5480	0	0
2017/11/10 11:35:00	BASE	4.70	204	5.14	201	-2.6	92	-3.8	216	502	993.6	NA	0.0000		9999	1970	5510	22440	0
2017/11/10 11:36:00	BASE	4.77	206	5.14	201	-2.7	92	-3.8	213	498	993.6	NA	0.0000		9999	1970	0	0	0
2017/11/10 11:37:00	BASE	4.62	207	5.14	201	-2.6	92	-3.8	209	492	993.6	NA	0.0000		9999	2070	0	0	0
2017/11/10 11:38:00	BASE	4.83	210	5.45	214	-2.7	92	-3.8	207	489	993.6	NA	0.0000		9999	1410	2360	0	0
2017/11/10 11:39:00	BASE	5.16	210	5.61	208	-2.7	92	-3.7	196	468	993.6	NA	0.0000		9999	1380	1940	0	0
2017/11/10 11:40:00	BASE	5.17	204	5.61	208	-2.7	93	-3.7	187	449	993.6	NA	0.0000		9999	1410	2070	0	0
2017/11/10 11:41:00	BASE	4.90	203	5.61	208	-2.7	93	-3.7	184	444	993.6	NA	0.0000		9999	1440	0	0	0
2017/11/10 11:42:00	BASE	4.46	200	5.61	208	-2.7	93	-3.7	185	447	993.6	NA	0.0000		9999	1970	0	0	0
2017/11/10 11:43:00	BASE	4.51	199	5.61	208	-2.7	93	-3.7	180	440	993.6	NA	0.0000		9999	1510	0	0	0
2017/11/10 11:44:00	BASE	4.91	200	5.61	208	-2.8	93	-3.7	161	404	993.6	NA	0.0000		9999	1640	0	0	0
2017/11/10 11:45:00	BASE	5.34	200	6.02	204	-2.7	93	-3.7	145	371	993.6	NA	0.0000		9999	1310	0	0	0
2017/11/10 11:46:00	BASE	5.48	201	6.02	204	-2.7	93	-3.7	144	367	993.6	NA	0.0000		9999	1410	0	0	0
2017/11/10 11:47:00	BASE	5.13	198	6.02	204	-2.8	93	-3.7	153	384	993.6	NA	0.0000		9999	1710	0	0	0
2017/11/10 11:48:00	BASE	4.65	191	6.02	204	-2.8	93	-3.7	175	428	993.5	NA	0.0000		9999	1770	0	0	0
2017/11/10 11:49:00	BASE	4.13	188	6.02	204	-2.8	93	-3.7	200	474	993.5	NA	0.0000		9999	1840	0	0	0
2017/11/10 11:50:00	BASE	4.19	189	6.02	204	-2.8	94	-3.7	238	549	993.6	NA	0.0000		9999	2070	19360	20670	0
2017/11/10 11:51:00	BASE	4.53	193	6.02	204	-2.8	94	-3.7	243	562	993.6	NA	0.0000		9999	2130	0	0	0
2017/11/10 11:52:00	BASE	4.68	199	6.02	204	-2.8	94	-3.6	212	506	993.6	NA	0.0000		9999	2200	0	0	0
2017/11/10 11:53:00	BASE	4.53	194	6.02	204	-2.8	94	-3.6	190	463	993.5	NA	0.0000		9999	2230	0	0	0
2017/11/10 11:54:00	BASE	4.29	190	6.02	204	-2.7	94	-3.6	188	459	993.5	NA	0.0000		9999	1380	2260	0	0
2017/11/10 11:55:00	BASE	4.20	190	5.45	202	-2.7	94	-3.6	199	477	993.5	NA	0.0000		9999	2130	0	0	0
2017/11/10 11:56:00	BASE	4.14	185	5.35	200	-2.7	94	-3.6	233	542	993.5	NA	0.0000		9999	2130	0	0	0
2017/11/10 11:57:00	BASE	4.20	183	5.20	201	-2.7	94	-3.6	263	600	993.5	NA	0.0000		9999	1280	2230	0	0
2017/11/10 11:58:00	BASE	4.33	185	5.20	201	-2.7	94	-3.6	255	592	993.5	NA	0.0000		9999	1250	2560	0	0
2017/11/10 11:59:00	BASE	4.57	188	5.20	201	-2.7	94	-3.5	203	489	993.5	NA	0.0000		9999	1250	0	0	0
2017/11/10 12:00:00	BASE	4.69	191	5.20	201	-2.8	94	-3.5	179	439	993.5	NA	0.0000		9999	1350	0	0	0
2017/11/10 12:01:00	BASE	4.65	192	5.20	201	-2.8	95	-3.5	203	484	993.5	NA	0.0000		9999	1510	0	0	0
2017/11/10 12:02:00	BASE	4.56	194	5.35	198	-2.8	95	-3.5	222	521	993.5	NA	0.0000		9999	1410	2000	2560	0
2017/11/10 12:03:00	BASE	4.79	197	5.56	200	-2.8	95	-3.5	191	462	993.5	NA	0.0000		9999	1480	2460	0	0
2017/11/10 12:04:00	BASE	4.87	193	5.56	200	-2.8	94	-3.6	160	400	993.5	NA	0.0000		9999	1510	2490	0	0
2017/11/10 12:05:00	BASE	4.61	187	5.56	200	-2.8	94	-3.6	143	364	993.5	NA	0.0000		9999	2430	0	0	0
2017/11/10 12:06:00	BASE	4.54	183	5.56	200	-2.9	94	-3.7	139	355	993.5	NA	0.0000		9999	0	0	0	0
2017/11/10 12:07:00	BASE	4.39	181	5.56	200	-2.9	94	-3.7	178	427	993.5	NA	0.0000		9999	0	0	0	0
2017/11/10 12:08:00	BASE	4.40	187	5.56	200	-2.9	94	-3.7	252	573	993.5	NA	0.0000		9999	2330	0	0	0
2017/11/10 12:09:00	BASE	4.34	189	5.56	200	-2.9	94	-3.7	228	533	993.5	NA	0.0000		9999	2100	0	0	0
2017/11/10 12:10:00	BASE	4.28	185	5.56	200	-2.9	94	-3.7	184	446	993.5	NA	0.0000		9999	1350	2130	0	0
2017/11/10 12:11:00	BASE	4.50	184	5.56	200	-2.9	94	-3.7	178	434	993.4	NA	0.0000		9999	2100	22740	0	0
2017/11/10 12:12:00	BASE	4.87	187	5.56	200	-2.9	94	-3.7	215	503	993.4	NA	0.0000		9999	1410	2230	0	0
2017/11/10 12:13:00	BASE	5.11	190	5.56	189	-2.8	94	-3.7	248	568	993.4	NA	0.0000		9999	1540	0	0	0
2017/11/10 12:14:00	BASE	5.02	191	5.56	189	-2.8	94	-3.7	261	595	993.4	NA	0.0000		9999	1540	2400	5810	0
2017/11/10 12:15:00	BASE	4.99	191	5.56	189	-2.8	94	-3.7	261	598	993.4	NA	0.0000		9999	2490	5810	0	0
2017/11/10 12:16:00	BASE	4.85	187	5.56	189	-2.8	94	-3.7	255	590	993.4	NA	0.0000		9999	1310	2530	0	0
2017/11/10 12:17:00	BASE	4.72	185	5.56	189	-2.8	94	-3.6	264	610	993.4	NA	0.0000		9999	1410	0	0	0
2017/11/10 12:18:00	BASE	4.76	188	5.56	189	-2.8	94	-3.6	295	671	993.4	NA	0.0000		9999	1770	0	0	0
2017/11/10 12:19:00	BASE	4.63	189	5.56	189	-2.8	94	-3.6	295	674	993.3	NA	0.0000		9999	1840	0	0	0
2017/11/10 12:20:00	BASE	4.73	187	5.56	189	-2.8	94	-3.6	264	614	993.3	NA	0.0000		9999	1710	0	0	0
2017/11/10 12:21:00	BASE	5.02	184	5.56	189	-2.8	94	-3.6	258	600	993.3	NA	0.0000		9999	1870	0	0	0
2017/11/10 12:22:00	BASE	4.84	182	5.56	189	-2.8	94	-3.6	274	632	993.3	NA	0.0000		9999	1310	1970	0	0
2017/11/10 12:23:00	BASE	4.71	182	5.45	188	-2.8	94	-3.6	297	680	993.3	NA	0.0000		9999	1280	0	0	0
2017/11/10 12:24:00	BASE	4.58	181	5.45	188	-2.8	94	-3.6	324	738	993.3	NA	0.0000		9999	1350	0	0	0
2017/11/10 12:25:00	BASE	4.14	184	5.35	185	-2.8	94	-3.6	279	658	993.3	NA	0.0000		9999	1310	1900	0	0
2017/11/10 12:26:00	BASE	4.12	188	5.35	185	-2.8	94	-3.6	237	575	993.3	NA	0.0000		9999	1250	0	0	0
2017/11/10 12:27:00	BASE	4.84	187	6.22	189	-2.8	94	-3.6	225	547	993.3	NA	0.0000		9999	1310	0	0	0
2017/11/10 12:28:00	BASE	5.43	186	6.22	189	-2.8	94	-3.6	233	560	993.3	NA	0.0000		9999	1510	0	0	0
2017/11/10 12:29:00	BASE	5.26	181	6.22	189	-2.8	94	-3.6	251	594	993.2	NA	0.0000		9999	1310	1940	0	0
2017/11/10 12:30:00	BASE	5.04	177	6.22	189	-2.8	94	-3.6	257	608	993.2	NA	0.0000		9999	1350	2070	0	0
2017/11/10 12:31:00	BASE	4.89	181	6.22	189	-2.8	94	-3.6	247	588	993.2	NA	0.0000		9999	1310	1900	0	0
2017/11/10 12:32:00	BASE	5.08	185	6.22	189	-2.8	94	-3.6	242	574	993.2	NA	0.0000		9999	1970	0	0	0
2017/11/10 12:33:00	BASE	5.07	186	6.22	189	-2.8	94	-3.6	255	596	993.2	NA	0.0000		9999	2130	5610	0	0
2017/11/10 12:34:00	BASE	5.06	187	6.22	189	-2.8	94	-3.6	296	674	993.2	NA	0.0000		9999	2360	5580	0	0
2017/11/10 12:35:00	BASE	5.45	183	6.28	176	-2.8	94	-3.6	346	776	993.1	NA	0.0000		9999	1510	5580	0	0
2017/11/10 12:36:00	BASE	5.39	180	6.28	176	-2.8	94	-3.6	359	803	993.1	NA	0.0000		9999	1350	14830	18600	0
2017/11/10 12:37:00	BASE	5.47	183	6.48	188	-2.8	94	-3.6	385	857	993.0	NA	0.0000		9999	1710	5540	0	0
2017/11/10 12:38:00	BASE	5.55	186	6.48	188	-2.8	94	-3.6	478	1040	993.0	NA	0.0000		9999	5480	0	0	0
2017/11/10 12:39:00	BASE	4.98	181	6.48	188	-2.8	94	-3.6	443	966	993.0	NA	0.0000		9999	5480	0	0	0
2017/11/10 12:40:00	BASE	4.61	179	6.48	188	-2.8	94	-3.7	409	901	993.0	NA	0.0000		9999	5410	0	0	0
2017/11/10 12:41:00	BASE	4.79	182	6.48	188	-2.8	93	-3.7	414	917	993.0	NA	0.0000		9999	5410	0	0	0
2017/11/10 12:42:00	BASE	5.22	181	6.48	188	-2.7	93	-3.7	391	868	992.9	NA	0.0000		9999	5410	23790	0	0
2017/11/10 12:43:00	BASE	5.28	179	6.48	188	-2.7	93	-3.7	384	854	992.9	NA	0.0000		9999	5450	0	0	0
2017/11/10 12:44:00	BASE	4.73	175	6.48	188	-2.7	93	-3.8	387	860	992.9	NA	0.0000		9999	5450	0	0	0
2017/11/10 12:45:00	BASE	4.57	178	6.48	188	-2.7	92	-3.8	397	882	992.9	NA	0.0000		9999	5410	0	0	0
2017/11/10 12:46:00	BASE	4.83	177	6.48	188	-2.7	92	-3.8	412	908	992.9	NA	0.0000		9999	5380	0	0	0
2017/11/10 12:47:00	BASE	5.07	175	6.02	182	-2.7	92	-3.8	424	934	992.9	NA	0.0000		9999	5450	0	0	0
2017/11/10 12:48:00	BASE	5.00	174	6.02	182	-2.7	92	-3.8	430	955	992.9	NA	0.0000		9999	5410	0	0	0
2017/11/10 12:49:00	BASE	4.40	173	6.02	182	-2.7	92	-3.8	405	903	992.9	NA	0.0000		9999	5540	0	0	0
2017/11/10 12:50:00	BASE	4.06	176	6.02	182	-2.7	92	-3.8	388	863	992.9	NA	0.0000		9999	5510	0	0	0
2017/11/10 12:51:00	BASE	4.06	181	6.02	182	-2.7	92	-3.8	393	871	992.9	NA	0.0000		9999	5510	0	0	0
2017/11/10 12:52:00	BASE	3.81	177	5.45	183	-2.7	92	-3.8	423	935	992.9	NA	0.0000		9999	5540	0	0	0
2017/11/10 12:53:00	BASE	3.59	169	5.45	183	-2.7	92	-3.8	408	909	992.9	NA	0.0000		9999	5540	0	0	0
2017/11/10 12:54:00	BASE	3.63	166	5.45	183	-2.6	92	-3.7	403	894	992.9	NA	0.0000		9999	5610	0	0	0
2017/11/10 12:55:00	BASE	3.88	171	5.40	183	-2.6	92	-3.7	451	989	992.9	NA	0.0000		9999	5680	0	0	0
2017/11/10 12:56:00	BASE	4.40	178	5.40	183	-2.6	93	-3.6	495	1074	992.9	NA	0.0000		9999	5680	20010	21030	0
2017/11/10 12:57:00	BASE	4.67	181	4.99	183	-2.6	93	-3.6	414	916	992.9	NA	0.0000		9999	5710	0	0	0
2017/11/10 12:58:00	BASE	4.39	179	4.99	183	-2.6	92	-3.7	382	847	992.9	NA	0.0000		9999	5680	0	0	0
2017/11/10 12:59:00	BASE	4.03	179	4.99	183	-2.7	92	-3.8	468	1027	992.9	NA	0.0000		9999	5740	0	0	0
2017/11/10 13:00:00	BASE	3.97	180	4.99	183	-2.7	92	-3.9	447	974	992.9	NA	0.0000		9999	5740	0	0	0
2017/11/10 13:01:00	BASE	3.79	177	4.99	183	-2.7	92	-3.9	590	1252	992.9	NA	0.0000		9999	5740	0	0	0
2017/11/10 13:02:00	BASE	3.47	173	4.99	183	-2.7	92	-3.8	559	1191	992.9	NA	0.0000		9999	5710	0	0	0
2017/11/10 13:03:00	BASE	3.56	171	4.99	183	-2.6	92	-3.7	651	1350	992.8	NA	0.0000		9999	5770	0	0	0
2017/11/10 13:04:00	BASE	3.47	172	4.99	183	-2.6	92	-3.7	489	1059	992.9	NA	0.0000		9999	5810	0	0	0
2017/11/10 13:05:00	BASE	3.21	165	4.99	183	-2.5	92	-3.6	510	1096	992.9	NA	0.0000		9999	5810	0	0	0
2017/11/10 13:06:00	BASE	3.18	160	4.99	183	-2.5	93	-3.5	414	920	992.9	NA	0.0000		9999	1250	5870	0	0
2017/11/10 13:07:00	BASE	3.33	171	4.48	181	-2.5	93	-3.5	729	1485	992.9	NA	0.0000		9999	1250	5870	0	0
2017/11/10 13:08:00	BASE	3.61	186	4.27	176	-2.5	93	-3.5	578	1222	992.9	NA	0.0000		9999	1280	0	0	0
2017/11/10 13:09:00	BASE	3.58	192	4.27	176	-2.4	93	-3.4	762	1515	992.9	NA	0.0000		9999	1210	0	0	0
2017/11/10 13:10:00	BASE	3.55	191	4.12	191	-2.4	93	-3.4	734	1507	992.9	NA	0.0000		9999	1210	0	0	0
2017/11/10 13:11:00	BASE	3.62	186	4.12	191	-2.4	93	-3.3	330	749	992.9	NA	0.0000		9999	1250	0	0	0
2017/11/10 13:12:00	BASE	3.41	183	4.12	191	-2.4	94	-3.3	723	1489	992.9	NA	0.0000		9999	5810	0	0	0
2017/11/10 13:13:00	BASE	3.17	184	4.12	191	-2.4	94	-3.3	758	1515	992.9	NA	0.0000		9999	5770	0	0	0
2017/11/10 13:14:00	BASE	3.58	189	4.53	194	-2.5	94	-3.3	499	1093	992.9	NA	0.0000		9999	5810	0	0	0
2017/11/10 13:15:00	BASE	4.35	192	4.84	196	-2.5	94	-3.3	352	803	992.9	NA	0.0000		9999	1380	5810	0	0
2017/11/10 13:16:00	BASE	4.42	188	4.84	196	-2.6	94	-3.4	354	810	992.9	NA	0.0000		9999	1510	5810	22080	0
2017/11/10 13:17:00	BASE	4.35	183	4.84	196	-2.6	94	-3.5	315	734	992.9	NA	0.0000		9999	1480	5840	0	0
2017/11/10 13:18:00	BASE	4.09	184	4.84	196	-2.6	93	-3.5	326	748	992.8	NA	0.0000		9999	1380	5810	0	0
2017/11/10 13:19:00	BASE	3.23	181	4.84	196	-2.6	93	-3.6	676	1408	992.8	NA	0.0000		9999	1540	5710	0	0
2017/11/10 13:20:00	BASE	2.92	175	4.84	196	-2.6	93	-3.6	868	1515	992.8	NA	0.0000		9999	5740	0	0	0
2017/11/10 13:21:00	BASE	3.30	178	4.84	196	-2.6	93	-3.5	683	1456	992.9	NA	0.0000		9999	1250	0	0	0
2017/11/10 13:22:00	BASE	3.57	180	4.84	196	-2.6	93	-3.5	388	890	992.9	NA	0.0000		9999	1210	0	0	0
2017/11/10 13:23:00	BASE	3.41	181	4.84	196	-2.5	94	-3.4	321	753	992.9	NA	0.0000		9999	1250	0	0	0
2017/11/10 13:24:00	BASE	3.36	179	4.84	196	-2.5	94	-3.4	327	753	992.9	NA	0.0000		9999	1250	0	0	0
2017/11/10 13:25:00	BASE	3.53	178	4.78	180	-2.5	94	-3.4	380	844	992.8	NA	0.0000		9999	1380	0	0	0
2017/11/10 13:26:00	BASE	3.53	179	4.78	180	-2.6	94	-3.4	857	1515	992.8	NA	0.0000		9999	1350	5840	0	0
2017/11/10 13:27:00	BASE	3.45	182	4.58	189	-2.6	94	-3.5	678	1426	992.9	NA	0.0000		9999	1410	5940	0	0
2017/11/10 13:28:00	BASE	3.66	185	4.58	189	-2.6	93	-3.5	728	1515	992.9	NA	0.0000		9999	1380	0	0	0
2017/11/10 13:29:00	BASE	3.84	188	4.58	189	-2.6	93	-3.5	648	1377	992.8	NA	0.0000		9999	1480	5810	0	0
2017/11/10 13:30:00	BASE	3.48	186	4.58	189	-2.5	93	-3.6	608	1297	992.8	NA	0.0000		9999	1440	5610	20900	0
2017/11/10 13:31:00	BASE	3.31	178	4.58	189	-2.5	92	-3.5	611	1305	992.8	NA	0.0000		9999	5610	0	0	0
2017/11/10 13:32:00	BASE	3.25	179	4.58	189	-2.4	92	-3.5	600	1285	992.8	NA	0.0000		9999	5640	0	0	0
2017/11/10 13:33:00	BASE	2.97	187	4.58	189	-2.5	92	-3.6	585	1262	992.8	NA	0.0000		9999	5610	0	0	0
2017/11/10 13:34:00	BASE	2.69	182	4.58	189	-2.5	92	-3.6	560	1209	992.8	NA	0.0000		9999	1570	5610	19520	0
2017/11/10 13:35:00	BASE	2.66	175	4.58	189	-2.4	92	-3.6	586	1266	992.8	NA	0.0000		9999	1510	5610	0	0
2017/11/10 13:36:00	BASE	2.57	173	4.58	189	-2.4	92	-3.6	581	1269	992.7	NA	0.0000		9999	1380	5580	0	0
2017/11/10 13:37:00	BASE	2.46	166	4.58	189	-2.4	92	-3.5	496	1089	992.7	NA	0.0000		9999	5510	0	0	0
2017/11/10 13:38:00	BASE	2.79	165	4.01	188	-2.3	92	-3.4	534	1172	992.7	NA	0.0000		9999	5510	0	0	0
2017/11/10 13:39:00	BASE	3.05	174	3.96	188	-2.3	92	-3.3	528	1161	992.7	NA	0.0000		9999	5540	0	0	0
2017/11/10 13:40:00	BASE	3.51	183	4.42	188	-2.3	93	-3.3	509	1119	992.7	NA	0.0000		9999	5580	0	0	0
2017/11/10 13:41:00	BASE	3.74	190	4.42	188	-2.4	93	-3.4	507	1120	992.7	NA	0.0000		9999	5580	0	0	0
2017/11/10 13:42:00	BASE	3.71	195	4.42	188	-2.4	92	-3.5	503	1112	992.7	NA	0.0000		9999	5540	0	0	0
2017/11/10 13:43:00	BASE	3.99	195	4.53	193	-2.5	92	-3.6	530	1172	992.7	NA	0.0000		9999	5540	0	0	0
2017/11/10 13:44:00	BASE	3.95	195	4.53	193	-2.6	92	-3.8	513	1125	992.7	NA	0.0000		9999	5610	0	0	0
2017/11/10 13:45:00	BASE	4.03	197	4.68	200	-2.6	91	-3.9	517	1129	992.7	NA	0.0000		9999	5680	0	0	0
2017/11/10 13:46:00	BASE	4.27	197	4.84	202	-2.6	91	-3.9	577	1247	992.6	NA	0.0000		9999	5680	0	0	0
2017/11/10 13:47:00	BASE	4.08	196	4.84	202	-2.6	91	-3.9	570	1228	992.7	NA	0.0000		9999	5710	0	0	0
2017/11/10 13:48:00	BASE	3.70	196	4.84	202	-2.6	91	-3.9	604	1295	992.7	NA	0.0000		9999	5710	0	0	0
2017/11/10 13:49:00	BASE	3.50	196	4.84	202	-2.6	91	-3.9	708	1496	992.7	NA	0.0000		9999	5740	0	0	0
2017/11/10 13:50:00	BASE	3.47	194	4.84	202	-2.5	91	-3.9	613	1313	992.7	NA	0.0000		9999	5740	0	0	0
2017/11/10 13:51:00	BASE	3.55	196	4.84	202	-2.5	91	-3.8	847	1515	992.7	NA	0.0000		9999	5710	0	0	0
2017/11/10 13:52:00	BASE	3.42	199	4.84	202	-2.5	90	-3.8	722	1515	992.7	NA	0.0000		9999	5640	0	0	0
2017/11/10 13:53:00	BASE	3.52	204	4.89	200	-2.5	90	-3.8	764	1515	992.6	NA	0.0000		9999	5680	0	0	0
2017/11/10 13:54:00	BASE	3.69	197	4.89	200	-2.4	91	-3.7	586	1263	992.7	NA	0.0000		9999	5640	0	0	0
2017/11/10 13:55:00	BASE	3.53	186	4.89	200	-2.4	91	-3.7	628	1351	992.7	NA	0.0000		9999	5710	0	0	0
2017/11/10 13:56:00	BASE	3.69	190	4.89	200	-2.4	90	-3.7	613	1317	992.7	NA	0.0000		9999	5610	21420	0	0
2017/11/10 13:57:00	BASE	4.08	195	4.89	200	-2.4	90	-3.7	606	1305	992.7	NA	0.0000		9999	5640	0	0	0
2017/11/10 13:58:00	BASE	3.96	195	4.89	200	-2.4	90	-3.7	620	1337	992.7	NA	0.0000		9999	5610	0	0	0
2017/11/10 13:59:00	BASE	3.71	195	4.89	200	-2.4	90	-3.8	692	1482	992.7	NA	0.0000		9999	5610	0	0	0
2017/11/10 14:00:00	BASE	3.48	193	4.89	200	-2.5	90	-3.9	607	1310	992.7	NA	0.0000		9999	5610	0	0	0
2017/11/10 14:01:00	BASE	3.18	189	4.89	200	-2.5	90	-3.9	634	1369	992.6	NA	0.0000		9999	5580	0	0	0
2017/11/10 14:02:00	BASE	3.11	184	4.89	200	-2.5	90	-3.9	640	1381	992.6	NA	0.0000		9999	5480	0	0	0
2017/11/10 14:03:00	BASE	3.15	180	4.58	200	-2.5	89	-4.0	627	1352	992.6	NA	0.0000		9999	5510	0	0	0
2017/11/10 14:04:00	BASE	3.10	180	4.58	200	-2.5	89	-4.0	651	1403	992.5	NA	0.0000		9999	5450	0	0	0
2017/11/10 14:05:00	BASE	3.00	179	4.58	200	-2.4	89	-4.0	602	1309	992.5	NA	0.0000		9999	5380	0	0	0
2017/11/10 14:06:00	BASE	3.00	188	4.53	198	-2.4	89	-4.0	573	1247	992.4	NA	0.0000		9999	5480	0	0	0
2017/11/10 14:07:00	BASE	2.94	190	4.22	196	-2.4	88	-4.0	577	1254	992.4	NA	0.0000		9999	5450	0	0	0
2017/11/10 14:08:00	BASE	3.00	182	4.22	196	-2.4	88	-4.0	624	1350	992.4	NA	0.0000		9999	5410	0	0	0
2017/11/10 14:09:00	BASE	3.07	181	3.86	179	-2.3	88	-4.1	600	1295	992.3	NA	0.0000		9999	5480	0	0	0
2017/11/10 14:10:00	BASE	2.78	178	3.86	179	-2.4	88	-4.1	651	1400	992.3	NA	0.0000		9999	5450	0	0	0
2017/11/10 14:11:00	BASE	2.53	178	3.86	179	-2.4	87	-4.2	605	1308	992.3	NA	0.0000		9999	5450	0	0	0
2017/11/10 14:12:00	BASE	2.61	183	3.86	179	-2.4	87	-4.3	619	1344	992.3	NA	0.0000		9999	5350	0	0	0
2017/11/10 14:13:00	BASE	2.89	191	3.45	184	-2.4	87	-4.3	609	1317	992.3	NA	0.0000		9999	5380	22540	0	0
2017/11/10 14:14:00	BASE	3.11	194	4.32	198	-2.4	87	-4.3	603	1308	992.3	NA	0.0000		9999	5380	0	0	0
2017/11/10 14:15:00	BASE	3.44	194	4.32	197	-2.4	87	-4.2	574	1247	992.3	NA	0.0000		9999	5410	0	0	0
2017/11/10 14:16:00	BASE	3.70	192	4.32	197	-2.4	87	-4.2	599	1300	992.2	NA	0.0000		9999	5380	0	0	0
2017/11/10 14:17:00	BASE	3.75	188	4.32	197	-2.4	87	-4.2	606	1312	992.2	NA	0.0000		9999	5380	0	0	0
2017/11/10 14:18:00	BASE	3.63	185	4.32	197	-2.4	87	-4.3	576	1250	992.2	NA	0.0000		9999	5410	0	0	0
2017/11/10 14:19:00	BASE	3.29	180	4.32	197	-2.4	87	-4.3	572	1243	992.2	NA	0.0000		9999	5410	0	0	0
2017/11/10 14:20:00	BASE	3.24	181	4.32	197	-2.4	86	-4.4	618	1337	992.2	NA	0.0000		9999	5480	0	0	0
2017/11/10 14:21:00	BASE	3.33	186	4.32	197	-2.4	86	-4.5	599	1297	992.2	NA	0.0000		9999	5510	0	0	0
2017/11/10 14:22:00	BASE	3.05	189	4.32	197	-2.4	85	-4.5	679	1456	992.2	NA	0.0000		9999	5510	0	0	0
2017/11/10 14:23:00	BASE	2.86	194	4.32	197	-2.4	85	-4.5	678	1450	992.2	NA	0.0000		9999	5540	0	0	0
2017/11/10 14:24:00	BASE	3.01	194	4.32	197	-2.4	85	-4.5	630	1351	992.2	NA	0.0000		9999	5510	0	0	0
2017/11/10 14:25:00	BASE	2.90	193	4.27	184	-2.4	85	-4.5	676	1445	992.1	NA	0.0000		9999	5540	0	0	0
2017/11/10 14:26:00	BASE	2.55	194	4.06	191	-2.3	86	-4.4	862	1515	992.1	NA	0.0000		9999	5580	0	0	0
2017/11/10 14:27:00	BASE	2.68	190	3.96	185	-2.3	86	-4.3	621	1331	992.1	NA	0.0000		9999	5580	0	0	0
2017/11/10 14:28:00	BASE	2.90	187	3.81	186	-2.3	87	-4.3	666	1419	992.1	NA	0.0000		9999	5580	0	0	0
2017/11/10 14:29:00	BASE	2.66	187	3.81	186	-2.4	87	-4.3	629	1347	992.1	NA	0.0000		9999	5580	0	0	0
2017/11/10 14:30:00	BASE	2.55	192	3.76	183	-2.3	87	-4.2	632	1354	992.1	NA	0.0000		9999	5640	0	0	0
2017/11/10 14:31:00	BASE	2.78	192	3.45	201	-2.4	87	-4.2	657	1397	992.1	NA	0.0000		9999	5580	0	0	0
2017/11/10 14:32:00	BASE	3.06	188	3.86	183	-2.4	87	-4.2	713	1504	992.0	NA	0.0000		9999	5640	0	0	0
2017/11/10 14:33:00	BASE	3.19	186	3.86	183	-2.3	87	-4.2	842	1515	992.0	NA	0.0000		9999	5610	22180	0	0
2017/11/10 14:34:00	BASE	3.41	186	3.86	183	-2.3	87	-4.2	614	1315	992.0	NA	0.0000		9999	5580	0	0	0
2017/11/10 14:35:00	BASE	3.40	191	3.86	183	-2.4	87	-4.3	775	1515	992.0	NA	0.0000		9999	5510	0	0	0
2017/11/10 14:36:00	BASE	3.51	194	3.96	188	-2.4	87	-4.3	851	1515	991.9	NA	0.0000		9999	5510	0	0	0
2017/11/10 14:37:00	BASE	3.29	195	3.96	188	-2.4	87	-4.3	1005	1515	991.9	NA	0.0000		9999	5510	20740	0	0
2017/11/10 14:38:00	BASE	2.71	189	3.96	188	-2.4	86	-4.3	656	1409	991.8	NA	0.0000		9999	5480	0	0	0
2017/11/10 14:39:00	BASE	2.67	176	3.96	188	-2.3	86	-4.3	680	1459	991.8	NA	0.0000		9999	5450	0	0	0
2017/11/10 14:40:00	BASE	2.68	174	3.96	188	-2.2	87	-4.2	770	1514	991.8	NA	0.0000		9999	5450	0	0	0
2017/11/10 14:41:00	BASE	2.39	179	3.96	188	-2.2	87	-4.1	663	1425	991.8	NA	0.0000		9999	5380	0	0	0
2017/11/10 14:42:00	BASE	2.10	177	3.96	188	-2.2	87	-4.1	647	1392	991.7	NA	0.0000		9999	5410	0	0	0
2017/11/10 14:43:00	BASE	1.93	172	3.96	188	-2.2	87	-4.1	615	1331	991.7	NA	0.0000		9999	5410	0	0	0
2017/11/10 14:44:00	BASE	1.83	176	3.96	188	-2.3	87	-4.1	953	1515	991.7	NA	0.0000		9999	5450	0	0	0
2017/11/10 14:45:00	BASE	1.88	180	3.96	188	-2.3	87	-4.1	652	1398	991.7	NA	0.0000		9999	5480	0	0	0
2017/11/10 14:46:00	BASE	1.91	174	3.24	182	-2.3	87	-4.1	663	1421	991.7	NA	0.0000		9999	5450	0	0	0
2017/11/10 14:47:00	BASE	1.90	166	3.24	182	-2.2	87	-4.0	673	1437	991.7	NA	0.0000		9999	5450	0	0	0
2017/11/10 14:48:00	BASE	1.94	165	3.09	170	-2.2	87	-4.0	800	1515	991.7	NA	0.0000		9999	5450	0	0	0
2017/11/10 14:49:00	BASE	2.11	162	2.93	178	-2.2	87	-4.0	616	1328	991.7	NA	0.0000		9999	5410	0	0	0
2017/11/10 14:50:00	BASE	2.13	172	2.93	178	-2.1	87	-3.9	605	1314	991.7	NA	0.0000		9999	5540	0	0	0
2017/11/10 14:51:00	BASE	2.10	190	2.73	146	-2.1	87	-3.9	674	1442	991.6	NA	0.0000		9999	5540	0	0	0
2017/11/10 14:52:00	BASE	1.76	193	2.73	146	-2.2	87	-4.0	702	1494	991.6	NA	0.0000		9999	5480	0	0	0
2017/11/10 14:53:00	BASE	1.55	187	2.73	146	-2.2	87	-4.1	933	1515	991.6	NA	0.0000		9999	5510	0	0	0
2017/11/10 14:54:00	BASE	2.12	182	3.50	190	-2.2	87	-4.1	917	1515	991.6	NA	0.0000		9999	5480	20340	23230	0
2017/11/10 14:55:00	BASE	3.06	187	3.91	189	-2.3	87	-4.2	874	1515	991.6	NA	0.0000		9999	5480	0	0	0
2017/11/10 14:56:00	BASE	3.70	189	4.48	190	-2.3	87	-4.2	864	1515	991.7	NA	0.0000		9999	5510	0	0	0
2017/11/10 14:57:00	BASE	3.82	190	4.53	195	-2.2	86	-4.2	853	1515	991.7	NA	0.0000		9999	5540	0	0	0
2017/11/10 14:58:00	BASE	3.82	188	4.53	195	-2.2	86	-4.3	1021	1514	991.7	NA	0.0000		9999	5540	0	0	0
2017/11/10 14:59:00	BASE	3.72	188	4.53	195	-2.3	86	-4.3	634	1367	991.7	NA	0.0000		9999	5510	0	0	0
2017/11/10 15:00:00	BASE	3.54	194	4.53	195	-2.2	86	-4.3	625	1350	991.7	NA	0.0000		9999	5510	22180	0	0
2017/11/10 15:01:00	BASE	3.30	196	4.53	195	-2.2	86	-4.2	667	1430	991.6	NA	0.0000		9999	5510	0	0	0
2017/11/10 15:02:00	BASE	3.48	197	4.53	195	-2.2	86	-4.2	700	1492	991.6	NA	0.0000		9999	5480	18410	22610	0
2017/11/10 15:03:00	BASE	3.68	199	4.53	195	-2.3	87	-4.2	630	1363	991.6	NA	0.0000		9999	5540	0	0	0
2017/11/10 15:04:00	BASE	3.65	199	4.53	195	-2.3	87	-4.2	534	1185	991.6	NA	0.0000		9999	5540	0	0	0
2017/11/10 15:05:00	BASE	3.45	199	4.53	195	-2.3	87	-4.3	547	1203	991.6	NA	0.0000		9999	5580	0	0	0
2017/11/10 15:06:00	BASE	3.08	198	4.53	195	-2.4	86	-4.3	789	1515	991.5	NA	0.0000		9999	5580	0	0	0
2017/11/10 15:07:00	BASE	3.05	193	4.42	196	-2.4	86	-4.3	793	1515	991.5	NA	0.0000		9999	5580	0	0	0
2017/11/10 15:08:00	BASE	3.33	194	4.42	196	-2.3	86	-4.3	779	1515	991.5	NA	0.0000		9999	5540	0	0	0
2017/11/10 15:09:00	BASE	3.66	196	4.42	196	-2.3	87	-4.3	774	1515	991.5	NA	0.0000		9999	0	0	0	0
2017/11/10 15:10:00	BASE	3.95	195	4.42	196	-2.3	87	-4.3	771	1514	991.5	NA	0.0000		9999	0	0	0	0
2017/11/10 15:11:00	BASE	3.91	192	4.42	196	-2.3	87	-4.3	770	1515	991.4	NA	0.0000		9999	0	0	0	0
2017/11/10 15:12:00	BASE	3.56	189	4.37	191	-2.3	86	-4.3	770	1515	991.4	NA	0.0000		9999	0	0	0	0
2017/11/10 15:13:00	BASE	3.48	191	4.37	191	-2.3	86	-4.3	768	1515	991.4	NA	0.0000		9999	0	0	0	0
2017/11/10 15:14:00	BASE	3.43	194	4.37	191	-2.4	86	-4.3	767	1515	991.4	NA	0.0000		9999	0	0	0	0
2017/11/10 15:15:00	BASE	3.16	199	4.37	191	-2.4	86	-4.4	767	1515	991.4	NA	0.0000		9999	0	0	0	0
2017/11/10 15:16:00	BASE	3.14	198	4.37	191	-2.4	86	-4.3	766	1515	991.4	NA	0.0000		9999	0	0	0	0
2017/11/10 15:17:00	BASE	3.09	194	4.37	191	-2.4	87	-4.3	765	1515	991.4	NA	0.0000		9999	0	0	0	0
2017/11/10 15:18:00	BASE	2.83	194	4.37	191	-2.4	87	-4.3	765	1515	991.3	NA	0.0000		9999	0	0	0	0
2017/11/10 15:19:00	BASE	3.01	193	4.37	191	-2.4	87	-4.3	764	1514	991.3	NA	0.0000		9999	0	0	0	0
2017/11/10 15:20:00	BASE	3.19	192	4.27	191	-2.3	87	-4.2	765	1515	991.2	NA	0.0000		9999	0	0	0	0
2017/11/10 15:21:00	BASE	3.02	188	4.12	192	-2.3	87	-4.2	766	1515	991.2	NA	0.0000		9999	0	0	0	0
2017/11/10 15:22:00	BASE	3.07	180	3.81	191	-2.3	87	-4.2	766	1514	991.2	NA	0.0000		9999	0	0	0	0
2017/11/10 15:23:00	BASE	3.27	178	3.81	191	-2.3	87	-4.2	766	1514	991.2	NA	0.0000		9999	0	0	0	0
2017/11/10 15:24:00	BASE	3.23	179	3.81	184	-2.3	87	-4.1	766	1515	991.2	NA	0.0000		9999	0	0	0	0
2017/11/10 15:25:00	BASE	3.41	177	4.12	185	-2.3	87	-4.1	765	1515	991.1	NA	0.0000		9999	0	0	0	0
2017/11/10 15:26:00	BASE	3.47	175	4.12	185	-2.3	87	-4.1	767	1515	991.0	NA	0.0000		9999	0	0	0	0
2017/11/10 15:27:00	BASE	3.59	170	4.42	168	-2.3	87	-4.1	767	1515	991.1	NA	0.0000		9999	0	0	0	0
2017/11/10 15:28:00	BASE	4.06	168	4.99	173	-2.2	87	-4.0	767	1515	991.2	NA	0.0000		9999	0	0	0	0
2017/11/10 15:29:00	BASE	4.37	173	4.99	173	-2.2	87	-4.0	768	1515	991.2	NA	0.0000		9999	0	0	0	0
2017/11/10 15:30:00	BASE	4.23	176	4.99	173	-2.2	87	-4.0	767	1515	991.1	NA	0.0000		9999	0	0	0	0
2017/11/10 15:31:00	BASE	3.73	175	4.99	173	-2.2	87	-4.0	767	1515	991.1	NA	0.0000		9999	0	0	0	0
2017/11/10 15:32:00	BASE	3.35	170	4.99	173	-2.1	87	-4.0	769	1515	991.0	NA	0.0000		9999	0	0	0	0
2017/11/10 15:33:00	BASE	3.16	163	4.99	173	-2.1	87	-4.0	768	1515	991.0	NA	0.0000		9999	0	0	0	0
2017/11/10 15:34:00	BASE	3.37	151	4.99	173	-2.1	87	-3.9	769	1515	991.0	NA	0.0000		9999	0	0	0	0
2017/11/10 15:35:00	BASE	3.80	146	4.99	173	-2.0	88	-3.7	770	1515	991.0	NA	0.0000		9999	0	0	0	0
2017/11/10 15:36:00	BASE	3.96	156	4.99	173	-1.9	88	-3.7	770	1515	991.0	NA	0.0000		9999	0	0	0	0
2017/11/10 15:37:00	BASE	3.77	168	4.99	173	-1.9	87	-3.7	771	1515	991.0	NA	0.0000		9999	0	0	0	0
2017/11/10 15:38:00	BASE	3.38	171	4.94	172	-1.9	87	-3.8	770	1515	991.0	NA	0.0000		9999	0	0	0	0
2017/11/10 15:39:00	BASE	3.28	169	4.42	162	-2.0	87	-3.9	769	1515	991.0	NA	0.0000		9999	0	0	0	0
2017/11/10 15:40:00	BASE	3.15	170	4.42	162	-2.0	86	-4.0	768	1515	991.0	NA	0.0000		9999	0	0	0	0
2017/11/10 15:41:00	BASE	3.17	180	4.42	162	-2.1	86	-4.1	768	1515	991.0	NA	0.0000		9999	0	0	0	0
2017/11/10 15:42:00	BASE	3.44	188	4.42	162	-2.1	86	-4.1	769	1515	991.0	NA	0.0000		9999	0	0	0	0
2017/11/10 15:43:00	BASE	3.39	188	4.42	162	-2.2	86	-4.2	767	1515	991.0	NA	0.0000		9999	0	0	0	0
2017/11/10 15:44:00	BASE	3.23	186	4.42	162	-2.2	86	-4.2	768	1515	991.0	NA	0.0000		9999	0	0	0	0
2017/11/10 15:45:00	BASE	3.32	190	4.42	162	-2.2	86	-4.2	769	1515	991.0	NA	0.0000		9999	0	0	0	0
2017/11/10 15:46:00	BASE	3.42	192	3.86	167	-2.3	86	-4.2	768	1515	991.0	NA	0.0000		9999	0	0	0	0
2017/11/10 15:47:00	BASE	3.64	186	4.27	178	-2.3	87	-4.2	768	1515	991.0	NA	0.0000		9999	0	0	0	0
2017/11/10 15:48:00	BASE	3.85	182	4.27	178	-2.3	87	-4.1	767	1515	991.0	NA	0.0000		9999	0	0	0	0
2017/11/10 15:49:00	BASE	3.72	187	4.27	178	-2.3	87	-4.1	769	1515	991.0	NA	0.0000		9999	0	0	0	0
2017/11/10 15:50:00	BASE	3.88	193	4.58	186	-2.3	88	-4.0	768	1515	991.0	NA	0.0000		9999	0	0	0	0
2017/11/10 15:51:00	BASE	4.24	195	4.68	194	-2.3	88	-4.0	769	1515	991.0	NA	0.0000		9999	0	0	0	0
2017/11/10 15:52:00	BASE	4.29	193	4.78	192	-2.3	88	-4.0	771	1515	991.0	NA	0.0000		9999	0	0	0	0
2017/11/10 15:53:00	BASE	4.07	190	4.78	192	-2.3	88	-4.0	772	1515	991.0	NA	0.0000		9999	0	0	0	0
2017/11/10 15:54:00	BASE	3.93	187	4.78	192	-2.3	88	-4.0	771	1515	991.0	NA	0.0000		9999	0	0	0	0
2017/11/10 15:55:00	BASE	3.64	186	4.78	192	-2.3	88	-4.0	772	1515	991.0	NA	0.0000		9999	0	0	0	0
2017/11/10 15:56:00	BASE	3.46	184	4.78	192	-2.2	88	-3.9	773	1515	991.0	NA	0.0000		9999	0	0	0	0
2017/11/10 15:57:00	BASE	3.52	178	4.78	192	-2.2	88	-3.9	773	1514	990.9	NA	0.0000		9999	0	0	0	0
2017/11/10 15:58:00	BASE	3.55	180	4.78	192	-2.2	89	-3.8	774	1515	990.9	NA	0.0000		9999	0	0	0	0
2017/11/10 15:59:00	BASE	3.53	187	4.78	192	-2.2	89	-3.8	774	1514	990.9	NA	0.0000		9999	0	0	0	0
2017/11/10 16:00:00	BASE	3.39	186	4.78	192	-2.2	89	-3.7	772	1515	990.9	NA	0.0000		9999	0	0	0	0
2017/11/10 16:01:00	BASE	2.87	182	4.78	192	-2.2	89	-3.8	772	1515	990.9	NA	0.0000		9999	0	0	0	0
2017/11/10 16:02:00	BASE	2.37	178	4.42	189	-2.2	89	-3.8	772	1515	990.9	NA	0.0000		9999	0	0	0	0
2017/11/10 16:03:00	BASE	2.41	173	4.42	189	-2.2	89	-3.8	772	1515	990.9	NA	0.0000		9999	0	0	0	0
2017/11/10 16:04:00	BASE	2.43	175	4.12	176	-2.2	89	-3.8	772	1515	990.8	NA	0.0000		9999	0	0	0	0
2017/11/10 16:05:00	BASE	2.27	168	4.12	176	-2.2	89	-3.8	772	1515	990.8	NA	0.0000		9999	0	0	0	0
2017/11/10 16:06:00	BASE	2.43	159	4.12	176	-2.1	89	-3.6	772	1515	990.7	NA	0.0000		9999	0	0	0	0
2017/11/10 16:07:00	BASE	2.57	157	4.06	192	-2.1	89	-3.6	772	1515	990.7	NA	0.0000		9999	0	0	0	0
2017/11/10 16:08:00	BASE	2.30	154	4.06	192	-2.1	89	-3.6	772	1515	990.7	NA	0.0000		9999	0	0	0	0
2017/11/10 16:09:00	BASE	2.06	152	3.45	184	-2.1	89	-3.7	771	1515	990.6	NA	0.0000		9999	0	0	0	0
2017/11/10 16:10:00	BASE	2.03	155	2.98	183	-2.2	89	-3.8	772	1515	990.5	NA	0.0000		9999	0	0	0	0
2017/11/10 16:11:00	BASE	2.10	156	2.83	150	-2.2	88	-3.9	771	1515	990.5	NA	0.0000		9999	0	0	0	0
2017/11/10 16:12:00	BASE	2.21	162	2.83	150	-2.2	88	-3.9	771	1515	990.4	NA	0.0000		9999	0	0	0	0
2017/11/10 16:13:00	BASE	2.18	162	2.83	150	-2.1	88	-3.9	770	1515	990.4	NA	0.0000		9999	0	0	0	0
2017/11/10 16:14:00	BASE	1.93	153	2.83	150	-2.1	88	-3.9	770	1515	990.4	NA	0.0000		9999	0	0	0	0
2017/11/10 16:15:00	BASE	1.83	151	2.83	150	-2.1	88	-3.9	770	1515	990.4	NA	0.0000		9999	0	0	0	0
2017/11/10 16:16:00	BASE	1.78	156	2.73	161	-2.1	87	-4.0	770	1515	990.4	NA	0.0000		9999	0	0	0	0
2017/11/10 16:17:00	BASE	1.47	157	2.73	161	-2.2	87	-4.0	770	1515	990.4	NA	0.0000		9999	0	0	0	0
2017/11/10 16:18:00	BASE	1.14	155	2.73	161	-2.2	87	-4.1	769	1515	990.4	NA	0.0000		9999	0	0	0	0
2017/11/10 16:19:00	BASE	1.43	166	2.73	161	-2.2	87	-4.1	770	1515	990.4	NA	0.0000		9999	0	0	0	0
2017/11/10 16:20:00	BASE	1.56	162	2.73	161	-2.2	87	-4.1	770	1515	990.4	NA	0.0000		9999	0	0	0	0
2017/11/10 16:21:00	BASE	1.12	157	2.73	161	-2.1	87	-4.0	771	1515	990.4	NA	0.0000		9999	0	0	0	0
2017/11/10 16:22:00	BASE	1.17	167	2.52	156	-2.1	87	-4.0	771	1515	990.4	NA	0.0000		9999	0	0	0	0
2017/11/10 16:23:00	BASE	1.51	179	2.21	168	-2.1	87	-4.0	770	1515	990.4	NA	0.0000		9999	0	0	0	0
2017/11/10 16:24:00	BASE	1.73	194	2.21	168	-2.2	87	-4.0	770	1515	990.3	NA	0.0000		9999	0	0	0	0
2017/11/10 16:25:00	BASE	1.69	197	2.21	168	-2.2	87	-4.1	769	1515	990.3	NA	0.0000		9999	0	0	0	0
2017/11/10 16:26:00	BASE	1.51	196	2.21	168	-2.3	87	-4.1	769	1515	990.3	NA	0.0000		9999	0	0	0	0
2017/11/10 16:27:00	BASE	1.59	201	2.21	168	-2.3	87	-4.2	768	1515	990.3	NA	0.0000		9999	0	0	0	0
2017/11/10 16:28:00	BASE	1.81	204	2.31	198	-2.3	87	-4.2	767	1515	990.3	NA	0.0000		9999	0	0	0	0
2017/11/10 16:29:00	BASE	2.07	202	2.31	195	-2.3	87	-4.2	768	1515	990.3	NA	0.0000		9999	0	0	0	0
2017/11/10 16:30:00	BASE	2.28	198	2.57	188	-2.3	87	-4.1	768	1515	990.2	NA	0.0000		9999	0	0	0	0
2017/11/10 16:31:00	BASE	2.26	191	2.57	189	-2.3	88	-4.1	767	1515	990.2	NA	0.0000		9999	0	0	0	0
2017/11/10 16:32:00	BASE	2.18	188	2.57	189	-2.3	88	-4.0	766	1515	990.3	NA	0.0000		9999	0	0	0	0
2017/11/10 16:33:00	BASE	2.25	191	2.73	193	-2.2	88	-4.0	765	1515	990.3	NA	0.0000		9999	0	0	0	0
2017/11/10 16:34:00	BASE	2.36	196	2.73	193	-2.2	88	-4.0	765	1515	990.3	NA	0.0000		9999	0	0	0	0
2017/11/10 16:35:00	BASE	2.22	200	2.73	193	-2.3	88	-4.0	764	1514	990.2	NA	0.0000		9999	0	0	0	0
2017/11/10 16:36:00	BASE	2.23	200	2.83	197	-2.3	88	-4.0	763	1515	990.3	NA	0.0000		9999	0	0	0	0
2017/11/10 16:37:00	BASE	2.56	199	2.98	195	-2.3	88	-4.0	763	1515	990.3	NA	0.0000		9999	0	0	0	0
2017/11/10 16:38:00	BASE	2.71	197	2.98	195	-2.3	88	-4.0	762	1515	990.3	NA	0.0000		9999	0	0	0	0
2017/11/10 16:39:00	BASE	2.88	205	3.65	218	-2.3	88	-4.0	762	1515	990.3	NA	0.0000		9999	0	0	0	0
2017/11/10 16:40:00	BASE	3.20	212	3.76	214	-2.2	88	-4.0	761	1515	990.3	NA	0.0000		9999	0	0	0	0
2017/11/10 16:41:00	BASE	3.26	211	3.76	214	-2.2	88	-4.0	761	1514	990.3	NA	0.0000		9999	0	0	0	0
2017/11/10 16:42:00	BASE	3.53	216	4.22	218	-2.2	88	-3.9	761	1515	990.3	NA	0.0000		9999	0	0	0	0
2017/11/10 16:43:00	BASE	3.69	216	4.22	218	-2.2	88	-3.9	761	1515	990.3	NA	0.0000		9999	0	0	0	0
2017/11/10 16:44:00	BASE	3.51	212	4.22	218	-2.2	88	-3.8	760	1515	990.3	NA	0.0000		9999	0	0	0	0
2017/11/10 16:45:00	BASE	3.50	213	4.22	218	-2.1	89	-3.7	766	1515	990.4	NA	0.0000		9999	0	0	0	0
2017/11/10 16:46:00	BASE	3.69	214	4.32	220	-2.1	89	-3.7	805	1515	990.4	NA	0.0000		9999	0	0	0	0
2017/11/10 16:47:00	BASE	3.94	212	4.42	216	-2.0	89	-3.6	650	1408	990.3	NA	0.0000		9999	1480	0	0	0
2017/11/10 16:48:00	BASE	3.72	210	4.42	216	-2.0	89	-3.6	766	1515	990.3	NA	0.0000		9999	0	0	0	0
2017/11/10 16:49:00	BASE	3.83	211	4.58	210	-2.1	89	-3.6	780	1515	990.3	NA	0.0000		9999	0	0	0	0
2017/11/10 16:50:00	BASE	4.08	207	4.58	210	-2.1	89	-3.7	767	1515	990.2	NA	0.0000		9999	0	0	0	0
2017/11/10 16:51:00	BASE	3.91	202	4.58	210	-2.2	89	-3.7	763	1514	990.3	NA	0.0000		9999	0	0	0	0
2017/11/10 16:52:00	BASE	3.72	208	4.58	210	-2.2	89	-3.8	763	1515	990.2	NA	0.0000		9999	0	0	0	0
2017/11/10 16:53:00	BASE	3.57	211	4.58	210	-2.2	89	-3.8	759	1514	990.2	NA	0.0000		9999	0	0	0	0
2017/11/10 16:54:00	BASE	3.50	208	4.58	210	-2.2	89	-3.8	760	1515	990.2	NA	0.0000		9999	0	0	0	0
2017/11/10 16:55:00	BASE	3.28	207	4.58	210	-2.2	89	-3.8	759	1515	990.1	NA	0.0000		9999	0	0	0	0
2017/11/10 16:56:00	BASE	3.20	206	4.58	210	-2.2	89	-3.8	758	1515	990.1	NA	0.0000		9999	0	0	0	0
2017/11/10 16:57:00	BASE	3.60	208	4.58	210	-2.2	89	-3.8	759	1515	990.1	NA	0.0000		9999	0	0	0	0
2017/11/10 16:58:00	BASE	3.83	212	4.58	210	-2.2	89	-3.8	762	1514	990.1	NA	0.0000		9999	0	0	0	0
2017/11/10 16:59:00	BASE	3.66	212	4.48	197	-2.2	89	-3.7	767	1515	990.1	NA	0.0000		9999	0	0	0	0
2017/11/10 17:00:00	BASE	3.55	215	4.42	201	-2.1	89	-3.7	772	1514	990.1	NA	0.0000		9999	0	0	0	0
2017/11/10 17:01:00	BASE	3.76	222	4.32	229	-2.1	89	-3.6	770	1515	990.1	NA	0.0000		9999	0	0	0	0
2017/11/10 17:02:00	BASE	3.95	222	4.32	229	-2.0	90	-3.5	768	1515	990.1	NA	0.0000		9999	0	0	0	0
2017/11/10 17:03:00	BASE	3.64	220	4.32	229	-2.0	90	-3.5	763	1514	990.1	NA	0.0000		9999	1410	0	0	0
2017/11/10 17:04:00	BASE	3.14	218	4.32	229	-2.0	90	-3.5	761	1515	990.1	NA	0.0000		9999	0	0	0	0
2017/11/10 17:05:00	BASE	2.86	215	4.32	229	-2.1	90	-3.5	760	1515	990.1	NA	0.0000		9999	0	0	0	0
2017/11/10 17:06:00	BASE	3.01	214	4.32	229	-2.1	90	-3.5	765	1515	990.1	NA	0.0000		9999	0	0	0	0
2017/11/10 17:07:00	BASE	3.62	213	4.32	229	-2.1	90	-3.5	529	1187	990.0	NA	0.0000		9999	0	0	0	0
2017/11/10 17:08:00	BASE	3.63	217	4.32	229	-2.1	90	-3.5	793	1515	989.9	NA	0.0000		9999	1380	0	0	0
2017/11/10 17:09:00	BASE	3.71	214	4.78	212	-2.1	90	-3.5	789	1515	989.9	NA	0.0000		9999	0	0	0	0
2017/11/10 17:10:00	BASE	4.24	211	4.99	212	-2.1	90	-3.5	795	1514	989.9	NA	0.0000		9999	0	0	0	0
2017/11/10 17:11:00	BASE	4.26	216	4.99	212	-2.1	90	-3.5	681	1450	989.8	NA	0.0000		9999	0	0	0	0
2017/11/10 17:12:00	BASE	4.04	215	4.99	212	-2.1	90	-3.5	801	1515	989.8	NA	0.0000		9999	0	0	0	0
2017/11/10 17:13:00	BASE	4.16	214	4.99	212	-2.1	90	-3.5	782	1515	989.8	NA	0.0000		9999	0	0	0	0
2017/11/10 17:14:00	BASE	3.96	217	4.99	212	-2.1	90	-3.5	769	1515	989.8	NA	0.0000		9999	0	0	0	0
2017/11/10 17:15:00	BASE	3.69	219	4.99	212	-2.1	90	-3.5	761	1514	989.8	NA	0.0000		9999	0	0	0	0
2017/11/10 17:16:00	BASE	3.98	219	4.99	212	-2.1	90	-3.5	756	1515	989.8	NA	0.0000		9999	0	0	0	0
2017/11/10 17:17:00	BASE	3.94	217	4.99	212	-2.1	90	-3.5	759	1515	989.8	NA	0.0000		9999	0	0	0	0
2017/11/10 17:18:00	BASE	3.62	211	4.99	212	-2.1	90	-3.5	760	1515	989.8	NA	0.0000		9999	0	0	0	0
2017/11/10 17:19:00	BASE	3.79	208	4.99	212	-2.1	90	-3.5	757	1515	989.8	NA	0.0000		9999	0	0	0	0
2017/11/10 17:20:00	BASE	4.07	206	4.94	209	-2.1	90	-3.5	755	1514	989.8	NA	0.0000		9999	0	0	0	0
2017/11/10 17:21:00	BASE	3.70	208	4.94	209	-2.1	90	-3.5	771	1515	989.8	NA	0.0000		9999	0	0	0	0
2017/11/10 17:22:00	BASE	3.20	210	4.78	210	-2.1	90	-3.5	579	1262	989.8	NA	0.0000		9999	0	0	0	0
2017/11/10 17:23:00	BASE	3.76	212	4.89	214	-2.1	90	-3.5	765	1515	989.8	NA	0.0000		9999	0	0	0	0
2017/11/10 17:24:00	BASE	4.54	212	4.99	208	-2.1	90	-3.5	752	1515	989.7	NA	0.0000		9999	0	0	0	0
2017/11/10 17:25:00	BASE	4.40	209	4.99	208	-2.1	90	-3.5	745	1515	989.7	NA	0.0000		9999	0	0	0	0
2017/11/10 17:26:00	BASE	4.20	209	4.99	208	-2.1	90	-3.6	741	1515	989.7	NA	0.0000		9999	0	0	0	0
2017/11/10 17:27:00	BASE	4.22	210	4.99	208	-2.1	90	-3.6	738	1514	989.7	NA	0.0000		9999	0	0	0	0
2017/11/10 17:28:00	BASE	4.23	212	4.99	208	-2.1	90	-3.6	734	1515	989.7	NA	0.0000		9999	0	0	0	0
2017/11/10 17:29:00	BASE	4.50	211	4.99	208	-2.2	90	-3.6	732	1515	989.6	NA	0.0000		9999	0	0	0	0
2017/11/10 17:30:00	BASE	4.55	209	4.99	208	-2.2	90	-3.6	733	1515	989.6	NA	0.0000		9999	0	0	0	0
2017/11/10 17:31:00	BASE	4.44	209	4.99	208	-2.1	90	-3.6	733	1515	989.6	NA	0.0000		9999	0	0	0	0
2017/11/10 17:32:00	BASE	4.41	211	4.99	208	-2.2	89	-3.7	735	1515	989.6	NA	0.0000		9999	0	0	0	0
2017/11/10 17:33:00	BASE	4.20	207	4.99	208	-2.2	89	-3.7	733	1514	989.6	NA	0.0000		9999	0	0	0	0
2017/11/10 17:34:00	BASE	3.91	200	4.94	211	-2.2	89	-3.7	731	1515	989.6	NA	0.0000		9999	0	0	0	0
2017/11/10 17:35:00	BASE	3.72	196	4.94	211	-2.1	89	-3.7	729	1515	989.6	NA	0.0000		9999	0	0	0	0
2017/11/10 17:36:00	BASE	3.95	196	4.94	211	-2.1	89	-3.7	728	1515	989.6	NA	0.0000		9999	0	0	0	0
2017/11/10 17:37:00	BASE	3.94	195	4.94	211	-2.1	89	-3.7	725	1514	989.6	NA	0.0000		9999	0	0	0	0
2017/11/10 17:38:00	BASE	3.84	194	4.94	211	-2.1	89	-3.7	723	1515	989.6	NA	0.0000		9999	0	0	0	0
2017/11/10 17:39:00	BASE	4.13	196	4.94	211	-2.1	89	-3.7	721	1515	989.5	NA	0.0000		9999	0	0	0	0
2017/11/10 17:40:00	BASE	4.51	200	5.25	202	-2.2	89	-3.8	720	1514	989.6	NA	0.0000		9999	0	0	0	0
2017/11/10 17:41:00	BASE	4.78	203	5.30	203	-2.1	89	-3.7	720	1515	989.6	NA	0.0000		9999	0	0	0	0
2017/11/10 17:42:00	BASE	4.52	205	5.30	203	-2.1	89	-3.7	720	1515	989.6	NA	0.0000		9999	0	0	0	0
2017/11/10 17:43:00	BASE	4.47	209	5.30	203	-2.2	89	-3.8	724	1514	989.6	NA	0.0000		9999	0	0	0	0
2017/11/10 17:44:00	BASE	4.67	211	5.30	203	-2.1	89	-3.7	725	1515	989.6	NA	0.0000		9999	0	0	0	0
2017/11/10 17:45:00	BASE	4.43	210	5.30	203	-2.1	89	-3.7	725	1515	989.6	NA	0.0000		9999	0	0	0	0
2017/11/10 17:46:00	BASE	4.22	215	5.30	203	-2.1	89	-3.7	727	1515	989.6	NA	0.0000		9999	0	0	0	0
2017/11/10 17:47:00	BASE	4.28	219	5.30	203	-2.0	89	-3.6	751	1514	989.6	NA	0.0000		9999	0	0	0	0
2017/11/10 17:48:00	BASE	4.13	217	5.30	203	-2.0	90	-3.5	723	1515	989.6	NA	0.0000		9999	0	0	0	0
2017/11/10 17:49:00	BASE	4.12	213	5.30	203	-2.0	90	-3.4	717	1514	989.6	NA	0.0000		9999	0	0	0	0
2017/11/10 17:50:00	BASE	4.52	211	5.30	203	-1.9	90	-3.3	715	1508	989.6	NA	0.0000		9999	0	0	0	0
2017/11/10 17:51:00	BASE	4.42	210	5.04	218	-1.9	90	-3.3	713	1505	989.5	NA	0.0000		9999	0	0	0	0
2017/11/10 17:52:00	BASE	4.11	210	5.04	218	-2.0	90	-3.4	711	1500	989.5	NA	0.0000		9999	0	0	0	0
2017/11/10 17:53:00	BASE	4.12	205	4.99	211	-2.0	90	-3.4	710	1499	989.5	NA	0.0000		9999	0	0	0	0
2017/11/10 17:54:00	BASE	4.26	201	4.99	211	-2.0	91	-3.4	710	1498	989.5	NA	0.0000		9999	0	0	0	0
2017/11/10 17:55:00	BASE	4.49	203	4.99	201	-2.1	91	-3.4	709	1495	989.5	NA	0.0000		9999	0	0	0	0
2017/11/10 17:56:00	BASE	4.55	204	4.99	201	-2.1	91	-3.4	707	1492	989.5	NA	0.0000		9999	0	0	0	0
2017/11/10 17:57:00	BASE	4.74	203	5.35	203	-2.1	91	-3.4	707	1490	989.4	NA	0.0000		9999	0	0	0	0
2017/11/10 17:58:00	BASE	4.98	204	5.35	203	-2.1	91	-3.4	705	1487	989.4	NA	0.0000		9999	0	0	0	0
2017/11/10 17:59:00	BASE	4.85	208	5.35	203	-2.2	91	-3.4	704	1486	989.4	NA	0.0000		9999	0	0	0	0
2017/11/10 18:00:00	BASE	4.76	204	5.40	193	-2.2	91	-3.5	704	1485	989.4	NA	0.0000		9999	0	0	0	0
2017/11/10 18:01:00	BASE	5.42	201	6.58	209	-2.2	91	-3.5	705	1486	989.4	NA	0.0000		9999	0	0	0	0
2017/11/10 18:02:00	BASE	5.63	206	6.58	209	-2.2	91	-3.5	705	1487	989.4	NA	0.0000		9999	0	0	0	0
2017/11/10 18:03:00	BASE	5.36	206	6.58	209	-2.2	91	-3.5	704	1486	989.4	NA	0.0000		9999	0	0	0	0
2017/11/10 18:04:00	BASE	5.41	205	6.58	209	-2.2	90	-3.6	704	1485	989.4	NA	0.0000		9999	1380	0	0	0
2017/11/10 18:05:00	BASE	5.28	207	6.58	209	-2.2	90	-3.6	702	1480	989.4	NA	0.0000		9999	0	0	0	0
2017/11/10 18:06:00	BASE	5.22	205	6.58	209	-2.2	90	-3.6	700	1478	989.3	NA	0.0000		9999	0	0	0	0
2017/11/10 18:07:00	BASE	5.46	204	6.58	209	-2.2	90	-3.6	701	1479	989.3	NA	0.0000		9999	0	0	0	0
2017/11/10 18:08:00	BASE	5.18	202	6.58	209	-2.2	90	-3.6	701	1480	989.4	NA	0.0000		9999	0	0	0	0
2017/11/10 18:09:00	BASE	4.51	199	6.58	209	-2.2	90	-3.6	700	1476	989.4	NA	0.0000		9999	0	0	0	0
2017/11/10 18:10:00	BASE	4.19	198	6.58	209	-2.2	90	-3.6	698	1473	989.3	NA	0.0000		9999	0	0	0	0
2017/11/10 18:11:00	BASE	4.01	194	6.22	210	-2.2	90	-3.6	703	1481	989.3	NA	0.0000		9999	0	0	0	0
2017/11/10 18:12:00	BASE	4.04	194	6.22	210	-2.2	90	-3.6	709	1490	989.3	NA	0.0000		9999	0	0	0	0
2017/11/10 18:13:00	BASE	4.17	191	6.22	210	-2.2	90	-3.6	705	1483	989.3	NA	0.0000		9999	0	0	0	0
2017/11/10 18:14:00	BASE	4.14	186	6.22	210	-2.1	91	-3.5	719	1510	989.3	NA	0.0000		9999	0	0	0	0
2017/11/10 18:15:00	BASE	4.14	183	6.22	210	-2.1	91	-3.4	744	1515	989.3	NA	0.0000		9999	1380	0	0	0
2017/11/10 18:16:00	BASE	4.60	184	6.22	210	-2.0	91	-3.3	776	1515	989.2	NA	0.0000		9999	1410	0	0	0
2017/11/10 18:17:00	BASE	5.08	187	5.76	191	-2.0	91	-3.3	761	1515	989.2	NA	0.0000		9999	5350	0	0	0
2017/11/10 18:18:00	BASE	5.02	190	5.76	191	-2.0	91	-3.3	668	1419	989.2	NA	0.0000		9999	0	0	0	0
2017/11/10 18:19:00	BASE	4.96	193	5.76	191	-2.1	91	-3.4	463	1045	989.2	NA	0.0000		9999	0	0	0	0
2017/11/10 18:20:00	BASE	4.88	199	5.76	191	-2.1	91	-3.4	386	898	989.2	NA	0.0000		9999	5280	0	0	0
2017/11/10 18:21:00	BASE	4.59	202	5.76	191	-2.1	91	-3.4	250	612	989.2	NA	0.0000		9999	5280	0	0	0
2017/11/10 18:22:00	BASE	4.57	201	5.76	191	-2.1	91	-3.4	775	1515	989.2	NA	0.0000		9999	5320	0	0	0
2017/11/10 18:23:00	BASE	4.66	197	5.76	191	-2.1	91	-3.4	454	1035	989.2	NA	0.0000		9999	1540	0	0	0
2017/11/10 18:24:00	BASE	4.67	193	5.76	191	-2.1	91	-3.4	568	1246	989.2	NA	0.0000		9999	5350	0	0	0
2017/11/10 18:25:00	BASE	4.35	191	5.76	191	-2.1	91	-3.4	529	1170	989.2	NA	0.0000		9999	1380	0	0	0
2017/11/10 18:26:00	BASE	3.93	182	5.71	187	-2.1	91	-3.4	773	1515	989.2	NA	0.0000		9999	1380	5320	19260	0
2017/11/10 18:27:00	BASE	3.86	177	5.56	195	-2.1	91	-3.3	639	1367	989.2	NA	0.0000		9999	1410	5250	0	0
2017/11/10 18:28:00	BASE	3.82	187	5.56	195	-2.1	92	-3.3	657	1402	989.1	NA	0.0000		9999	1380	5320	0	0
2017/11/10 18:29:00	BASE	3.65	199	5.04	196	-2.1	92	-3.2	639	1366	989.1	NA	0.0000		9999	1280	5280	0	0
2017/11/10 18:30:00	BASE	3.55	201	5.04	196	-2.0	92	-3.2	689	1462	989.1	NA	0.0000		9999	1210	0	0	0
2017/11/10 18:31:00	BASE	3.59	196	5.04	196	-2.0	92	-3.2	655	1398	989.1	NA	0.0000		9999	5220	0	0	0
2017/11/10 18:32:00	BASE	3.58	196	5.04	196	-2.0	92	-3.1	685	1460	989.1	NA	0.0000		9999	1380	5280	0	0
2017/11/10 18:33:00	BASE	3.66	201	4.99	193	-2.0	92	-3.1	732	1515	989.1	NA	0.0000		9999	1280	0	0	0
2017/11/10 18:34:00	BASE	3.86	205	4.48	194	-2.0	92	-3.1	693	1484	989.1	NA	0.0000		9999	1280	0	0	0
2017/11/10 18:35:00	BASE	4.09	205	4.68	204	-2.0	92	-3.1	630	1366	989.1	NA	0.0000		9999	1280	5280	0	0
2017/11/10 18:36:00	BASE	4.18	205	4.68	204	-2.0	92	-3.1	572	1254	989.1	NA	0.0000		9999	1210	5180	0	0
2017/11/10 18:37:00	BASE	4.26	202	4.73	209	-2.0	93	-3.1	545	1205	989.1	NA	0.0000		9999	1310	5220	0	0
2017/11/10 18:38:00	BASE	4.09	194	4.73	209	-2.0	93	-3.1	539	1180	989.1	NA	0.0000		9999	1250	5120	23490	0
2017/11/10 18:39:00	BASE	3.99	193	4.73	209	-2.0	93	-3.1	458	1020	989.1	NA	0.0000		9999	1310	0	0	0
2017/11/10 18:40:00	BASE	4.43	196	4.94	198	-2.1	92	-3.2	463	1038	989.1	NA	0.0000		9999	5220	0	0	0
2017/11/10 18:41:00	BASE	4.65	195	5.14	199	-2.1	92	-3.2	543	1201	989.1	NA	0.0000		9999	1480	5180	0	0
2017/11/10 18:42:00	BASE	4.79	197	5.56	195	-2.1	92	-3.3	497	1103	989.1	NA	0.0000		9999	1280	0	0	0
2017/11/10 18:43:00	BASE	4.42	199	5.56	195	-2.2	92	-3.3	503	1106	989.1	NA	0.0000		9999	1310	5250	0	0
2017/11/10 18:44:00	BASE	4.03	199	5.56	195	-2.2	92	-3.3	481	1068	989.1	NA	0.0000		9999	1250	5220	0	0
2017/11/10 18:45:00	BASE	3.88	203	5.56	195	-2.1	92	-3.2	438	985	989.0	NA	0.0000		9999	1210	0	0	0
2017/11/10 18:46:00	BASE	4.13	208	5.56	195	-2.1	92	-3.2	579	1259	989.0	NA	0.0000		9999	1250	5220	0	0
2017/11/10 18:47:00	BASE	4.76	206	5.56	195	-2.1	93	-3.2	585	1269	989.0	NA	0.0000		9999	1250	5220	0	0
2017/11/10 18:48:00	BASE	5.07	204	5.56	195	-2.1	93	-3.1	563	1224	989.0	NA	0.0000		9999	1280	5120	0	0
2017/11/10 18:49:00	BASE	5.01	203	5.56	195	-2.1	93	-3.1	550	1198	989.0	NA	0.0000		9999	5050	0	0	0
2017/11/10 18:50:00	BASE	4.42	202	5.56	195	-2.1	93	-3.2	836	1515	989.0	NA	0.0000		9999	1350	5020	0	0
2017/11/10 18:51:00	BASE	4.26	202	5.56	195	-2.1	93	-3.2	453	1010	988.9	NA	0.0000		9999	5020	0	0	0
2017/11/10 18:52:00	BASE	4.55	202	5.50	203	-2.2	92	-3.2	468	1040	989.0	NA	0.0000		9999	5090	0	0	0
2017/11/10 18:53:00	BASE	4.80	201	5.50	203	-2.2	92	-3.3	460	1021	989.0	NA	0.0000		9999	5050	0	0	0
2017/11/10 18:54:00	BASE	5.08	198	5.61	198	-2.2	92	-3.2	511	1114	988.9	NA	0.0000		9999	1380	4990	0	0
2017/11/10 18:55:00	BASE	5.09	202	5.81	210	-2.1	92	-3.2	537	1169	989.0	NA	0.0000		9999	4920	20150	0	0
2017/11/10 18:56:00	BASE	5.15	205	5.81	210	-2.1	92	-3.3	612	1318	988.9	NA	0.0000		9999	4860	22210	23070	0
2017/11/10 18:57:00	BASE	5.39	203	5.86	202	-2.1	92	-3.3	501	1098	988.9	NA	0.0000		9999	4920	0	0	0
2017/11/10 18:58:00	BASE	5.29	204	5.86	202	-2.1	92	-3.3	487	1073	988.9	NA	0.0000		9999	4920	0	0	0
2017/11/10 18:59:00	BASE	4.79	208	5.86	202	-2.1	92	-3.3	492	1084	988.9	NA	0.0000		9999	4920	0	0	0
2017/11/10 19:00:00	BASE	4.24	212	5.86	202	-2.2	91	-3.4	506	1115	988.9	NA	0.0000		9999	4950	0	0	0
2017/11/10 19:01:00	BASE	3.68	214	5.86	202	-2.2	91	-3.4	466	1034	988.9	NA	0.0000		9999	4890	0	0	0
2017/11/10 19:02:00	BASE	3.58	218	5.86	202	-2.1	91	-3.3	460	1013	988.9	NA	0.0000		9999	4920	22280	0	0
2017/11/10 19:03:00	BASE	3.94	218	5.86	202	-2.0	91	-3.2	493	1085	988.9	NA	0.0000		9999	1410	4990	0	0
2017/11/10 19:04:00	BASE	4.24	216	5.86	202	-1.9	91	-3.2	501	1099	988.9	NA	0.0000		9999	4920	0	0	0
2017/11/10 19:05:00	BASE	4.34	218	5.86	202	-1.9	91	-3.1	444	984	988.9	NA	0.0000		9999	4820	0	0	0
2017/11/10 19:06:00	BASE	4.33	219	5.86	202	-1.9	91	-3.1	434	964	988.9	NA	0.0000		9999	4720	0	0	0
2017/11/10 19:07:00	BASE	4.32	219	5.66	207	-1.9	91	-3.2	453	1002	988.8	NA	0.0000		9999	4820	0	0	0
2017/11/10 19:08:00	BASE	4.23	221	5.09	215	-2.0	91	-3.2	510	1112	988.7	NA	0.0000		9999	4760	0	0	0
2017/11/10 19:09:00	BASE	4.72	223	6.02	221	-2.0	91	-3.2	466	1025	988.7	NA	0.0000		9999	4720	0	0	0
2017/11/10 19:10:00	BASE	5.06	224	6.02	221	-1.9	91	-3.2	454	1002	988.7	NA	0.0000		9999	4790	0	0	0
2017/11/10 19:11:00	BASE	5.24	222	6.02	221	-1.9	91	-3.2	483	1063	988.7	NA	0.0000		9999	4790	0	0	0
2017/11/10 19:12:00	BASE	5.50	221	6.02	221	-1.8	91	-3.1	440	975	988.7	NA	0.0000		9999	4690	0	0	0
2017/11/10 19:13:00	BASE	5.21	219	6.02	221	-1.8	91	-3.0	425	946	988.7	NA	0.0000		9999	4630	0	0	0
2017/11/10 19:14:00	BASE	4.86	217	6.02	221	-1.8	91	-3.0	426	951	988.7	NA	0.0000		9999	4660	22800	0	0
2017/11/10 19:15:00	BASE	4.62	218	6.02	221	-1.8	91	-3.0	426	952	988.7	NA	0.0000		9999	4860	0	0	0
2017/11/10 19:16:00	BASE	4.57	219	6.02	221	-1.8	91	-3.0	409	912	988.7	NA	0.0000		9999	4790	0	0	0
2017/11/10 19:17:00	BASE	4.84	222	6.02	221	-1.8	91	-3.0	386	865	988.7	NA	0.0000		9999	4660	0	0	0
2017/11/10 19:18:00	BASE	4.76	219	6.02	221	-1.8	92	-3.0	381	858	988.7	NA	0.0000		9999	4590	0	0	0
2017/11/10 19:19:00	BASE	4.55	216	6.02	221	-1.8	92	-3.0	374	843	988.7	NA	0.0000		9999	4720	0	0	0
2017/11/10 19:20:00	BASE	4.93	221	6.02	221	-1.8	92	-2.9	371	835	988.7	NA	0.0000		9999	4630	0	0	0
2017/11/10 19:21:00	BASE	5.33	220	6.22	212	-1.8	92	-3.0	374	844	988.7	NA	0.0000		9999	4720	0	0	0
2017/11/10 19:22:00	BASE	5.51	212	6.38	209	-1.9	92	-3.0	370	834	988.7	NA	0.0000		9999	4590	0	0	0
2017/11/10 19:23:00	BASE	5.65	206	6.79	199	-1.9	92	-3.0	373	839	988.7	NA	0.0000		9999	4630	0	0	0
2017/11/10 19:24:00	BASE	5.96	207	6.84	209	-2.0	92	-3.1	394	886	988.7	NA	0.0000		9999	4720	0	0	0
2017/11/10 19:25:00	BASE	6.24	211	6.84	209	-2.0	92	-3.1	372	837	988.7	NA	0.0000		9999	4660	0	0	0
2017/11/10 19:26:00	BASE	6.35	215	7.15	223	-2.0	92	-3.2	366	826	988.6	NA	0.0000		9999	4560	0	0	0
2017/11/10 19:27:00	BASE	6.25	216	7.15	223	-2.0	91	-3.2	359	812	988.6	NA	0.0000		9999	4560	23430	0	0
2017/11/10 19:28:00	BASE	5.95	213	7.15	223	-2.0	91	-3.2	361	814	988.5	NA	0.0000		9999	4560	0	0	0
2017/11/10 19:29:01	BASE	5.71	215	7.15	223	-1.9	91	-3.2	352	796	988.5	NA	0.0000		9999	4560	0	0	0
2017/11/10 19:30:00	BASE	5.60	219	7.15	223	-1.9	91	-3.1	345	782	988.5	NA	0.0000		9999	4660	0	0	0
2017/11/10 19:31:00	BASE	5.74	219	7.15	220	-1.9	92	-3.1	339	768	988.5	NA	0.0000		9999	4560	0	0	0
2017/11/10 19:32:00	BASE	5.89	220	7.15	220	-1.8	92	-3.0	341	771	988.5	NA	0.0000		9999	4560	0	0	0
2017/11/10 19:33:00	BASE	6.35	222	7.56	220	-1.8	92	-3.0	344	777	988.5	NA	0.0000		9999	4590	0	0	0
2017/11/10 19:34:00	BASE	6.50	221	7.56	220	-1.8	92	-3.0	345	780	988.5	NA	0.0000		9999	4530	0	0	0
2017/11/10 19:35:00	BASE	6.11	219	7.56	220	-1.8	92	-3.0	343	775	988.4	NA	0.0000		9999	4630	0	0	0
2017/11/10 19:36:00	BASE	5.86	218	7.56	220	-1.8	92	-3.0	331	749	988.4	NA	0.0000		9999	4590	0	0	0
2017/11/10 19:37:00	BASE	5.77	218	7.56	220	-1.9	92	-3.0	327	740	988.4	NA	0.0000		9999	4590	0	0	0
2017/11/10 19:38:00	BASE	5.33	219	7.56	220	-1.9	92	-3.0	320	727	988.4	NA	0.0000		9999	4530	24210	0	0
2017/11/10 19:39:00	BASE	5.56	217	7.56	220	-1.9	92	-2.9	312	710	988.4	NA	0.0000		9999	4530	0	0	0
2017/11/10 19:40:00	BASE	5.99	217	7.56	220	-1.9	92	-2.9	308	701	988.4	NA	0.0000		9999	4460	0	0	0
2017/11/10 19:41:00	BASE	5.47	219	7.56	220	-1.8	93	-2.9	311	708	988.4	NA	0.0000		9999	4530	0	0	0
2017/11/10 19:42:00	BASE	5.28	218	7.56	220	-1.8	93	-2.8	312	710	988.3	NA	0.0000		9999	4400	0	0	0
2017/11/10 19:43:00	BASE	6.09	216	8.18	214	-1.8	93	-2.8	309	704	988.3	NA	0.0000		9999	4460	0	0	0
2017/11/10 19:44:00	BASE	6.93	214	8.18	214	-1.8	93	-2.8	313	711	988.3	NA	0.0000		9999	4460	0	0	0
2017/11/10 19:45:00	BASE	6.58	214	8.18	214	-1.8	93	-2.8	317	719	988.3	NA	0.0000		9999	4430	0	0	0
2017/11/10 19:46:00	BASE	5.97	216	8.18	214	-1.9	93	-2.8	316	718	988.3	NA	0.0000		9999	4460	0	0	0
2017/11/10 19:47:00	BASE	6.21	216	8.18	214	-1.9	93	-2.9	312	709	988.3	NA	0.0000		9999	4490	0	0	0
2017/11/10 19:48:00	BASE	6.97	216	8.18	214	-1.9	93	-2.9	309	704	988.3	NA	0.0000		9999	4460	0	0	0
2017/11/10 19:49:00	BASE	7.24	215	8.18	214	-1.9	93	-2.9	311	708	988.3	NA	0.0000		9999	4400	0	0	0
2017/11/10 19:50:00	BASE	6.87	215	8.18	214	-1.9	93	-2.9	310	705	988.3	NA	0.0000		9999	4360	0	0	0
2017/11/10 19:51:00	BASE	6.61	216	8.18	214	-2.0	93	-3.0	307	699	988.3	NA	0.0000		9999	4400	0	0	0
2017/11/10 19:52:00	BASE	6.55	217	8.18	214	-2.0	92	-3.0	306	696	988.3	NA	0.0000		9999	4430	0	0	0
2017/11/10 19:53:00	BASE	6.63	215	7.92	212	-2.0	92	-3.1	306	696	988.3	NA	0.0000		9999	4400	0	0	0
2017/11/10 19:54:00	BASE	6.60	214	7.92	212	-2.0	92	-3.1	308	700	988.3	NA	0.0000		9999	4400	23260	0	0
2017/11/10 19:55:00	BASE	5.71	218	7.92	212	-2.0	92	-3.1	313	710	988.3	NA	0.0000		9999	4360	0	0	0
2017/11/10 19:56:00	BASE	5.31	218	7.92	212	-1.9	92	-3.0	316	717	988.3	NA	0.0000		9999	4530	0	0	0
2017/11/10 19:57:00	BASE	5.89	214	7.92	212	-1.9	92	-3.0	327	741	988.3	NA	0.0000		9999	4460	0	0	0
2017/11/10 19:58:00	BASE	5.80	215	7.92	212	-1.9	92	-3.0	333	749	988.3	NA	0.0000		9999	4490	0	0	0
2017/11/10 19:59:00	BASE	5.63	218	7.67	217	-1.9	92	-3.0	352	788	988.3	NA	0.0000		9999	4460	0	0	0
2017/11/10 20:00:00	BASE	6.16	218	7.46	215	-1.9	92	-3.0	389	863	988.3	NA	0.0000		9999	4490	0	0	0
2017/11/10 20:01:00	BASE	6.47	214	7.46	215	-1.9	92	-3.0	374	830	988.3	NA	0.0000		9999	4590	0	0	0
2017/11/10 20:02:00	BASE	6.09	213	7.46	215	-1.9	92	-3.1	372	829	988.3	NA	0.0000		9999	4590	0	0	0
2017/11/10 20:03:00	BASE	6.35	215	7.61	214	-1.9	92	-3.0	345	768	988.2	NA	0.0000		9999	4560	0	0	0
2017/11/10 20:04:00	BASE	6.89	213	7.61	214	-1.9	92	-3.1	340	758	988.2	NA	0.0000		9999	4560	0	0	0
2017/11/10 20:05:01	BASE	6.82	214	7.61	214	-1.9	92	-3.1	330	740	988.2	NA	0.0000		9999	4590	0	0	0
2017/11/10 20:06:00	BASE	6.38	216	7.61	214	-1.9	92	-3.1	318	714	988.2	NA	0.0000		9999	4460	0	0	0
2017/11/10 20:07:00	BASE	6.19	217	7.61	214	-1.9	92	-3.1	310	700	988.2	NA	0.0000		9999	4560	0	0	0
2017/11/10 20:08:00	BASE	6.13	216	7.61	214	-2.0	92	-3.1	302	683	988.2	NA	0.0000		9999	4530	0	0	0
2017/11/10 20:09:00	BASE	5.83	216	7.61	214	-2.0	92	-3.1	297	674	988.2	NA	0.0000		9999	4490	0	0	0
2017/11/10 20:10:00	BASE	6.02	215	7.61	214	-2.0	92	-3.1	295	668	988.2	NA	0.0000		9999	4490	0	0	0
2017/11/10 20:11:00	BASE	6.04	210	7.61	214	-2.0	92	-3.1	295	668	988.2	NA	0.0000		9999	4460	0	0	0
2017/11/10 20:12:00	BASE	5.87	210	7.61	214	-2.0	92	-3.2	303	685	988.2	NA	0.0000		9999	4430	0	0	0
2017/11/10 20:13:00	BASE	6.22	213	7.51	207	-2.0	92	-3.2	312	701	988.1	NA	0.0000		9999	4460	0	0	0
2017/11/10 20:14:00	BASE	6.25	215	7.41	213	-2.0	91	-3.2	313	704	988.1	NA	0.0000		9999	4460	0	0	0
2017/11/10 20:15:00	BASE	5.86	212	7.20	220	-2.0	91	-3.2	311	701	988.1	NA	0.0000		9999	4430	0	0	0
2017/11/10 20:16:00	BASE	5.87	212	7.20	220	-2.0	91	-3.2	308	693	988.1	NA	0.0000		9999	4430	0	0	0
2017/11/10 20:17:00	BASE	5.70	216	7.20	220	-2.0	91	-3.2	308	694	988.1	NA	0.0000		9999	4460	0	0	0
2017/11/10 20:18:00	BASE	5.63	219	7.20	220	-2.0	91	-3.2	305	690	988.0	NA	0.0000		9999	4430	0	0	0
2017/11/10 20:19:00	BASE	5.86	218	7.20	220	-2.0	92	-3.2	294	666	988.0	NA	0.0000		9999	4360	0	0	0
2017/11/10 20:20:00	BASE	5.59	218	7.20	220	-2.0	92	-3.2	291	664	988.0	NA	0.0000		9999	4360	0	0	0
2017/11/10 20:21:00	BASE	5.47	220	7.20	220	-2.0	92	-3.2	274	627	988.0	NA	0.0000		9999	4430	0	0	0
2017/11/10 20:22:00	BASE	5.41	221	7.20	220	-2.0	92	-3.2	263	603	987.9	NA	0.0000		9999	4400	0	0	0
2017/11/10 20:23:00	BASE	5.15	219	6.74	209	-2.0	92	-3.1	256	590	987.9	NA	0.0000		9999	4330	0	0	0
2017/11/10 20:24:00	BASE	5.53	218	6.74	209	-2.0	92	-3.1	249	577	987.9	NA	0.0000		9999	4300	0	0	0
2017/11/10 20:25:00	BASE	5.88	219	6.74	218	-2.0	92	-3.1	242	562	987.9	NA	0.0000		9999	4300	0	0	0
2017/11/10 20:26:00	BASE	5.81	216	6.74	218	-2.0	92	-3.1	239	556	987.9	NA	0.0000		9999	4230	0	0	0
2017/11/10 20:27:00	BASE	5.51	219	6.74	218	-2.0	91	-3.2	239	555	987.9	NA	0.0000		9999	4330	0	0	0
2017/11/10 20:28:01	BASE	5.16	222	6.74	218	-2.0	91	-3.2	240	556	987.9	NA	0.0000		9999	4300	0	0	0
2017/11/10 20:29:00	BASE	5.03	219	6.74	218	-2.0	91	-3.3	243	562	987.9	NA	0.0000		9999	4400	0	0	0
2017/11/10 20:30:00	BASE	5.21	218	6.74	218	-2.0	91	-3.3	246	567	987.9	NA	0.0000		9999	4360	0	0	0
2017/11/10 20:31:00	BASE	5.07	220	6.74	218	-2.0	91	-3.2	244	563	987.9	NA	0.0000		9999	4230	18800	24350	0
2017/11/10 20:32:01	BASE	4.83	221	6.74	218	-1.9	91	-3.2	241	556	987.9	NA	0.0000		9999	4300	0	0	0
2017/11/10 20:33:00	BASE	5.07	219	6.74	218	-2.0	92	-3.1	245	564	987.9	NA	0.0000		9999	4270	0	0	0
2017/11/10 20:34:00	BASE	5.09	218	6.74	218	-1.9	92	-3.1	255	582	987.9	NA	0.0000		9999	4130	0	0	0
2017/11/10 20:35:00	BASE	5.10	220	6.28	213	-1.9	92	-3.0	282	638	987.9	NA	0.0000		9999	4170	22800	0	0
2017/11/10 20:36:00	BASE	5.23	219	6.02	211	-1.9	92	-3.0	287	653	987.9	NA	0.0000		9999	4200	0	0	0
2017/11/10 20:37:00	BASE	5.22	219	6.02	211	-1.9	92	-3.0	263	601	987.8	NA	0.0000		9999	4170	0	0	0
2017/11/10 20:38:00	BASE	4.93	219	6.02	211	-1.9	92	-3.0	260	597	987.9	NA	0.0000		9999	4230	0	0	0
2017/11/10 20:39:00	BASE	4.64	218	6.02	211	-1.9	92	-3.0	258	593	987.8	NA	0.0000		9999	4100	0	0	0
2017/11/10 20:40:00	BASE	4.79	218	6.02	211	-1.9	92	-3.0	254	584	987.8	NA	0.0000		9999	4200	0	0	0
2017/11/10 20:41:00	BASE	5.08	221	6.48	220	-1.9	92	-2.9	250	577	987.8	NA	0.0000		9999	4100	21100	0	0
2017/11/10 20:42:00	BASE	5.64	221	6.48	217	-1.8	93	-2.9	248	572	987.8	NA	0.0000		9999	4230	0	0	0
2017/11/10 20:43:00	BASE	5.61	220	6.48	217	-1.9	93	-2.9	266	604	987.8	NA	0.0000		9999	4130	0	0	0
2017/11/10 20:44:00	BASE	5.50	224	6.48	217	-1.9	93	-2.8	430	922	987.8	NA	0.0000		9999	4130	0	0	0
2017/11/10 20:45:00	BASE	5.97	224	6.58	223	-1.9	93	-2.8	504	1067	987.7	NA	0.0000		9999	4170	0	0	0
2017/11/10 20:46:00	BASE	6.18	223	6.64	220	-1.9	93	-2.8	357	787	987.7	NA	0.0000		9999	4100	0	0	0
2017/11/10 20:47:00	BASE	6.29	222	6.74	222	-1.9	93	-2.9	522	1077	987.7	NA	0.0000		9999	4100	0	0	0
2017/11/10 20:48:00	BASE	6.03	220	6.74	222	-1.8	93	-2.8	479	1006	987.7	NA	0.0000		9999	4400	0	0	0
2017/11/10 20:49:00	BASE	5.68	217	6.74	222	-1.8	93	-2.8	512	1066	987.7	NA	0.0000		9999	4270	0	0	0
2017/11/10 20:50:00	BASE	5.85	218	6.84	217	-1.8	93	-2.8	302	672	987.7	NA	0.0000		9999	4130	0	0	0
2017/11/10 20:51:00	BASE	5.79	224	6.84	217	-1.8	93	-2.8	311	691	987.7	NA	0.0000		9999	4200	0	0	0
2017/11/10 20:52:00	BASE	5.20	227	6.84	217	-1.7	93	-2.7	237	543	987.7	NA	0.0000		9999	4170	0	0	0
2017/11/10 20:53:00	BASE	4.79	225	6.84	217	-1.8	93	-2.7	227	522	987.7	NA	0.0000		9999	4100	0	0	0
2017/11/10 20:54:00	BASE	5.12	223	6.84	217	-1.8	93	-2.8	222	512	987.7	NA	0.0000		9999	4100	0	0	0
2017/11/10 20:55:00	BASE	5.45	223	6.84	217	-1.8	93	-2.8	218	503	987.7	NA	0.0000		9999	4100	0	0	0
2017/11/10 20:56:00	BASE	5.09	225	6.84	217	-1.9	93	-2.9	210	489	987.7	NA	0.0000		9999	4100	0	0	0
2017/11/10 20:57:00	BASE	5.05	226	6.84	217	-1.9	93	-2.9	202	472	987.7	NA	0.0000		9999	4170	0	0	0
2017/11/10 20:58:00	BASE	5.16	228	6.84	217	-1.9	93	-2.9	197	460	987.7	NA	0.0000		9999	4130	0	0	0
2017/11/10 20:59:00	BASE	5.23	228	6.84	217	-1.9	93	-2.9	194	454	987.7	NA	0.0000		9999	4040	0	0	0
2017/11/10 21:00:00	BASE	5.04	227	6.28	218	-1.9	93	-2.9	191	449	987.7	NA	0.0000		9999	4070	0	0	0
2017/11/10 21:01:01	BASE	4.70	226	6.28	218	-1.9	93	-2.9	189	444	987.7	NA	0.0000		9999	4130	0	0	0
2017/11/10 21:02:00	BASE	4.77	226	6.28	218	-1.9	93	-2.8	194	453	987.7	NA	0.0000		9999	4070	0	0	0
2017/11/10 21:03:00	BASE	4.98	226	6.28	218	-1.9	94	-2.8	205	475	987.6	NA	0.0000		9999	4130	0	0	0
2017/11/10 21:04:00	BASE	5.07	226	6.28	218	-1.9	94	-2.8	218	499	987.7	NA	0.0000		9999	4040	0	0	0
2017/11/10 21:05:00	BASE	4.73	226	5.92	217	-2.0	94	-2.8	225	513	987.7	NA	0.0000		9999	4070	0	0	0
2017/11/10 21:06:00	BASE	4.54	224	5.92	217	-2.0	94	-2.8	222	508	987.6	NA	0.0000		9999	4100	0	0	0
2017/11/10 21:07:00	BASE	4.89	221	5.76	221	-2.0	94	-2.8	222	510	987.6	NA	0.0000		9999	4040	17060	0	0
2017/11/10 21:08:00	BASE	4.80	220	5.76	221	-2.0	94	-2.8	201	469	987.6	NA	0.0000		9999	4100	0	0	0
2017/11/10 21:09:00	BASE	4.78	225	5.92	228	-2.0	94	-2.9	178	425	987.6	NA	0.0000		9999	4070	0	0	0
2017/11/10 21:10:00	BASE	5.35	230	6.38	235	-2.0	94	-2.9	159	386	987.6	NA	0.0000		9999	4360	0	0	0
2017/11/10 21:11:00	BASE	5.63	230	6.38	235	-2.0	94	-2.9	139	349	987.6	NA	0.0000		9999	4360	0	0	0
2017/11/10 21:12:00	BASE	5.25	226	6.38	235	-2.1	94	-2.9	125	323	987.6	NA	0.0000		9999	4270	0	0	0
2017/11/10 21:13:00	BASE	5.05	227	6.38	235	-2.1	94	-2.9	131	336	987.6	NA	0.0000		9999	4230	0	0	0
2017/11/10 21:14:00	BASE	5.21	228	6.38	235	-2.1	94	-2.9	450	909	987.5	NA	0.0000		9999	4300	0	0	0
2017/11/10 21:15:00	BASE	5.11	225	6.38	235	-2.1	94	-2.9	272	604	987.5	NA	0.0000		9999	4330	0	0	0
2017/11/10 21:16:01	BASE	4.76	225	6.38	235	-2.1	94	-2.9	452	918	987.4	NA	0.0000		9999	4330	0	0	0
2017/11/10 21:17:00	BASE	4.82	228	6.38	235	-2.1	94	-2.9	443	897	987.5	NA	0.0000		9999	4330	0	0	0
2017/11/10 21:18:01	BASE	5.26	229	6.38	235	-2.0	94	-2.9	431	875	987.5	NA	0.0000		9999	0	0	0	0
2017/11/10 21:19:00	BASE	5.49	227	6.74	227	-2.0	94	-2.8	424	865	987.5	NA	0.0000		9999	0	0	0	0
2017/11/10 21:20:01	BASE	5.60	228	6.74	220	-2.0	94	-2.8	418	854	987.4	NA	0.0000		9999	4230	0	0	0
2017/11/10 21:21:00	BASE	5.54	230	6.74	220	-1.9	94	-2.8	410	840	987.4	NA	0.0000		9999	4330	0	0	0
2017/11/10 21:22:00	BASE	5.61	231	6.74	220	-1.9	94	-2.8	400	822	987.4	NA	0.0000		9999	4270	0	0	0
2017/11/10 21:23:00	BASE	5.61	230	6.74	220	-1.9	93	-2.8	392	807	987.4	NA	0.0000		9999	4230	0	0	0
2017/11/10 21:24:01	BASE	5.51	229	6.74	220	-1.9	93	-2.9	349	730	987.3	NA	0.0000		9999	4270	0	0	0
2017/11/10 21:25:01	BASE	5.39	229	6.74	220	-1.9	93	-2.9	380	783	987.3	NA	0.0000		9999	4270	0	0	0
2017/11/10 21:26:00	BASE	5.07	228	6.74	220	-1.9	93	-2.9	373	770	987.3	NA	0.0000		9999	4170	0	0	0
2017/11/10 21:27:00	BASE	5.10	227	6.74	220	-1.9	93	-2.9	368	759	987.3	NA	0.0000		9999	0	0	0	0
2017/11/10 21:28:01	BASE	5.50	230	6.74	220	-1.9	93	-2.9	359	743	987.3	NA	0.0000		9999	4330	0	0	0
2017/11/10 21:29:01	BASE	5.69	229	6.74	220	-1.9	93	-2.9	357	738	987.3	NA	0.0000		9999	4270	0	0	0
2017/11/10 21:30:00	BASE	5.52	225	6.53	226	-1.9	93	-2.9	348	722	987.3	NA	0.0000		9999	4270	0	0	0
2017/11/10 21:31:01	BASE	5.55	223	6.53	226	-2.0	93	-3.0	343	713	987.3	NA	0.0000		9999	4330	0	0	0
2017/11/10 21:32:01	BASE	5.53	225	6.48	232	-2.0	93	-3.0	339	705	987.3	NA	0.0000		9999	0	0	0	0
2017/11/10 21:33:01	BASE	5.28	225	6.48	232	-2.0	93	-3.0	335	699	987.3	NA	0.0000		9999	0	0	0	0
2017/11/10 21:34:01	BASE	5.29	223	6.48	232	-2.0	93	-3.0	329	686	987.3	NA	0.0000		9999	0	0	0	0
2017/11/10 21:35:01	BASE	5.57	222	6.48	232	-2.0	93	-3.0	329	686	987.3	NA	0.0000		9999	0	0	0	0
2017/11/10 21:36:01	BASE	5.79	223	6.48	232	-2.0	93	-3.0	329	684	987.3	NA	0.0000		9999	0	0	0	0
2017/11/10 21:37:01	BASE	5.55	223	6.48	232	-2.1	93	-3.0	328	681	987.3	NA	0.0000		9999	0	0	0	0
2017/11/10 21:38:01	BASE	5.11	221	6.43	221	-2.1	93	-3.1	326	678	987.3	NA	0.0000		9999	0	0	0	0
2017/11/10 21:39:01	BASE	4.74	219	6.43	221	-2.1	93	-3.1	326	676	987.3	NA	0.0000		9999	0	0	0	0
2017/11/10 21:40:01	BASE	4.86	221	6.43	221	-2.1	93	-3.1	327	677	987.3	NA	0.0000		9999	0	0	0	0
2017/11/10 21:41:01	BASE	5.00	221	6.43	221	-2.1	93	-3.1	324	672	987.3	NA	0.0000		9999	0	0	0	0
2017/11/10 21:42:01	BASE	4.23	219	6.43	221	-2.1	93	-3.1	322	667	987.3	NA	0.0000		9999	0	0	0	0
2017/11/10 21:43:01	BASE	3.52	223	6.43	221	-2.1	93	-3.1	279	594	987.3	NA	0.0000		9999	0	0	0	0
2017/11/10 21:44:01	BASE	3.40	226	6.43	221	-2.1	93	-3.0	319	660	987.3	NA	0.0000		9999	4330	0	0	0
2017/11/10 21:45:01	BASE	3.47	226	6.38	222	-2.1	94	-3.0	322	663	987.3	NA	0.0000		9999	4330	0	0	0
2017/11/10 21:46:01	BASE	3.44	220	5.71	221	-2.0	94	-2.9	323	664	987.3	NA	0.0000		9999	0	0	0	0
2017/11/10 21:47:01	BASE	3.64	213	5.61	222	-2.0	94	-2.9	321	661	987.3	NA	0.0000		9999	0	0	0	0
2017/11/10 21:48:01	BASE	4.12	211	5.61	222	-2.0	94	-2.9	319	656	987.3	NA	0.0000		9999	0	0	0	0
2017/11/10 21:49:01	BASE	4.35	209	5.61	222	-2.1	94	-2.9	322	658	987.3	NA	0.0000		9999	0	0	0	0
2017/11/10 21:50:01	BASE	4.25	210	5.14	226	-2.1	94	-3.0	321	656	987.3	NA	0.0000		9999	4330	0	0	0
2017/11/10 21:51:01	BASE	3.97	208	5.04	216	-2.2	94	-3.0	310	637	987.3	NA	0.0000		9999	4330	0	0	0
2017/11/10 21:52:01	BASE	3.41	211	5.04	216	-2.2	94	-3.0	317	648	987.3	NA	0.0000		9999	4400	0	0	0
2017/11/10 21:53:01	BASE	3.17	217	5.04	216	-2.2	94	-3.0	303	623	987.3	NA	0.0000		9999	0	0	0	0
2017/11/10 21:54:01	BASE	3.20	214	5.04	216	-2.2	94	-3.0	215	479	987.3	NA	0.0000		9999	0	0	0	0
2017/11/10 21:55:01	BASE	3.19	211	5.04	216	-2.2	94	-3.0	347	695	987.3	NA	0.0000		9999	0	0	0	0
2017/11/10 21:56:01	BASE	3.50	210	5.04	216	-2.2	94	-3.0	159	376	987.3	NA	0.0000		9999	0	0	0	0
2017/11/10 21:57:01	BASE	3.61	208	5.04	216	-2.2	94	-3.0	164	383	987.3	NA	0.0000		9999	4360	0	0	0
2017/11/10 21:58:01	BASE	3.48	205	4.68	213	-2.2	94	-3.0	234	503	987.3	NA	0.0000		9999	4360	0	0	0
2017/11/10 21:59:01	BASE	3.47	205	4.32	204	-2.2	95	-2.9	289	598	987.3	NA	0.0000		9999	4360	0	0	0
2017/11/10 22:00:01	BASE	3.64	207	4.32	204	-2.2	95	-2.9	178	404	987.3	NA	0.0000		9999	4360	0	0	0
2017/11/10 22:01:01	BASE	4.50	208	6.48	213	-2.2	95	-2.9	244	517	987.3	NA	0.0000		9999	4360	0	0	0
2017/11/10 22:02:01	BASE	5.45	211	6.74	209	-2.2	95	-2.9	197	437	987.3	NA	0.0000		9999	4360	0	0	0
2017/11/10 22:03:01	BASE	5.48	213	7.05	212	-2.2	95	-2.9	185	414	987.3	NA	0.0000		9999	4360	0	0	0
2017/11/10 22:04:01	BASE	5.63	214	7.10	212	-2.2	95	-2.9	204	446	987.3	NA	0.0000		9999	4360	0	0	0
2017/11/10 22:05:01	BASE	6.05	214	7.10	212	-2.3	95	-3.0	203	443	987.3	NA	0.0000		9999	4330	0	0	0
2017/11/10 22:06:01	BASE	5.73	215	7.10	212	-2.3	95	-3.0	309	617	987.3	NA	0.0000		9999	4330	0	0	0
2017/11/10 22:07:01	BASE	5.44	219	7.10	212	-2.3	95	-3.0	276	561	987.3	NA	0.0000		9999	4360	0	0	0
2017/11/10 22:08:01	BASE	5.68	221	7.15	229	-2.3	94	-3.0	270	545	987.3	NA	0.0000		9999	4300	0	0	0
2017/11/10 22:09:01	BASE	5.68	220	7.15	229	-2.2	94	-3.0	335	652	987.3	NA	0.0000		9999	4330	0	0	0
2017/11/10 22:10:01	BASE	5.92	220	7.15	229	-2.2	94	-3.0	197	429	987.3	NA	0.0000		9999	4330	0	0	0
2017/11/10 22:11:01	BASE	6.09	219	7.15	229	-2.2	94	-3.0	185	406	987.3	NA	0.0000		9999	4360	0	0	0
2017/11/10 22:12:01	BASE	6.15	219	7.36	221	-2.2	94	-3.0	289	573	987.3	NA	0.0000		9999	0	0	0	0
2017/11/10 22:13:01	BASE	6.11	218	7.36	221	-2.2	94	-3.1	280	553	987.3	NA	0.0000		9999	0	0	0	0
2017/11/10 22:14:01	BASE	6.02	219	7.36	221	-2.2	93	-3.1	63	189	987.3	NA	0.0000		9999	0	0	0	0
2017/11/10 22:15:01	BASE	6.22	224	7.36	221	-2.2	93	-3.2	48	159	987.3	NA	0.0000		9999	0	0	0	0
2017/11/10 22:16:01	BASE	6.01	223	7.36	221	-2.3	93	-3.3	41	147	987.3	NA	0.0000		9999	0	0	0	0
2017/11/10 22:17:01	BASE	5.71	221	7.36	221	-2.3	93	-3.3	39	143	987.3	NA	0.0000		9999	0	0	0	0
2017/11/10 22:18:01	BASE	5.53	222	7.36	221	-2.4	93	-3.4	40	145	987.3	NA	0.0000		9999	0	0	0	0
2017/11/10 22:19:01	BASE	5.50	223	7.36	221	-2.4	93	-3.4	44	151	987.3	NA	0.0000		9999	0	0	0	0
2017/11/10 22:20:01	BASE	5.14	223	7.36	221	-2.5	93	-3.5	51	162	987.3	NA	0.0000		9999	0	0	0	0
2017/11/10 22:21:01	BASE	4.92	220	7.36	221	-2.5	92	-3.5	63	185	987.3	NA	0.0000		9999	0	0	0	0
2017/11/10 22:22:01	BASE	5.84	221	7.61	225	-2.5	92	-3.6	135	310	987.2	NA	0.0000		9999	0	0	0	0
2017/11/10 22:23:01	BASE	6.25	221	7.61	225	-2.5	92	-3.5	243	483	987.2	NA	0.0000		9999	0	0	0	0
2017/11/10 22:24:01	BASE	6.14	221	7.61	225	-2.4	92	-3.5	168	362	987.2	NA	0.0000		9999	0	0	0	0
2017/11/10 22:25:01	BASE	6.08	224	7.61	225	-2.4	93	-3.4	219	441	987.2	NA	0.0000		9999	0	0	0	0
2017/11/10 22:26:01	BASE	5.90	223	7.61	225	-2.4	93	-3.4	225	450	987.2	NA	0.0000		9999	0	0	0	0
2017/11/10 22:27:01	BASE	6.06	221	7.61	225	-2.4	93	-3.3	182	383	987.3	NA	0.0000		9999	0	0	0	0
2017/11/10 22:28:01	BASE	5.91	220	7.61	225	-2.3	93	-3.3	63	191	987.3	NA	0.0000		9999	0	0	0	0
2017/11/10 22:29:01	BASE	5.63	220	7.61	225	-2.3	93	-3.3	106	259	987.3	NA	0.0000		9999	3510	0	0	0
2017/11/10 22:30:01	BASE	5.73	220	7.61	225	-2.3	93	-3.3	166	356	987.3	NA	0.0000		9999	0	0	0	0
2017/11/10 22:31:01	BASE	5.50	218	7.61	225	-2.3	93	-3.3	221	441	987.3	NA	0.0000		9999	0	0	0	0
2017/11/10 22:32:01	BASE	5.24	215	7.20	221	-2.3	93	-3.3	207	417	987.3	NA	0.0000		9999	0	0	0	0
2017/11/10 22:33:01	BASE	5.47	216	7.00	225	-2.3	93	-3.3	193	394	987.3	NA	0.0000		9999	0	0	0	0
2017/11/10 22:34:01	BASE	5.42	219	6.94	218	-2.3	93	-3.3	178	370	987.3	NA	0.0000		9999	0	0	0	0
2017/11/10 22:35:01	BASE	5.21	217	6.94	218	-2.3	93	-3.3	201	404	987.3	NA	0.0000		9999	0	0	0	0
2017/11/10 22:36:01	BASE	5.12	215	6.64	213	-2.3	93	-3.3	200	400	987.3	NA	0.0000		9999	0	0	0	0
2017/11/10 22:37:01	BASE	5.43	215	6.64	213	-2.3	93	-3.3	198	396	987.3	NA	0.0000		9999	0	0	0	0
2017/11/10 22:38:01	BASE	5.53	216	6.64	213	-2.3	93	-3.2	195	390	987.3	NA	0.0000		9999	0	0	0	0
2017/11/10 22:39:01	BASE	5.46	216	6.64	213	-2.3	93	-3.2	176	358	987.3	NA	0.0000		9999	0	0	0	0
2017/11/10 22:40:01	BASE	5.81	210	7.20	196	-2.3	94	-3.2	192	383	987.3	NA	0.0000		9999	0	0	0	0
2017/11/10 22:41:01	BASE	6.48	208	7.56	208	-2.3	94	-3.2	191	381	987.3	NA	0.0000		9999	0	0	0	0
2017/11/10 22:42:01	BASE	7.00	211	8.08	208	-2.3	94	-3.2	189	375	987.3	NA	0.0000		9999	0	0	0	0
2017/11/10 22:43:01	BASE	6.83	211	8.08	208	-2.3	94	-3.2	186	370	987.3	NA	0.0000		9999	0	0	0	0
2017/11/10 22:44:01	BASE	6.31	211	8.08	208	-2.4	94	-3.2	184	365	987.3	NA	0.0000		9999	0	0	0	0
2017/11/10 22:45:01	BASE	5.76	214	8.08	208	-2.4	94	-3.2	182	362	987.3	NA	0.0000		9999	0	0	0	0
2017/11/10 22:46:01	BASE	5.49	215	8.08	208	-2.4	94	-3.2	181	360	987.3	NA	0.0000		9999	0	0	0	0
2017/11/10 22:47:01	BASE	5.84	213	8.08	208	-2.3	94	-3.2	180	357	987.3	NA	0.0000		9999	0	0	0	0
2017/11/10 22:48:01	BASE	6.12	212	8.08	208	-2.3	94	-3.2	171	341	987.3	NA	0.0000		9999	0	0	0	0
2017/11/10 22:49:01	BASE	6.07	211	8.08	208	-2.3	94	-3.2	176	347	987.3	NA	0.0000		9999	0	0	0	0
2017/11/10 22:50:01	BASE	6.43	212	8.08	208	-2.4	94	-3.2	174	343	987.3	NA	0.0000		9999	0	0	0	0
2017/11/10 22:51:01	BASE	6.62	212	8.08	208	-2.4	94	-3.1	172	339	987.3	NA	0.0000		9999	0	0	0	0
2017/11/10 22:52:01	BASE	6.93	212	8.49	210	-2.4	95	-3.1	170	335	987.2	NA	0.0000		9999	0	0	0	0
2017/11/10 22:53:01	BASE	7.21	211	8.49	210	-2.4	95	-3.2	168	331	987.2	NA	0.0000		9999	0	0	0	0
2017/11/10 22:54:01	BASE	7.32	209	8.49	210	-2.4	95	-3.2	166	327	987.2	NA	0.0000		9999	0	0	0	0
2017/11/10 22:55:01	BASE	7.25	209	8.49	210	-2.4	94	-3.2	163	322	987.2	NA	0.0000		9999	0	0	0	0
2017/11/10 22:56:01	BASE	6.88	212	8.49	210	-2.5	94	-3.3	161	318	987.3	NA	0.0000		9999	0	0	0	0
2017/11/10 22:57:01	BASE	7.05	212	8.49	210	-2.5	94	-3.3	159	314	987.2	NA	0.0000		9999	0	0	0	0
2017/11/10 22:58:01	BASE	7.25	210	8.49	210	-2.5	94	-3.3	158	310	987.2	NA	0.0000		9999	0	0	0	0
2017/11/10 22:59:01	BASE	6.84	212	8.49	210	-2.5	94	-3.3	156	307	987.2	NA	0.0000		9999	0	0	0	0
2017/11/10 23:00:01	BASE	6.34	215	8.49	210	-2.5	94	-3.3	154	303	987.3	NA	0.0000		9999	0	0	0	0
2017/11/10 23:01:01	BASE	6.11	213	8.49	210	-2.5	94	-3.3	152	298	987.2	NA	0.0000		9999	0	0	0	0
2017/11/10 23:02:01	BASE	6.42	210	8.39	212	-2.5	94	-3.3	150	294	987.2	NA	0.0000		9999	0	0	0	0
2017/11/10 23:03:01	BASE	6.81	212	8.39	212	-2.5	94	-3.3	149	291	987.3	NA	0.0000		9999	0	0	0	0
2017/11/10 23:04:01	BASE	6.82	213	8.18	219	-2.5	94	-3.3	147	287	987.3	NA	0.0000		9999	0	0	0	0
2017/11/10 23:05:01	BASE	7.08	213	8.18	219	-2.5	94	-3.3	146	284	987.3	NA	0.0000		9999	0	0	0	0
2017/11/10 23:06:01	BASE	7.01	212	8.18	219	-2.5	94	-3.3	144	280	987.3	NA	0.0000		9999	0	0	0	0
2017/11/10 23:07:01	BASE	6.44	211	8.08	208	-2.5	94	-3.3	143	277	987.3	NA	0.0000		9999	0	0	0	0
2017/11/10 23:08:01	BASE	6.02	214	8.08	208	-2.5	94	-3.3	142	274	987.3	NA	0.0000		9999	0	0	0	0
2017/11/10 23:09:01	BASE	5.99	218	8.08	208	-2.5	94	-3.3	140	270	987.3	NA	0.0000		9999	0	0	0	0
2017/11/10 23:10:01	BASE	6.15	214	8.08	208	-2.5	95	-3.2	138	266	987.2	NA	0.0000		9999	0	0	0	0
2017/11/10 23:11:01	BASE	6.62	205	8.08	208	-2.5	95	-3.2	136	263	987.2	NA	0.0000		9999	0	0	0	0
2017/11/10 23:12:00	BASE	6.00	207	8.08	208	-2.5	95	-3.2	134	259	987.3	NA	0.0000		9999	0	0	0	0
2017/11/10 23:13:00	BASE	6.05	212	8.64	221	-2.5	95	-3.2	131	255	987.3	NA	0.0000		9999	0	0	0	0
2017/11/10 23:14:00	BASE	7.10	212	8.64	221	-2.5	95	-3.2	130	251	987.3	NA	0.0000		9999	0	0	0	0
2017/11/10 23:15:00	BASE	7.77	211	9.31	214	-2.5	95	-3.2	128	248	987.3	NA	0.0000		9999	0	0	0	0
2017/11/10 23:16:00	BASE	8.24	212	9.31	214	-2.5	95	-3.2	126	245	987.3	NA	0.0000		9999	0	0	0	0
2017/11/10 23:17:00	BASE	8.18	212	9.31	214	-2.5	95	-3.2	124	241	987.3	NA	0.0000		9999	0	0	0	0
2017/11/10 23:18:00	BASE	8.04	211	9.31	214	-2.5	95	-3.2	122	237	987.3	NA	0.0000		9999	0	0	0	0
2017/11/10 23:19:00	BASE	8.22	211	9.41	209	-2.5	95	-3.2	120	234	987.3	NA	0.0000		9999	0	0	0	0
2017/11/10 23:20:00	BASE	8.69	215	9.41	215	-2.6	95	-3.3	118	231	987.3	NA	0.0000		9999	0	0	0	0
2017/11/10 23:21:00	BASE	8.24	218	9.41	215	-2.6	95	-3.3	117	228	987.3	NA	0.0000		9999	0	0	0	0
2017/11/10 23:22:00	BASE	7.45	218	9.41	215	-2.6	95	-3.3	114	224	987.2	NA	0.0000		9999	0	0	0	0
2017/11/10 23:23:00	BASE	7.27	218	9.41	215	-2.7	95	-3.4	112	221	987.2	NA	0.0000		9999	0	0	0	0
2017/11/10 23:24:00	BASE	7.34	216	9.41	215	-2.7	95	-3.4	110	217	987.2	NA	0.0000		9999	0	0	0	0
2017/11/10 23:25:00	BASE	7.89	213	10.65	208	-2.7	95	-3.4	108	213	987.2	NA	0.0000		9999	0	0	0	0
2017/11/10 23:26:00	BASE	7.94	214	10.65	208	-2.7	95	-3.5	106	209	987.1	NA	0.0000		9999	0	0	0	0
2017/11/10 23:27:00	BASE	7.60	214	10.65	208	-2.8	94	-3.5	104	205	987.2	NA	0.0000		9999	0	0	0	0
2017/11/10 23:28:00	BASE	7.70	213	10.65	208	-2.8	94	-3.6	102	201	987.2	NA	0.0000		9999	0	0	0	0
2017/11/10 23:29:01	BASE	8.49	213	10.65	208	-2.8	94	-3.7	100	197	987.1	NA	0.0000		9999	0	0	0	0
2017/11/10 23:30:01	BASE	8.78	214	10.65	208	-2.8	93	-3.7	98	194	987.2	NA	0.0000		9999	0	0	0	0
2017/11/10 23:31:00	BASE	7.51	213	10.65	208	-2.8	93	-3.8	96	190	987.2	NA	0.0000		9999	0	0	0	0
2017/11/10 23:32:00	BASE	6.47	212	10.65	208	-2.8	93	-3.8	94	186	987.3	NA	0.0000		9999	0	0	0	0
2017/11/10 23:33:00	BASE	6.17	211	10.65	208	-2.8	93	-3.8	92	183	987.3	NA	0.0000		9999	0	0	0	0
2017/11/10 23:34:00	BASE	6.37	211	10.65	208	-2.8	93	-3.8	90	179	987.3	NA	0.0000		9999	0	0	0	0
2017/11/10 23:35:00	BASE	6.42	211	10.19	211	-2.8	93	-3.8	89	175	987.3	NA	0.0000		9999	0	0	0	0
2017/11/10 23:36:00	BASE	7.32	212	10.19	211	-2.8	93	-3.8	86	172	987.2	NA	0.0000		9999	0	0	0	0
2017/11/10 23:37:00	BASE	8.34	210	10.19	211	-2.8	93	-3.8	85	168	987.2	NA	0.0000		9999	0	0	0	0
2017/11/10 23:38:00	BASE	8.91	208	11.27	208	-2.9	93	-3.9	82	164	987.2	NA	0.0000		9999	0	0	0	0
2017/11/10 23:39:00	BASE	9.28	208	11.27	208	-2.9	93	-3.9	80	160	987.2	NA	0.0000		9999	0	0	0	0
2017/11/10 23:40:00	BASE	8.60	208	11.27	208	-2.9	92	-4.0	79	157	987.3	NA	0.0000		9999	0	0	0	0
2017/11/10 23:41:00	BASE	8.49	207	11.27	208	-2.9	92	-4.0	77	153	987.2	NA	0.0000		9999	0	0	0	0
2017/11/10 23:42:00	BASE	8.12	210	11.27	208	-2.9	92	-4.0	75	150	987.3	NA	0.0000		9999	0	0	0	0
2017/11/10 23:43:00	BASE	7.89	210	11.27	208	-2.9	92	-4.1	73	146	987.2	NA	0.0000		9999	0	0	0	0
2017/11/10 23:44:00	BASE	8.26	209	11.27	208	-2.9	92	-4.1	71	143	987.3	NA	0.0000		9999	0	0	0	0
2017/11/10 23:45:00	BASE	7.53	207	11.27	208	-2.9	92	-4.1	70	140	987.3	NA	0.0000		9999	0	0	0	0
2017/11/10 23:46:00	BASE	7.58	207	11.27	208	-2.9	92	-4.1	69	137	987.3	NA	0.0000		9999	0	0	0	0
2017/11/10 23:47:00	BASE	8.22	211	11.27	208	-3.0	92	-4.1	68	134	987.3	NA	0.0000		9999	0	0	0	0
2017/11/10 23:48:00	BASE	8.21	213	10.70	208	-3.0	92	-4.1	65	130	987.3	NA	0.0000		9999	1610	0	0	0
2017/11/10 23:49:00	BASE	7.62	213	9.93	202	-3.0	92	-4.1	61	124	987.3	NA	0.0000		9999	0	0	0	0
2017/11/10 23:50:00	BASE	7.52	214	9.93	202	-3.0	92	-4.1	58	119	987.2	NA	0.0000		9999	0	0	0	0
2017/11/10 23:51:00	BASE	7.86	212	9.93	202	-3.0	92	-4.1	56	115	987.3	NA	0.0000		9999	0	0	0	0
2017/11/10 23:52:00	BASE	7.18	209	9.93	202	-3.0	92	-4.1	55	112	987.2	NA	0.0000		9999	0	0	0	0
2017/11/10 23:53:00	BASE	7.13	207	9.52	213	-3.0	92	-4.1	56	112	987.3	NA	0.0000		9999	0	0	0	0
2017/11/10 23:54:00	BASE	7.98	206	9.21	206	-3.0	92	-4.1	57	113	987.3	NA	0.0000		9999	0	0	0	0
2017/11/10 23:55:00	BASE	8.12	206	9.21	206	-3.0	92	-4.1	55	110	987.3	NA	0.0000		9999	0	0	0	0
2017/11/10 23:56:00	BASE	7.90	207	9.21	206	-3.0	92	-4.1	54	107	987.3	NA	0.0000		9999	0	0	0	0
2017/11/10 23:57:00	BASE	7.49	208	9.21	206	-3.0	92	-4.1	52	104	987.3	NA	0.0000		9999	0	0	0	0
2017/11/10 23:58:00	BASE	6.55	207	9.21	206	-3.0	92	-4.1	50	101	987.3	NA	0.0000		9999	0	0	0	0
2017/11/10 23:59:00	BASE	6.46	205	9.21	206	-3.0	92	-4.2	49	99	987.3	NA	0.0000		9999	0	0	0	0